[[{"header":{"parameterUnit":"m.s-1","parameterCategory":1,"la1":30.6,"la2":28.766,"lo1":-90.7593,"lo2":-88.6598,"dy":0.0162,"dx":0.0183,"nx":116,"ny":114,"refTime":"2024-04-09T18:00:00:Z","depth":0,"parameterNumber":2,"parameterNumberName":"U-component_of_WINDS"},"data":[0.0,0.0,0.0,0.0,0.0,0.0,0.0,0.0,0.0,0.0,0.0,0.0,0.0,0.0,0.0,0.0,0.0,0.0,0.0,0.0,0.0,0.0,0.0,0.0,0.0,0.0,0.0,0.0,0.0,0.0,0.0,0.0,0.0,0.0,0.0,0.0,0.0,0.0,0.0,0.0,0.0,0.0,0.0,0.0,0.0,0.0,0.0,0.0,0.0,0.0,0.0,0.0,0.0,0.0,0.0,0.0,0.0,0.0,0.0,0.0,0.0,0.0,0.0,0.0,0.0,0.0,0.0,0.0,0.0,0.0,0.0,0.0,0.0,0.0,0.0,0.0,0.0,0.0,0.0,0.0,0.0,0.0,0.0,0.0,0.0,0.0,0.0,0.0,0.0,0.0,0.0,0.0,0.0,0.0,0.0,0.0,0.0,0.0,0.0,0.0,0.0,0.0,0.0,0.0,0.0,0.0,0.0,0.0,0.0,0.0,0.0,0.0,0.0,0.0,0.0,0.0,0.0,0.0,0.0,0.0,0.0,0.0,0.0,0.0,0.0,0.0,0.0,0.0,0.0,0.0,0.0,0.0,0.0,0.0,0.0,0.0,0.0,0.0,0.0,0.0,0.0,0.0,0.0,0.0,0.0,0.0,0.0,0.0,0.0,0.0,0.0,0.0,0.0,0.0,0.0,0.0,0.0,0.0,0.0,0.0,0.0,0.0,0.0,0.0,0.0,0.0,0.0,0.0,0.0,0.0,0.0,0.0,0.0,0.0,0.0,0.0,0.0,0.0,0.0,0.0,0.0,0.0,0.0,0.0,0.0,0.0,0.0,0.0,0.0,0.0,0.0,0.0,0.0,0.0,0.0,0.0,0.0,0.0,0.0,0.0,0.0,0.0,0.0,0.0,0.0,0.0,0.0,0.0,0.0,0.0,0.0,0.0,0.0,0.0,0.0,0.0,0.0,0.0,0.0,0.0,0.0,0.0,0.0,0.0,0.0,0.0,0.0,0.0,0.0,0.0,0.0,0.0,0.0,0.0,0.0,0.0,0.0,0.0,0.0,0.0,0.0,0.0,0.0,0.0,0.0,0.0,0.0,0.0,0.0,0.0,0.0,0.0,0.0,0.0,0.0,0.0,0.0,0.0,0.0,0.0,0.0,0.0,0.0,0.0,0.0,0.0,0.0,0.0,0.0,0.0,0.0,0.0,0.0,0.0,0.0,0.0,0.0,0.0,0.0,0.0,0.0,0.0,0.0,0.0,0.0,0.0,0.0,0.0,0.0,0.0,0.0,0.0,0.0,0.0,0.0,0.0,0.0,0.0,0.0,0.0,0.0,0.0,0.0,0.0,0.0,0.0,0.0,0.0,0.0,0.0,0.0,0.0,0.0,0.0,0.0,0.0,0.0,0.0,0.0,0.0,0.0,0.0,0.0,0.0,0.0,0.0,0.0,0.0,0.0,0.0,0.0,0.0,0.0,0.0,0.0,0.0,0.0,0.0,0.0,0.0,0.0,0.0,0.0,0.0,0.0,0.0,0.0,0.0,0.0,0.0,0.0,0.0,0.0,0.0,0.0,0.0,0.0,0.0,0.0,0.0,0.0,0.0,0.0,0.0,0.0,0.0,0.0,0.0,0.0,0.0,0.0,0.0,0.0,0.0,0.0,0.0,0.0,0.0,0.0,0.0,0.0,0.0,0.0,0.0,0.0,0.0,0.0,0.0,0.0,0.0,0.0,0.0,0.0,0.0,0.0,0.0,0.0,0.0,0.0,0.0,0.0,0.0,0.0,0.0,0.0,0.0,0.0,0.0,0.0,0.0,0.0,0.0,0.0,0.0,0.0,0.0,0.0,0.0,0.0,0.0,0.0,0.0,0.0,0.0,0.0,0.0,0.0,0.0,0.0,0.0,0.0,0.0,0.0,0.0,0.0,0.0,0.0,0.0,0.0,0.0,0.0,0.0,0.0,0.0,0.0,0.0,0.0,0.0,0.0,0.0,0.0,0.0,0.0,0.0,0.0,0.0,0.0,0.0,0.0,0.0,0.0,0.0,0.0,0.0,0.0,0.0,0.0,0.0,0.0,0.0,0.0,0.0,0.0,0.0,0.0,0.0,0.0,0.0,0.0,0.0,0.0,0.0,0.0,0.0,0.0,0.0,0.0,0.0,0.0,0.0,0.0,0.0,0.0,0.0,0.0,0.0,0.0,0.0,0.0,0.0,0.0,0.0,0.0,0.0,0.0,0.0,0.0,0.0,0.0,0.0,0.0,0.0,0.0,0.0,0.0,0.0,0.0,0.0,0.0,0.0,0.0,0.0,0.0,0.0,0.0,0.0,0.0,0.0,0.0,0.0,0.0,0.0,0.0,0.0,0.0,0.0,0.0,0.0,0.0,0.0,0.0,0.0,0.0,0.0,0.0,0.0,0.0,0.0,0.0,0.0,0.0,0.0,0.0,0.0,0.0,0.0,0.0,0.0,0.0,0.0,0.0,0.0,0.0,0.0,0.0,0.0,0.0,0.0,0.0,0.0,0.0,0.0,0.0,0.0,0.0,0.0,0.0,0.0,0.0,0.0,0.0,0.0,0.0,0.0,0.0,0.0,0.0,0.0,0.0,0.0,0.0,0.0,0.0,0.0,0.0,0.0,0.0,0.0,0.0,0.0,0.0,0.0,0.0,0.0,0.0,0.0,0.0,0.0,0.0,0.0,0.0,0.0,0.0,0.0,0.0,0.0,0.0,0.0,0.0,0.0,0.0,0.0,0.0,0.0,0.0,0.0,0.0,0.0,0.0,0.0,0.0,0.0,0.0,0.0,0.0,0.0,0.0,0.0,0.0,0.0,0.0,0.0,0.0,0.0,0.0,0.0,0.0,0.0,0.0,0.0,0.0,0.0,0.0,0.0,0.0,0.0,0.0,0.0,0.0,0.0,0.0,0.0,0.0,0.0,0.0,0.0,0.0,0.0,0.0,0.0,0.0,0.0,0.0,0.0,0.0,0.0,0.0,0.0,0.0,0.0,0.0,0.0,0.0,0.0,0.0,0.0,0.0,0.0,0.0,0.0,0.0,0.0,0.0,0.0,0.0,0.0,0.0,0.0,0.0,0.0,0.0,0.0,0.0,0.0,0.0,0.0,0.0,0.0,0.0,0.0,0.0,0.0,0.0,0.0,0.0,0.0,0.0,0.0,0.0,0.0,0.0,0.0,0.0,0.0,0.0,0.0,0.0,0.0,0.0,0.0,0.0,0.0,0.0,0.0,0.0,0.0,0.0,0.0,0.0,0.0,0.0,0.0,0.0,0.0,0.0,0.0,0.0,0.0,0.0,0.0,0.0,0.0,0.0,0.0,0.0,0.0,0.0,0.0,0.0,0.0,0.0,0.0,0.0,0.0,0.0,0.0,0.0,0.0,0.0,0.0,0.0,0.0,0.0,0.0,0.0,0.0,0.0,0.0,0.0,0.0,0.0,0.0,0.0,0.0,0.0,0.0,0.0,0.0,0.0,0.0,0.0,0.0,0.0,0.0,0.0,0.0,0.0,0.0,0.0,0.0,0.0,0.0,0.0,0.0,0.0,0.0,0.0,0.0,0.0,0.0,0.0,0.0,0.0,0.0,0.0,0.0,0.0,0.0,0.0,0.0,0.0,0.0,0.0,0.0,0.0,0.0,0.0,0.0,0.0,0.0,0.0,0.0,0.0,0.0,0.0,0.0,0.0,0.0,0.0,0.0,0.0,0.0,0.0,0.0,0.0,0.0,0.0,0.0,0.0,0.0,0.0,0.0,0.0,0.0,0.0,0.0,0.0,0.0,0.0,0.0,0.0,0.0,0.0,0.0,0.0,0.0,0.0,0.0,0.0,0.0,0.0,0.0,0.0,0.0,0.0,0.0,0.0,0.0,0.0,0.0,0.0,0.0,0.0,0.0,0.0,0.0,0.0,0.0,0.0,0.0,0.0,0.0,0.0,0.0,0.0,0.0,0.0,0.0,0.0,0.0,0.0,0.0,0.0,0.0,0.0,0.0,0.0,0.0,0.0,0.0,0.0,0.0,0.0,0.0,0.0,0.0,0.0,0.0,0.0,0.0,0.0,0.0,0.0,0.0,0.0,0.0,0.0,0.0,0.0,0.0,0.0,0.0,0.0,0.0,0.0,0.0,0.0,0.0,0.0,0.0,0.0,0.0,0.0,0.0,0.0,0.0,0.0,0.0,0.0,0.0,0.0,0.0,0.0,0.0,0.0,0.0,0.0,0.0,0.0,0.0,0.0,0.0,0.0,0.0,0.0,0.0,0.0,0.0,0.0,0.0,0.0,0.0,0.0,0.0,0.0,0.0,0.0,0.0,0.0,0.0,0.0,0.0,0.0,0.0,0.0,0.0,0.0,0.0,0.0,0.0,0.0,0.0,0.0,0.0,0.0,0.0,0.0,0.0,0.0,0.0,0.0,0.0,0.0,0.0,0.0,0.0,0.0,0.0,0.0,0.0,0.0,0.0,0.0,0.0,0.0,0.0,0.0,0.0,0.0,0.0,0.0,0.0,0.0,0.0,0.0,0.0,0.0,0.0,0.0,0.0,0.0,0.0,0.0,0.0,0.0,0.0,0.0,0.0,0.0,0.0,0.0,0.0,0.0,0.0,0.0,0.0,0.0,0.0,0.0,0.0,0.0,0.0,0.0,0.0,0.0,0.0,0.0,0.0,0.0,0.0,0.0,0.0,0.0,0.0,0.0,0.0,0.0,0.0,0.0,0.0,0.0,0.0,0.0,0.0,0.0,0.0,0.0,0.0,0.0,0.0,0.0,0.0,0.0,0.0,0.0,0.0,0.0,0.0,0.0,0.0,0.0,0.0,0.0,0.0,0.0,0.0,0.0,0.0,0.0,0.0,0.0,0.0,0.0,0.0,0.0,0.0,0.0,0.0,0.0,0.0,0.0,0.0,0.0,0.0,0.0,0.0,0.0,0.0,0.0,0.0,0.0,0.0,0.0,0.0,0.0,0.0,0.0,0.0,0.0,0.0,0.0,0.0,0.0,0.0,0.0,0.0,0.0,0.0,0.0,0.0,0.0,0.0,0.0,0.0,0.0,0.0,0.0,0.0,0.0,0.0,0.0,0.0,0.0,0.0,0.0,0.0,0.0,0.0,0.0,0.0,0.0,0.0,0.0,0.0,0.0,0.0,0.0,0.0,0.0,0.0,0.0,0.0,0.0,0.0,0.0,0.0,0.0,0.0,0.0,0.0,0.0,0.0,0.0,0.0,0.0,0.0,0.0,0.0,0.0,0.0,0.0,0.0,0.0,0.0,0.0,0.0,0.0,0.0,0.0,0.0,0.0,0.0,0.0,0.0,0.0,0.0,0.0,0.0,0.0,0.0,0.0,0.0,0.0,0.0,0.0,0.0,0.0,0.0,0.0,0.0,0.0,0.0,0.0,0.0,0.0,0.0,0.0,0.0,0.0,0.0,0.0,0.0,0.0,0.0,0.0,0.0,0.0,0.0,0.0,0.0,0.0,0.0,0.0,0.0,0.0,0.0,0.0,0.0,0.0,0.0,0.0,0.0,0.0,0.0,0.0,0.0,0.0,0.0,0.0,0.0,0.0,0.0,0.0,0.0,0.0,0.0,0.0,0.0,0.0,0.0,0.0,0.0,0.0,0.0,0.0,0.0,0.0,0.0,0.0,0.0,0.0,0.0,0.0,0.0,0.0,0.0,0.0,0.0,0.0,0.0,0.0,0.0,0.0,0.0,0.0,0.0,0.0,0.0,0.0,0.0,0.0,0.0,0.0,0.0,0.0,0.0,0.0,0.0,0.0,0.0,0.0,0.0,0.0,0.0,0.0,0.0,0.0,0.0,0.0,0.0,0.0,0.0,0.0,0.0,0.0,0.0,0.0,0.0,0.0,0.0,0.0,0.0,0.0,0.0,0.0,0.0,0.0,0.0,0.0,0.0,0.0,0.0,0.0,0.0,0.0,0.0,0.0,0.0,0.0,0.0,0.0,0.0,0.0,0.0,0.0,0.0,0.0,0.0,0.0,0.0,0.0,0.0,0.0,0.0,0.0,0.0,0.0,0.0,0.0,0.0,0.0,0.0,0.0,0.0,0.0,0.0,0.0,0.0,0.0,0.0,-3.5154,0.0,0.0,0.0,0.0,0.0,0.0,0.0,0.0,0.0,0.0,0.0,0.0,0.0,0.0,0.0,0.0,0.0,0.0,0.0,0.0,0.0,0.0,0.0,0.0,-3.8707,-3.8707,-3.8707,-3.8707,-3.8707,-3.8707,-3.8707,0.0,0.0,0.0,0.0,-3.8707,-3.8707,-3.8707,-3.8707,-3.8415,-3.8148,-3.7894,-3.736,-3.6964,-3.6709,0.0,0.0,0.0,0.0,0.0,0.0,0.0,0.0,0.0,0.0,0.0,0.0,0.0,0.0,0.0,0.0,0.0,0.0,0.0,0.0,0.0,0.0,0.0,0.0,0.0,0.0,0.0,0.0,0.0,0.0,0.0,0.0,0.0,0.0,0.0,0.0,0.0,0.0,0.0,0.0,0.0,0.0,0.0,0.0,0.0,0.0,0.0,0.0,0.0,0.0,0.0,0.0,0.0,0.0,0.0,0.0,0.0,0.0,0.0,0.0,0.0,0.0,0.0,0.0,0.0,0.0,0.0,0.0,0.0,0.0,0.0,-3.5726,0.0,0.0,0.0,0.0,0.0,0.0,0.0,0.0,0.0,0.0,0.0,0.0,0.0,0.0,0.0,0.0,0.0,0.0,0.0,0.0,0.0,-3.8707,-3.8707,-3.8707,-3.8707,-3.8707,-3.8707,-3.8707,-3.8707,-3.8707,-3.8707,-3.8707,-3.8707,-3.8707,-3.8707,-3.8707,-3.8707,-3.8707,-3.8707,-3.8481,-3.8048,-3.8048,-3.8048,-3.7997,-3.7451,0.0,0.0,0.0,0.0,0.0,0.0,0.0,0.0,0.0,0.0,0.0,0.0,0.0,0.0,0.0,0.0,0.0,0.0,0.0,0.0,0.0,0.0,0.0,0.0,0.0,0.0,0.0,0.0,0.0,0.0,0.0,0.0,0.0,0.0,0.0,0.0,0.0,0.0,0.0,0.0,0.0,0.0,0.0,0.0,0.0,0.0,0.0,0.0,0.0,0.0,0.0,0.0,0.0,0.0,0.0,0.0,0.0,0.0,0.0,0.0,0.0,0.0,0.0,0.0,0.0,-3.8007,-3.8007,-3.8007,-3.7926,-3.6648,-3.6075,-3.6042,0.0,0.0,0.0,0.0,0.0,0.0,0.0,0.0,0.0,0.0,0.0,0.0,0.0,0.0,0.0,0.0,0.0,0.0,0.0,0.0,-3.8707,-3.8707,-3.8707,-3.8707,-3.8707,-3.8707,-3.8707,-3.8707,-3.8707,-3.8707,-3.8707,-3.8707,-3.8707,-3.8707,-3.8707,-3.8707,-3.8707,-3.8707,-3.8658,-3.8578,-3.8578,-3.8578,-3.8546,-3.7614,-3.7209,-3.7209,0.0,0.0,0.0,0.0,0.0,0.0,0.0,0.0,0.0,0.0,0.0,0.0,0.0,0.0,0.0,0.0,0.0,0.0,0.0,0.0,0.0,0.0,0.0,0.0,0.0,0.0,0.0,0.0,0.0,0.0,0.0,0.0,0.0,0.0,0.0,0.0,0.0,0.0,0.0,0.0,0.0,-3.634,-3.6378,0.0,0.0,0.0,0.0,0.0,0.0,0.0,0.0,0.0,0.0,0.0,0.0,0.0,0.0,-3.7834,-3.795,-3.8007,-3.8007,-3.8007,-3.8007,-3.8007,-3.8007,-3.8007,-3.7988,-3.7788,0.0,-3.7768,-3.779,0.0,0.0,0.0,0.0,0.0,0.0,0.0,0.0,0.0,0.0,0.0,0.0,0.0,0.0,0.0,0.0,0.0,0.0,0.0,0.0,0.0,-3.8707,-3.8707,-3.8707,-3.8707,-3.8707,-3.8707,-3.8707,-3.8707,-3.8707,-3.9129,-3.9368,-3.9368,-3.9368,-3.9368,-3.9368,-3.9368,-3.9606,-4.0049,-4.0049,-4.0049,-4.0015,-3.9597,-3.89,-3.8016,-3.772,0.0,0.0,0.0,0.0,0.0,0.0,0.0,0.0,0.0,0.0,0.0,0.0,0.0,0.0,0.0,0.0,0.0,0.0,0.0,0.0,0.0,0.0,0.0,0.0,0.0,0.0,0.0,0.0,0.0,0.0,0.0,0.0,0.0,0.0,0.0,0.0,0.0,0.0,0.0,-3.6155,-3.6473,-3.6473,-3.6676,-3.6885,0.0,0.0,0.0,0.0,0.0,0.0,0.0,0.0,0.0,-3.8007,-3.8469,-3.8719,-3.8719,-3.9181,-3.9419,-3.9419,-3.9419,-3.9662,-4.0123,-3.9623,-3.9662,-4.0104,-3.9623,-3.9425,-3.9379,-3.8434,-3.8096,-3.82,0.0,0.0,0.0,0.0,0.0,0.0,0.0,0.0,0.0,0.0,0.0,0.0,0.0,0.0,0.0,0.0,0.0,0.0,-3.8707,-3.8707,-3.8707,-3.8707,-3.8707,-3.8799,-3.9001,-3.9019,-3.9111,-3.9313,-3.9882,-4.0212,-4.0212,-4.0212,-4.0212,-4.0212,-4.0414,-4.0818,-4.1407,-4.1625,-4.1717,-4.1717,-4.1515,-4.0508,-3.8985,-3.8574,-3.8005,-3.7323,0.0,0.0,0.0,0.0,0.0,0.0,0.0,0.0,0.0,0.0,0.0,0.0,0.0,0.0,0.0,0.0,0.0,0.0,0.0,0.0,0.0,0.0,0.0,0.0,0.0,0.0,0.0,0.0,0.0,0.0,0.0,0.0,0.0,0.0,0.0,0.0,0.0,-3.678,-3.6909,-3.6909,-3.6959,-3.7091,0.0,0.0,0.0,0.0,0.0,0.0,-3.841,-3.8687,-3.8845,-3.8845,-3.9773,-4.0258,-4.0258,-4.0881,-4.117,-4.117,-4.117,-4.1489,-4.2104,-4.145,-4.1527,-4.2104,-4.145,-4.117,-4.1035,-3.9335,-3.8663,-3.8716,-3.8716,-3.8645,0.0,-3.8554,-3.8418,-3.8215,0.0,0.0,0.0,0.0,0.0,0.0,0.0,0.0,0.0,0.0,0.0,-3.8707,-3.8707,-3.8707,-3.8707,-3.8707,-3.8707,-3.9019,-3.979,-3.9827,-4.0175,-4.0948,-4.1022,-4.104,-4.104,-4.104,-4.104,-4.104,-4.1809,-4.2194,-4.2268,-4.302,-4.3386,-4.3349,-4.258,-4.135,-3.9827,-3.9811,-3.9041,-3.7825,-3.7341,0.0,0.0,0.0,0.0,0.0,0.0,0.0,0.0,0.0,0.0,0.0,0.0,0.0,0.0,0.0,0.0,0.0,0.0,0.0,0.0,0.0,0.0,0.0,0.0,0.0,0.0,0.0,0.0,0.0,0.0,0.0,0.0,0.0,0.0,0.0,0.0,0.0,0.0,-3.8579,-3.8808,0.0,0.0,0.0,0.0,-3.949,-3.949,-3.9501,-3.9513,-4.0542,-4.1122,-4.1122,-4.2283,-4.2912,-4.2912,-4.2951,-4.297,-4.297,-4.297,-4.2989,-4.3028,-4.2989,-4.2989,-4.3028,-4.2989,-4.297,-4.2835,-4.1093,-4.0389,-4.0377,-4.0377,-3.9915,-3.9249,-3.9249,-3.8729,-3.8017,0.0,0.0,0.0,0.0,0.0,-3.8707,-3.8707,-3.8707,-3.8707,-3.8707,-3.8707,-3.8707,-3.8707,-3.8707,-3.8707,-3.8707,-3.8707,-3.8817,-3.9111,-3.9606,-4.0029,-4.0322,-4.1332,-4.1882,-4.1882,-4.2378,-4.2635,-4.2635,-4.3461,-4.4121,-4.4617,-4.4911,-4.5039,-4.5021,-4.4745,-4.4011,-4.2892,-4.1332,-3.9894,-3.8651,-3.8492,-3.7598,0.0,0.0,0.0,0.0,0.0,0.0,0.0,0.0,0.0,0.0,0.0,0.0,0.0,0.0,0.0,0.0,0.0,0.0,0.0,0.0,0.0,0.0,0.0,0.0,0.0,0.0,0.0,0.0,0.0,0.0,0.0,0.0,0.0,0.0,0.0,0.0,0.0,-3.8707,-3.8773,0.0,-3.8844,-3.8956,-3.931,-4.0005,-4.0055,-4.0371,-4.1116,-4.1539,-4.1851,-4.2073,-4.2488,-4.2832,-4.3104,-4.3104,-4.3104,-4.3104,-4.3104,-4.3374,-4.3855,-4.3335,-4.3374,-4.3835,-4.3316,-4.3104,-4.3047,-4.2431,-4.2162,-4.2124,-4.1566,-4.1162,-4.0835,-4.0285,-3.9881,-3.9611,0.0,0.0,0.0,0.0,0.0,-3.8707,-3.8707,-3.8707,-3.8707,-3.8707,-3.8707,-3.8707,-3.8707,-3.8707,-3.8707,-3.8707,-3.8707,-3.8927,-3.9478,-4.001,-4.0543,-4.1091,-4.2139,-4.2837,-4.3112,-4.3626,-4.4176,-4.4709,-4.5535,-4.6342,-4.715,-4.7425,-4.7553,-4.7535,-4.6966,-4.6416,-4.5755,-4.3414,-4.1539,-4.0108,-3.9389,-3.829,-3.703,0.0,0.0,0.0,0.0,0.0,0.0,0.0,0.0,0.0,0.0,0.0,0.0,0.0,0.0,0.0,0.0,0.0,0.0,0.0,0.0,0.0,0.0,0.0,0.0,0.0,0.0,0.0,0.0,0.0,0.0,0.0,0.0,0.0,0.0,0.0,-3.8707,-3.8707,-3.8946,-3.9093,-3.9093,-3.935,-3.9807,-4.0511,-4.0578,-4.1014,-4.2044,-4.2481,-4.2963,-4.3586,-4.4002,-4.4372,-4.4778,-4.4797,-4.4797,-4.4797,-4.4797,-4.5066,-4.5566,-4.5028,-4.5086,-4.5547,-4.5028,-4.4797,-4.4797,-4.4797,-4.4624,-4.4239,-4.2797,-4.2239,-4.2181,-4.1585,-4.1381,-4.1381,0.0,0.0,0.0,0.0,0.0,-3.8707,-3.8707,-3.8707,-3.8707,-3.8707,-3.8707,-3.8707,-3.8707,-3.8707,-3.8707,-3.8707,-3.8726,-3.9405,-4.0948,-4.1113,-4.1864,-4.3478,-4.3551,-4.3901,-4.4709,-4.4783,-4.5572,-4.7131,-4.7957,-4.8802,-4.9647,-5.0435,-5.0802,-5.0729,-4.9114,-4.8361,-4.8194,-4.6023,-4.4066,-4.2219,-4.0073,-3.8904,-3.8286,0.0,0.0,0.0,0.0,0.0,0.0,0.0,0.0,0.0,0.0,0.0,0.0,0.0,0.0,0.0,0.0,0.0,0.0,0.0,0.0,0.0,0.0,0.0,0.0,0.0,0.0,0.0,0.0,0.0,0.0,0.0,0.0,0.0,-3.8707,-3.8726,-3.8744,-3.8744,-3.9441,-3.9937,-3.9937,-4.0671,-4.115,-4.1168,-4.1187,-4.1554,-4.2378,-4.3452,-4.4591,-4.5774,-4.6897,-4.7687,-4.8087,-4.8096,-4.8105,-4.8105,-4.8105,-4.8105,-4.8105,-4.8105,-4.8105,-4.8105,-4.8105,-4.8105,-4.8105,-4.8105,-4.7644,-4.6692,-4.4162,-4.3162,-4.3124,-4.3104,-4.3104,-4.3104,0.0,0.0,0.0,-3.8707,-3.8707,-3.8707,-3.8707,-3.8707,-3.8707,-3.8707,-3.8707,-3.8707,-3.8707,-3.8707,-3.8707,-3.8707,-3.9239,-3.9753,-4.0194,-4.1332,-4.269,-4.4305,-4.4378,-4.4745,-4.5553,-4.6709,-4.7535,-4.7957,-4.9407,-5.0233,-5.0472,-5.071,-5.0802,-5.0784,-5.0325,-4.9793,-4.915,-4.7913,-4.653,-4.493,-4.2586,-4.0657,-3.9102,0.0,0.0,0.0,0.0,0.0,0.0,0.0,0.0,0.0,0.0,0.0,0.0,0.0,0.0,0.0,0.0,0.0,0.0,0.0,0.0,0.0,0.0,0.0,0.0,0.0,0.0,0.0,0.0,0.0,0.0,0.0,0.0,-3.9368,-3.8781,-3.9203,-3.957,-3.957,-4.0286,-4.0781,-4.0781,-4.1497,-4.2213,-4.28,-4.3387,-4.4066,-4.4874,-4.5218,-4.5642,-4.6209,-4.6826,-4.7315,-4.7646,-4.7943,-4.8105,-4.8105,-4.8105,-4.8105,-4.8105,-4.8105,-4.8105,-4.8105,-4.8105,-4.8105,-4.8105,-4.8105,-4.7971,-4.7586,-4.5663,-4.4528,-4.3893,-4.3316,-4.3104,-4.3104,0.0,0.0,0.0,-3.8707,-3.8707,-3.8707,-3.8707,-3.8707,-3.8707,-3.8707,-3.8707,-3.8707,-3.8707,-3.8707,-3.8707,-3.8707,-3.9441,-4.0029,-4.0377,-4.2231,-4.3718,-4.4672,-4.5351,-4.6085,-4.6893,-4.8177,-4.9169,-4.9848,-5.0839,-5.1481,-5.1811,-5.1811,-5.1811,-5.1793,-5.1444,-5.1041,-5.0527,-4.9405,-4.7916,-4.6189,-4.4786,-4.2685,-4.0321,-3.9001,-3.8304,-3.793,-3.6926,-3.6693,-3.6823,-3.6498,0.0,0.0,0.0,0.0,0.0,0.0,0.0,0.0,0.0,0.0,0.0,0.0,0.0,0.0,0.0,0.0,0.0,0.0,0.0,0.0,0.0,0.0,0.0,0.0,-3.9588,-3.9845,-3.9735,-4.012,-4.0396,-4.0396,-4.1405,-4.2121,-4.2121,-4.313,-4.3993,-4.447,-4.4947,-4.5553,-4.6361,-4.6416,-4.6725,-4.7429,-4.7666,-4.7961,-4.832,-4.8747,-4.8937,-4.8937,-4.9115,-4.9183,-4.9183,-4.9183,-4.9183,0.0,-4.9183,-4.9183,-4.9183,-4.9183,-4.8971,0.0,0.0,0.0,0.0,0.0,-4.4701,-4.4643,0.0,0.0,0.0,-3.8707,-3.8707,-3.8707,-3.8707,-3.8707,-3.8707,-3.8707,-3.8707,-3.8707,-3.8707,-3.8707,-3.8707,-3.8707,-3.9515,-4.0414,-4.1297,-4.3462,-4.4745,-4.4837,-4.6379,-4.7608,-4.8434,-4.939,-5.0583,-5.1995,-5.2087,-5.2509,-5.3185,-5.3185,-5.3185,-5.3167,-5.2454,-5.2068,-5.1919,-5.0591,-4.8731,-4.6625,-4.6466,-4.4579,-4.1625,-3.9696,-3.8551,-3.7853,-3.7204,-3.6818,-3.6599,-3.6451,0.0,0.0,0.0,0.0,0.0,0.0,0.0,0.0,0.0,0.0,0.0,0.0,0.0,0.0,0.0,0.0,0.0,0.0,0.0,0.0,0.0,0.0,0.0,0.0,-4.0047,-4.0414,-4.1132,-4.1389,-4.1462,-4.137,-4.2708,-4.3663,-4.3772,-4.5131,-4.6049,-4.6049,-4.6122,-4.6489,-4.7204,0.0,0.0,0.0,0.0,-4.9059,-4.9431,-4.9827,-5.0031,-5.0043,-5.0432,-5.0624,-5.0624,-5.0673,-5.0712,-5.0712,-5.0712,-5.0712,-5.0712,-5.0712,-5.025,-4.9452,-4.849,-4.8105,-4.8009,-4.7298,-4.7038,0.0,0.0,0.0,0.0,-3.8707,-3.8707,-3.8707,-3.8707,-3.8707,-3.8707,-3.8707,-3.8707,-3.8707,-3.8707,-3.8707,-3.8707,-3.8707,-4.0029,-4.1479,-4.2928,-4.4085,-4.5002,-4.5645,-4.7223,-4.8471,-4.9335,-5.0804,-5.1703,-5.1995,-5.2656,-5.3059,-5.3185,-5.3185,-5.3185,-5.3185,-5.3041,-5.2619,-5.1977,-5.169,-4.9995,-4.7399,-4.6743,-4.4706,-4.1975,-4.1398,-4.0704,-3.9852,-3.8541,-3.8016,-3.7785,-3.6748,-3.6395,-3.6312,-3.5898,-3.5672,0.0,0.0,0.0,0.0,0.0,0.0,0.0,0.0,0.0,0.0,0.0,0.0,0.0,0.0,0.0,0.0,0.0,0.0,0.0,-3.9863,-4.0983,-4.1882,-4.2047,-4.3204,-4.3773,-4.3112,-4.3883,-4.4727,-4.5369,-4.6305,-4.6856,-4.6856,-4.748,-4.7902,-4.8067,-4.8086,0.0,-4.8402,-4.8727,-4.8947,-4.9029,-4.9416,-4.9622,-4.9617,0.0,0.0,-5.0237,-5.0554,-5.0712,-5.0712,-5.0712,-5.0712,-5.0712,-5.0712,-5.0596,-5.0289,-4.8702,-4.8105,-4.8086,-4.7932,-4.7875,-4.7836,0.0,0.0,0.0,-3.8707,-3.8707,-3.8707,-3.8707,-3.8707,-3.8707,-3.8707,-3.8707,-3.8707,-3.8707,-3.8707,-3.8707,-3.8707,-4.0159,-4.1625,-4.2818,-4.4415,-4.548,-4.5883,-4.8251,-4.9756,-5.0178,-5.1775,-5.2601,-5.2601,-5.3004,-5.3185,-5.3185,-5.3185,-5.3185,-5.3185,-5.2813,-5.2444,-5.2039,-5.1692,-5.0079,-4.7715,-4.7329,-4.5379,-4.2655,-4.1833,-4.1186,-4.0552,-3.9172,-3.8542,-3.815,-3.7276,-3.6876,-3.6704,-3.6182,-3.5827,-3.56,0.0,0.0,0.0,0.0,0.0,0.0,0.0,0.0,0.0,0.0,0.0,0.0,0.0,0.0,-3.9294,-3.9294,0.0,-4.0634,-4.1038,-4.1772,-4.258,-4.3387,-4.4195,-4.4562,-4.4158,-4.5168,-4.6049,-4.6452,-4.7223,-4.77,-4.77,-4.8086,-4.8489,-4.893,-4.8948,-4.9132,-4.9554,-4.9749,-4.9862,-4.9862,-5.0211,-5.0389,-5.0424,-5.0803,-5.1006,-5.102,-5.1443,-5.1652,-5.1652,-5.1853,-5.1952,-5.1914,-5.1471,-5.1298,-5.1164,-4.9894,-4.9394,-4.9356,-4.8913,-4.8759,-4.8682,0.0,0.0,0.0,-3.8707,-3.8707,-3.8707,-3.8707,-3.8707,-3.8707,-3.8707,-3.8707,-3.8707,-3.8707,-3.8707,-3.8762,-3.8927,-4.012,-4.1277,-4.2249,-4.4415,-4.5736,-4.5883,-4.9058,-5.0802,-5.0802,-5.238,-5.3185,-5.3185,-5.3185,-5.3185,-5.3185,-5.3185,-5.3185,-5.3185,-5.2576,-5.2294,-5.2271,-5.1433,-4.9888,-4.7988,-4.7698,-4.589,-4.324,-4.1931,-4.123,-4.0806,-3.9583,-3.8739,-3.8131,-3.7551,-3.7148,-3.6805,-3.6374,-3.5963,-3.56,-3.56,-3.56,0.0,0.0,0.0,0.0,0.0,0.0,0.0,0.0,0.0,-3.7774,-3.8732,-3.9441,-3.9937,-4.0102,-4.0799,-4.159,-4.2396,-4.2653,-4.3277,-4.4727,-4.5076,-4.5168,-4.5168,-4.6305,-4.7168,-4.7314,-4.7921,-4.8306,-4.8306,-4.8471,-4.8857,-4.9555,-4.9757,-5.0123,-5.0784,-5.0802,-5.0802,-5.0802,-5.1064,-5.1194,-5.1212,-5.1609,-5.1785,-5.1801,-5.2262,-5.246,-5.2492,-5.2897,-5.308,-5.3042,-5.2403,-5.2154,-5.2077,-5.1433,-5.1068,-5.0818,-4.9971,-4.9644,-4.9548,0.0,0.0,0.0,0.0,0.0,-3.8707,-3.8707,-3.8707,-3.8707,-3.8707,-3.8707,-3.8707,-3.8707,-3.8707,-3.9001,-3.9698,-3.9918,-4.0671,-4.2194,-4.3901,-4.5149,-4.5865,-4.9058,-5.0802,-5.0802,-5.238,-5.3185,-5.3185,-5.3185,-5.3185,-5.3185,-5.3185,-5.3185,-5.3185,-5.3103,-5.3082,-5.2984,-5.1597,-5.0152,-4.8664,-4.7343,-4.5453,-4.3291,-4.2489,-4.1764,-4.1044,-4.007,-3.8946,-3.784,-3.7131,-3.6384,-3.5783,-3.5717,-3.5667,-3.56,-3.56,-3.56,-3.56,-3.56,-3.5963,-3.6416,-3.6904,-3.7323,-3.779,0.0,0.0,-3.8781,-3.9591,-3.9827,-4.012,-4.082,-4.1625,-4.2433,-4.3222,-4.3975,-4.4745,-4.5645,-4.6379,-4.6837,-4.6837,-4.6984,-4.7369,-4.8104,-4.8251,-4.8306,-4.8306,-4.9022,-4.95,-4.9592,-5.027,-5.071,-5.0802,-5.0802,-5.0802,-5.0802,-5.0844,-5.0864,-5.0845,-5.1194,-5.1372,-5.1371,-5.1785,-5.1971,-5.2001,-5.2473,-5.2673,-5.2679,-5.2952,-5.3049,-5.3049,-5.2972,-5.2452,-5.1673,-5.0856,-5.0558,-5.0539,0.0,0.0,0.0,0.0,0.0,-3.8707,-3.8707,-3.8707,-3.8707,-3.8707,-3.8707,-3.8707,-3.8707,-3.8707,-3.8836,-3.9166,-3.9625,-4.0175,-4.0855,-4.2855,-4.436,-4.5168,-4.7865,-4.9572,-5.0086,-5.1224,-5.2032,-5.2509,-5.2509,-5.2747,-5.3185,-5.3185,-5.3185,-5.3146,-5.1882,-5.1346,-5.1221,-4.9344,-4.796,-4.6953,-4.5887,-4.4637,-4.3257,-4.21,-4.1204,-4.0502,-4.0122,-3.9532,0.0,0.0,-3.7121,-3.6593,-3.583,-3.56,-3.56,-3.56,-3.56,0.0,-3.56,-3.5761,-3.6006,-3.6207,-3.6646,-3.7279,-3.8295,-3.8737,-3.9243,-4.0384,-4.0965,-4.1405,-4.1754,-4.2451,-4.3259,0.0,-4.4488,-4.5131,-4.6415,-4.6892,-4.7278,-4.7736,-4.7791,-4.792,-4.8269,-4.8306,-4.8508,-4.9022,-4.939,-5.0014,-5.0951,-5.1316,-5.1701,-5.2197,-5.2215,-5.2215,-5.2215,-5.2215,-5.2215,-5.2215,-5.2346,-5.2408,-5.2428,-5.2807,-5.3153,-5.3412,-5.3633,-5.3712,-5.3703,-5.3576,-5.3551,-5.3525,-5.3283,-5.2991,-5.2538,-5.1722,-5.1106,-5.0712,0.0,0.0,0.0,0.0,0.0,-3.8707,-3.8707,-3.8707,-3.8707,-3.8707,-3.8707,-3.8707,-3.8707,-3.8707,-3.8707,-3.8707,-3.9239,-3.9662,-3.9882,-4.1735,-4.3296,-4.4323,-4.6471,-4.8141,-4.9225,-5.005,-5.0857,-5.1665,-5.1665,-5.1977,-5.2546,-5.2546,-5.2546,-5.2467,-5.0723,-4.9958,-4.9788,-4.7454,-4.6164,-4.5574,-4.4444,-4.3369,-4.2361,-4.1305,-4.0443,-3.9809,-4.0045,-3.9698,0.0,0.0,-3.7933,-3.7453,-3.6531,-3.6225,-3.6225,-3.6225,-3.6225,-3.6174,-3.5994,-3.6309,-3.662,-3.6414,-3.6908,-3.7754,-3.888,-3.9265,-3.9786,-4.1141,-4.1901,-4.2378,-4.2598,-4.3277,-4.4085,-4.4911,-4.5205,-4.5847,-4.7241,-4.7424,-4.7645,-4.8233,-4.8306,-4.8306,-4.8306,-4.8306,-4.8655,-4.9537,-4.9812,-5.0547,-5.1922,-5.2197,-5.2601,-5.3167,-5.3185,-5.3185,-5.3185,-5.3185,-5.3185,-5.3185,-5.3185,-5.3185,-5.3206,-5.3505,-5.3814,-5.4156,-5.4274,-5.4305,-5.4301,-5.4082,-5.3992,-5.3963,-5.3658,-5.3487,-5.3286,-5.2653,-5.1823,-5.0991,0.0,0.0,0.0,0.0,0.0,-3.8707,-3.8707,-3.8707,-3.8707,-3.8707,-3.8707,-3.8707,-3.8707,-3.8707,-3.8707,-3.8707,-3.8726,-3.9074,-3.9845,-4.0708,-4.1882,-4.3478,-4.5094,-4.6728,-4.8306,-4.9187,-5.0013,-5.0839,-5.0839,-5.0857,-5.0875,-5.0875,-5.0875,-5.0855,-5.0123,-4.9807,-4.9631,-4.6808,-4.5615,-4.5407,-4.3233,-4.1508,-4.0197,-4.0147,-3.9681,-3.9123,-3.9842,0.0,-3.8065,-3.8734,-3.8505,-3.7879,-3.7838,-3.7838,0.0,-3.7838,-3.7838,-3.7669,-3.6965,-3.804,-3.9204,-3.8481,-3.922,-4.0239,-4.0889,-4.0578,-4.0583,-4.1965,-4.2286,-4.2543,-4.3331,-4.4121,-4.4929,-4.5736,-4.6526,-4.7314,-4.8159,-4.8269,-4.8269,-4.8306,-4.8306,-4.8306,0.0,-4.8306,-4.8655,-4.9537,-5.0306,-5.1132,-5.1958,-5.2747,-5.3167,-5.3185,-5.3185,-5.3185,-5.3185,-5.3185,-5.3185,-5.3185,-5.3185,-5.3185,-5.3185,-5.3206,-5.3227,-5.3251,-5.3644,-5.3833,-5.3869,-5.4303,-5.4481,-5.4481,-5.4459,-5.4191,-5.3772,-5.3753,-5.2939,-5.175,0.0,0.0,0.0,0.0,0.0,0.0,-3.8707,-3.8707,-3.8707,-3.8707,-3.8707,0.0,0.0,0.0,0.0,0.0,-3.8707,-3.8817,-3.9093,-3.9863,-4.0781,-4.1864,-4.3442,-4.48,-4.5902,-4.6709,-4.7535,-4.8342,-4.8342,-4.8617,-4.915,-4.915,-4.915,-4.9074,-4.7493,-4.6801,-4.6662,-4.4377,-4.3124,-4.2552,-4.1341,-4.0257,-3.9326,-3.8836,-3.8176,-3.7642,0.0,0.0,-3.9309,-3.9073,-3.8836,-3.8531,-3.8058,-3.7905,-3.7905,-3.7905,-3.7905,-3.7916,-3.8014,-3.8504,-3.901,-3.9153,-3.9725,-4.0456,-4.1197,-4.1485,-4.1879,-4.2893,-4.3094,-4.3167,-4.346,-4.3718,-4.4342,-4.5681,-4.6122,-4.6783,-4.8122,-4.8306,-4.8306,-4.8306,-4.8306,0.0,0.0,0.0,0.0,-5.0325,-5.1132,-5.194,-5.2747,-5.3059,-5.3185,-5.3185,-5.3185,-5.3185,-5.3185,-5.3185,-5.3185,-5.3185,-5.3185,-5.3185,-5.3185,-5.3185,-5.3185,-5.3206,-5.3339,-5.3402,-5.3424,-5.387,-5.4031,-5.4066,-5.439,-5.4393,-5.4193,-5.3629,-5.3289,-5.3004,0.0,0.0,0.0,0.0,0.0,0.0,0.0,0.0,0.0,0.0,0.0,0.0,0.0,0.0,0.0,0.0,0.0,-3.8707,-3.8707,-3.9184,-3.9827,-4.0653,-4.1662,-4.264,-4.3524,-4.4252,-4.4912,-4.5532,-4.5718,-4.6085,-4.6581,-4.6581,-4.6488,-4.6243,-4.4714,-4.3938,-4.3634,-4.1867,-4.0849,-4.0358,-3.9606,-3.887,-3.8142,-3.7686,-3.7195,0.0,0.0,0.0,-3.9276,-3.9056,-3.9174,-3.9292,-3.8836,-3.8684,-3.8715,-3.8921,-3.8843,-3.8744,-3.9019,-3.9302,-3.9578,-3.9908,-4.0431,-4.1081,-4.1996,-4.2322,-4.2629,-4.3334,-4.3515,-4.3515,-4.3515,-4.3718,-4.436,-4.5681,-4.614,-4.6801,-4.8122,-4.8306,-4.8306,-4.8306,-4.8563,-4.8967,0.0,0.0,0.0,-5.1187,-5.1701,-5.2344,-5.317,-5.3185,-5.3185,-5.3185,-5.3185,-5.3185,-5.3185,-5.3185,-5.3185,-5.3185,-5.3185,-5.3185,-5.3185,-5.3185,-5.3185,-5.3185,-5.3185,-5.3185,-5.3227,-5.3484,-5.3585,-5.3624,-5.3906,-5.4119,-5.4182,-5.362,-5.35,-5.346,0.0,0.0,0.0,0.0,0.0,0.0,0.0,0.0,0.0,0.0,0.0,0.0,0.0,0.0,0.0,0.0,0.0,0.0,-3.8707,-3.8658,-3.9022,-3.979,-3.9848,-4.0347,-4.136,-4.1918,-4.232,-4.2532,-4.305,-4.3299,-4.3299,-4.3299,-4.3032,-4.2495,-4.1917,-4.1345,-4.0793,-3.9491,-3.892,-3.8819,-3.8125,-3.7398,-3.6745,-3.6745,0.0,0.0,0.0,-3.7212,-3.7973,-3.8734,-3.9469,-4.0045,-4.0011,-4.0011,-4.0153,-4.0634,-4.0463,-4.0076,-3.9894,-4.0366,-4.089,-4.0789,-4.1324,-4.2124,-4.3214,-4.3105,-4.2883,-4.3392,-4.3515,-4.3515,0.0,0.0,-4.4929,-4.5755,-4.6526,-4.7333,-4.8196,-4.8306,-4.8324,0.0,0.0,0.0,0.0,0.0,0.0,-5.205,0.0,-5.238,-5.317,-5.3185,-5.3185,-5.3185,-5.3185,-5.3185,-5.3185,-5.3185,-5.3185,-5.3185,-5.3185,-5.3185,-5.3185,-5.3185,-5.3185,-5.3185,-5.3185,-5.3185,-5.3185,-5.3185,-5.3185,-5.3185,-5.3185,-5.3424,-5.3758,-5.3758,-5.3525,-5.3186,0.0,0.0,0.0,0.0,0.0,0.0,0.0,0.0,0.0,0.0,0.0,0.0,0.0,0.0,0.0,0.0,0.0,0.0,-3.8707,-3.8334,-3.8374,-3.8985,-3.9207,-3.9441,-3.9715,-4.0419,-4.0672,-4.0376,-4.053,-4.0588,-4.0588,-4.0588,-4.053,-4.0356,-3.9747,-3.9404,-3.9227,-3.8495,-3.7855,-3.7354,0.0,-3.6603,-3.591,0.0,0.0,0.0,0.0,-3.6417,-3.7286,-3.8565,-3.9106,-3.9174,-3.8633,-3.8836,-3.9308,-3.9445,-3.978,-4.0195,-4.0532,-4.0764,-4.0989,-4.1417,-4.1999,-4.2539,-4.2845,-4.3124,-4.3321,-4.3462,-4.3515,-4.3515,0.0,0.0,0.0,-4.5663,-4.6067,0.0,-4.8104,-4.8306,0.0,-4.9206,0.0,-5.0069,-5.1261,-5.1756,0.0,0.0,-5.2894,-5.2986,-5.3185,-5.3185,-5.3185,-5.3185,-5.3185,-5.3185,-5.3185,-5.3185,-5.3185,-5.3185,-5.3185,-5.3185,-5.3185,-5.3185,-5.3185,-5.3185,-5.3185,-5.3185,-5.3185,-5.3185,-5.3185,-5.3185,-5.3185,-5.3272,-5.3359,-5.3359,-5.3475,-5.3622,0.0,0.0,0.0,0.0,0.0,0.0,0.0,0.0,0.0,0.0,0.0,0.0,0.0,0.0,0.0,0.0,0.0,0.0,0.0,-3.82,-3.803,-3.835,-3.8499,-3.8367,-3.7926,-3.878,-3.8903,-3.8204,-3.8424,-3.8541,-3.8541,-3.8541,-3.8424,-3.8184,-3.7833,-3.7556,-3.731,-3.7012,0.0,0.0,0.0,0.0,0.0,0.0,0.0,0.0,0.0,0.0,0.0,0.0,0.0,-3.8447,-3.8041,-3.8413,-3.9061,-3.9276,-3.9725,-4.0229,-4.0756,-4.0726,-4.0679,-4.1268,-4.1664,-4.1979,-4.2244,-4.2733,-4.3069,-4.281,-4.2977,-4.3069,-4.2791,-4.2977,0.0,0.0,0.0,0.0,-4.8086,-4.8306,-4.8618,0.0,-4.9884,0.0,-5.1867,-5.2307,-5.2711,0.0,-5.3185,-5.3185,-5.3185,-5.3185,-5.3185,-5.3185,-5.3185,-5.3185,-5.3185,-5.3185,-5.3185,-5.3185,-5.3185,-5.3185,-5.3185,-5.3185,-5.3185,-5.3185,0.0,-5.3185,-5.3185,-5.3185,-5.3185,-5.3185,-5.3185,-5.3185,-5.3185,-5.3185,-5.3339,-5.3545,0.0,0.0,0.0,0.0,0.0,0.0,0.0,0.0,0.0,0.0,-3.7097,-3.7154,0.0,0.0,0.0,0.0,0.0,0.0,0.0,0.0,0.0,-3.7807,-3.7737,-3.7286,-3.6416,-3.7249,-3.723,-3.6291,0.0,-3.6981,-3.6981,0.0,0.0,0.0,0.0,0.0,0.0,0.0,0.0,0.0,0.0,0.0,0.0,0.0,0.0,0.0,0.0,0.0,0.0,0.0,-3.6546,-3.7736,-3.7635,-3.8176,-3.8957,-3.9399,-3.9823,-4.0204,-4.0679,-4.0449,-4.0204,-4.0679,-4.085,-4.1041,-4.1556,-4.2142,-4.244,-4.1916,-4.2221,-4.242,-4.1895,-4.2223,-4.3084,-4.4682,0.0,-4.6341,-4.792,-4.8233,-4.8636,-4.9554,-5.0343,-5.1151,-5.2068,-5.2803,-5.3185,-5.3185,-5.3185,-5.3185,-5.3185,-5.3185,-5.3185,-5.3185,-5.3185,-5.3185,-5.3185,-5.3185,-5.3185,-5.3185,-5.3185,-5.3185,-5.3185,-5.3185,-5.3185,-5.3185,0.0,0.0,-5.3185,-5.3185,-5.3185,-5.3185,-5.3185,-5.3185,-5.3185,-5.3185,-5.3185,-5.3185,0.0,0.0,0.0,0.0,0.0,0.0,0.0,0.0,0.0,0.0,-3.6664,-3.7038,0.0,0.0,0.0,0.0,0.0,0.0,0.0,0.0,0.0,0.0,-3.6902,-3.6583,-3.6395,0.0,0.0,0.0,0.0,0.0,-3.5876,0.0,0.0,0.0,0.0,0.0,0.0,0.0,0.0,0.0,0.0,0.0,0.0,0.0,0.0,0.0,0.0,0.0,0.0,0.0,-3.6231,-3.688,-3.6214,-3.6952,-3.8115,-3.8218,-3.912,-4.0121,-4.0204,-4.0154,-4.0121,-4.0229,-4.0577,-4.0926,-4.1041,-4.1534,0.0,0.0,-4.1895,-4.1916,-4.1832,-4.1895,-4.2427,-4.3862,-4.4744,-4.5723,-4.7111,-4.7865,-4.8875,0.0,-5.071,-5.1389,-5.2858,0.0,0.0,0.0,0.0,0.0,-5.3185,-5.3185,-5.3185,-5.3185,-5.3185,-5.3185,-5.3185,-5.3185,-5.3185,-5.3185,-5.3185,-5.3185,-5.3185,-5.3185,-5.3185,-5.3185,0.0,0.0,-5.3185,-5.3185,-5.3185,-5.3185,-5.3185,-5.3185,-5.3185,-5.3185,-5.3185,-5.3185,0.0,0.0,0.0,0.0,0.0,0.0,0.0,-3.5761,-3.56,-3.56,-3.6054,-3.627,-3.6011,-3.6207,-3.6481,0.0,0.0,0.0,0.0,0.0,0.0,0.0,0.0,0.0,0.0,0.0,0.0,0.0,0.0,0.0,0.0,0.0,0.0,0.0,0.0,0.0,0.0,0.0,0.0,0.0,0.0,0.0,0.0,0.0,0.0,0.0,0.0,0.0,0.0,0.0,-3.5853,-3.6113,-3.5718,-3.6648,-3.7905,-3.7905,-3.8937,-4.0096,-4.0096,-4.0096,-4.0096,-4.0096,-4.0286,-4.0473,-4.0473,0.0,0.0,-4.0984,-4.115,-4.1246,-4.0961,-4.115,0.0,-4.32,-4.4376,-4.557,-4.6909,-4.7791,-4.8776,-5.0077,-5.0216,-5.0725,0.0,0.0,0.0,0.0,0.0,0.0,-5.3185,-5.3185,-5.3185,-5.3185,-5.3185,-5.3185,-5.3185,-5.3185,-5.3185,-5.3185,-5.3185,-5.3185,-5.3185,-5.3185,-5.3185,-5.3185,0.0,0.0,-5.3185,-5.3185,-5.3185,-5.3185,-5.3185,-5.3185,-5.3185,-5.3185,-5.3185,-5.3185,0.0,0.0,0.0,0.0,0.0,0.0,-3.56,-3.56,-3.56,-3.56,-3.56,-3.56,-3.56,-3.56,-3.5783,0.0,0.0,0.0,0.0,0.0,0.0,0.0,0.0,0.0,0.0,0.0,0.0,0.0,0.0,0.0,0.0,0.0,0.0,0.0,0.0,0.0,0.0,0.0,0.0,0.0,0.0,0.0,0.0,0.0,0.0,0.0,0.0,0.0,0.0,0.0,-3.56,-3.56,-3.56,-3.6546,-3.7702,-3.7855,-3.8819,-3.991,-4.0062,-4.0096,-4.0096,-4.0096,-4.0096,-4.0096,-4.0096,-4.0476,0.0,-4.0196,-4.0441,-4.0601,-4.0196,-4.0424,-4.1134,0.0,-4.3772,-4.5176,-4.6482,-4.7375,-4.8338,0.0,-4.9595,0.0,0.0,0.0,0.0,0.0,0.0,0.0,0.0,-5.3185,-5.3185,-5.3185,-5.3185,-5.3185,-5.3185,-5.3185,-5.3185,-5.3185,-5.3185,-5.3185,-5.3185,-5.3185,-5.3185,-5.3185,0.0,0.0,0.0,-5.3185,-5.3185,-5.3185,-5.3185,-5.3185,-5.3185,-5.3185,-5.3185,-5.3185,0.0,0.0,0.0,0.0,0.0,0.0,-3.56,-3.56,-3.56,-3.56,-3.56,-3.56,-3.56,-3.56,-3.5622,0.0,0.0,0.0,0.0,0.0,0.0,0.0,0.0,0.0,0.0,0.0,0.0,0.0,0.0,0.0,0.0,0.0,0.0,0.0,0.0,0.0,0.0,0.0,0.0,0.0,0.0,0.0,0.0,0.0,0.0,0.0,0.0,0.0,0.0,0.0,0.0,-3.56,-3.56,-3.6197,-3.7032,-3.7702,0.0,0.0,-3.9926,-4.0096,-4.0096,-4.0096,-4.0096,-4.0096,-4.0096,0.0,-4.0171,-4.0096,-4.0146,-4.0171,-4.0096,-4.0146,-4.0377,-4.1007,-4.2421,-4.3891,-4.5109,-4.6028,-4.7367,-4.946,0.0,0.0,0.0,0.0,0.0,0.0,0.0,0.0,0.0,-5.3185,-5.3185,-5.3185,-5.3185,-5.3185,-5.3185,-5.3185,-5.3185,-5.3185,-5.3185,-5.3185,-5.3185,-5.3185,-5.3185,-5.3185,0.0,0.0,0.0,-5.3185,-5.3185,-5.3185,-5.3185,-5.3185,-5.3185,-5.3185,-5.3185,-5.3185,0.0,0.0,0.0,0.0,0.0,0.0,-3.56,-3.56,-3.56,-3.56,-3.56,-3.56,-3.56,-3.56,-3.56,-3.56,-3.56,0.0,0.0,0.0,0.0,0.0,0.0,0.0,0.0,0.0,-3.56,-3.56,-3.56,0.0,0.0,0.0,0.0,0.0,0.0,0.0,0.0,-3.56,0.0,0.0,0.0,0.0,0.0,0.0,0.0,0.0,0.0,0.0,0.0,0.0,0.0,0.0,-3.56,-3.5802,0.0,0.0,-3.8058,-3.9056,-3.9343,-3.9774,-4.0096,-4.0096,-4.0096,-4.0096,-4.0096,0.0,-4.0096,-4.0096,-4.0096,-4.0096,-4.0096,-4.0096,-4.0286,-4.0803,-4.2243,-4.3569,-4.4395,-4.5595,-4.6901,-4.8322,-4.8285,0.0,0.0,0.0,0.0,0.0,0.0,0.0,0.0,-5.2743,-5.2999,-5.2554,-5.2959,-5.2999,-5.2554,-5.2999,-5.3185,-5.3185,-5.3185,-5.3185,-5.3185,-5.3185,-5.3185,-5.3185,0.0,0.0,0.0,-5.3185,-5.3185,-5.3185,-5.3185,-5.3185,-5.3185,-5.3185,-5.3185,-5.3185,0.0,0.0,0.0,0.0,0.0,-3.56,-3.56,-3.56,-3.56,-3.56,-3.56,-3.56,-3.56,-3.56,-3.56,-3.56,-3.56,0.0,0.0,0.0,0.0,0.0,0.0,0.0,0.0,0.0,-3.56,-3.56,-3.56,-3.56,0.0,0.0,0.0,0.0,0.0,0.0,0.0,0.0,0.0,0.0,0.0,0.0,0.0,0.0,0.0,0.0,0.0,0.0,0.0,0.0,0.0,0.0,-3.56,-3.56,-3.5752,0.0,-3.754,-3.8396,-3.8616,-3.9208,-3.9723,-3.9503,-3.9791,-4.0045,0.0,0.0,-4.0096,-4.0096,-4.0096,-4.0096,-4.0096,-4.0096,-4.0229,-4.0601,-4.1798,-4.2957,-4.3752,-4.4815,-4.6054,0.0,0.0,0.0,0.0,0.0,0.0,0.0,0.0,0.0,0.0,-5.1916,-5.233,-5.1832,-5.2307,-5.233,-5.1808,-5.2509,-5.2875,-5.2893,-5.3103,-5.3185,-5.3185,-5.3185,-5.3185,0.0,0.0,0.0,0.0,-5.3185,-5.3185,-5.3185,-5.3185,-5.3185,-5.3185,-5.3185,-5.3185,-5.3185,0.0,0.0,0.0,0.0,0.0,-3.56,-3.56,-3.56,-3.56,-3.56,-3.56,-3.56,-3.56,-3.56,-3.56,-3.56,-3.56,0.0,0.0,0.0,0.0,0.0,0.0,0.0,0.0,0.0,-3.56,-3.56,-3.56,-3.56,-3.56,-3.56,-3.56,-3.56,0.0,0.0,0.0,0.0,-3.56,0.0,0.0,0.0,0.0,0.0,0.0,0.0,0.0,0.0,0.0,0.0,0.0,0.0,0.0,-3.56,-3.5752,-3.6575,-3.6812,-3.6981,-3.7719,-3.8447,-3.8836,-3.8108,-3.9005,-3.991,0.0,-3.9588,-4.0096,-4.0096,-4.0096,-4.0096,-4.0096,-4.0096,-4.0096,-4.0096,-4.0739,-4.1699,-4.3113,-4.339,0.0,0.0,0.0,0.0,0.0,0.0,0.0,0.0,0.0,0.0,0.0,0.0,-5.1112,-5.1112,-5.1112,-5.1112,-5.1112,-5.1783,-5.2112,-5.2112,-5.2853,-5.3185,-5.3185,-5.3185,0.0,0.0,0.0,0.0,0.0,-5.3185,-5.3185,-5.3185,-5.3185,-5.3185,-5.3185,-5.3185,-5.3185,-5.3185,0.0,0.0,0.0,0.0,0.0,0.0,-3.56,-3.56,-3.56,-3.56,-3.56,-3.56,-3.56,-3.56,-3.56,-3.56,-3.56,0.0,0.0,0.0,0.0,0.0,0.0,0.0,0.0,-3.56,-3.56,-3.56,-3.56,-3.56,-3.56,-3.56,-3.56,-3.56,-3.56,-3.56,0.0,-3.56,-3.56,0.0,0.0,0.0,0.0,0.0,0.0,0.0,0.0,0.0,0.0,0.0,0.0,0.0,0.0,0.0,0.0,-3.591,-3.6366,-3.6846,-3.7083,-3.7686,-3.8311,-3.8582,-3.8988,-3.9436,-3.9706,-3.9943,-4.0096,-4.0096,-4.0096,-4.0096,-4.0096,-4.0096,-4.0096,-4.0096,-4.1145,-4.2095,0.0,0.0,0.0,0.0,0.0,0.0,0.0,0.0,0.0,0.0,0.0,0.0,0.0,0.0,-4.9879,-5.0335,-5.085,-5.085,-5.0335,-5.106,-5.1419,-5.1419,-5.2131,-5.2219,-5.1777,-5.2242,0.0,0.0,0.0,0.0,0.0,-5.2999,-5.3185,-5.3185,-5.3185,-5.3185,-5.3185,-5.3185,-5.3185,-5.3185,0.0,0.0,0.0,0.0,0.0,0.0,-3.56,-3.56,-3.56,-3.56,-3.56,-3.56,-3.56,-3.56,-3.56,-3.56,-3.56,0.0,0.0,0.0,0.0,0.0,0.0,0.0,-3.56,-3.56,-3.56,-3.56,-3.56,-3.56,-3.56,-3.56,-3.56,-3.56,-3.56,-3.56,0.0,-3.56,-3.56,-3.56,0.0,0.0,-3.56,0.0,0.0,0.0,0.0,0.0,0.0,0.0,0.0,0.0,0.0,0.0,0.0,0.0,-3.596,-3.6349,-3.6349,-3.6891,-3.7516,-3.7686,-3.8362,-3.9039,-3.9249,-3.9706,-4.0096,-4.0096,-4.0096,-4.0096,-4.0096,-4.0096,-4.0096,-4.0096,-4.1085,-4.1982,0.0,0.0,0.0,0.0,0.0,0.0,0.0,0.0,0.0,0.0,0.0,0.0,0.0,0.0,-4.9182,-4.9622,-5.0079,-5.0107,-4.9622,-5.0324,-5.0689,-5.0689,-5.1393,-5.1494,-5.1112,0.0,0.0,0.0,0.0,0.0,0.0,-5.2219,-5.2417,-5.244,-5.2702,-5.2617,-5.244,-5.2702,-5.2617,-5.244,0.0,0.0,0.0,0.0,0.0,0.0,0.0,-3.56,-3.56,-3.56,-3.56,-3.56,-3.56,-3.56,-3.56,-3.56,-3.56,0.0,0.0,0.0,0.0,0.0,0.0,0.0,-3.56,-3.56,-3.56,-3.56,-3.56,-3.56,-3.56,-3.56,-3.56,-3.56,-3.56,-3.56,-3.56,-3.56,-3.56,-3.56,-3.56,-3.56,0.0,0.0,0.0,0.0,0.0,0.0,0.0,0.0,0.0,0.0,0.0,0.0,0.0,0.0,0.0,0.0,0.0,-3.6146,-3.6558,-3.5853,-3.728,-3.8684,-3.8108,-3.9039,0.0,-4.0096,-4.0096,-4.0096,-4.0096,-4.0096,-4.0096,-4.0096,-4.0747,-4.1525,0.0,-4.3081,0.0,0.0,0.0,0.0,0.0,0.0,0.0,0.0,0.0,0.0,0.0,0.0,0.0,-4.9001,-4.9001,-4.9001,-4.9001,-4.9622,-4.9919,-4.9919,-5.0662,-5.0981,-5.0955,0.0,0.0,0.0,0.0,0.0,0.0,-5.1086,-5.1086,-5.1164,-5.1783,-5.1643,-5.1164,-5.1808,-5.1618,-5.1189,0.0,0.0,0.0,0.0,0.0,0.0,0.0,0.0,0.0,0.0,-3.56,-3.56,-3.56,-3.56,-3.56,0.0,0.0,0.0,0.0,0.0,0.0,0.0,0.0,0.0,-3.56,-3.56,-3.56,-3.56,-3.56,-3.56,-3.56,-3.56,-3.56,-3.56,-3.56,-3.56,-3.56,-3.56,-3.56,-3.56,-3.56,-3.56,0.0,0.0,0.0,0.0,-3.56,-3.56,0.0,0.0,0.0,0.0,0.0,0.0,0.0,0.0,-3.56,-3.56,-3.56,0.0,-3.5994,-3.64,-3.6931,-3.7574,0.0,-3.9005,-3.9436,-3.9994,-4.0096,-4.0096,-4.0096,-4.0096,-4.0096,-4.0096,-4.1196,-4.21,-4.2269,0.0,0.0,0.0,0.0,0.0,0.0,0.0,0.0,0.0,0.0,0.0,0.0,0.0,0.0,-4.9001,-4.9001,-4.9001,-4.9001,-4.9168,-4.9243,-4.9226,-4.9936,-4.9993,-4.9492,0.0,0.0,0.0,0.0,0.0,0.0,-5.0876,-5.1086,-5.1112,-5.1266,-5.1241,-5.1112,-5.1266,-5.1241,-5.1112,0.0,0.0,0.0,0.0,0.0,0.0,0.0,0.0,0.0,0.0,-3.56,-3.56,-3.56,-3.56,-3.56,0.0,0.0,0.0,0.0,0.0,0.0,0.0,0.0,-3.56,-3.56,-3.56,-3.56,-3.56,-3.56,-3.56,-3.56,-3.56,-3.56,-3.56,-3.56,-3.56,-3.56,-3.56,-3.56,-3.56,-3.56,0.0,0.0,0.0,0.0,0.0,-3.56,-3.56,0.0,-3.56,-3.56,-3.56,0.0,0.0,0.0,0.0,-3.56,-3.56,-3.56,-3.56,-3.5701,-3.6146,-3.6541,-3.7015,-3.7828,-3.8244,-3.87,-3.9453,-3.9605,-3.9706,-4.0045,-4.0096,-4.0214,-4.0544,-4.1542,0.0,0.0,0.0,0.0,0.0,0.0,0.0,0.0,0.0,0.0,0.0,0.0,0.0,0.0,0.0,0.0,0.0,-4.9001,-4.9001,-4.9001,-4.9001,-4.9001,-4.9001,-4.9359,-4.9359,-4.9001,0.0,0.0,0.0,0.0,0.0,-4.9563,-4.9965,-5.0118,-5.0174,-5.049,-5.0407,-5.0174,-5.0472,-5.0407,-5.0174,0.0,0.0,0.0,0.0,0.0,0.0,0.0,0.0,0.0,0.0,0.0,0.0,0.0,0.0,0.0,0.0,0.0,0.0,0.0,0.0,0.0,0.0,-3.56,-3.56,-3.56,-3.56,-3.56,-3.56,-3.56,-3.56,-3.56,-3.56,-3.56,-3.56,-3.56,-3.56,-3.56,-3.56,-3.56,-3.56,-3.56,0.0,0.0,0.0,0.0,0.0,0.0,0.0,0.0,-3.56,-3.56,-3.56,-3.56,0.0,0.0,0.0,0.0,0.0,-3.56,-3.56,-3.56,-3.56,-3.6113,-3.6694,-3.6914,-3.7449,-3.8142,-3.8988,-3.9157,-3.9343,-3.9994,-4.0096,0.0,0.0,0.0,0.0,0.0,0.0,0.0,0.0,0.0,0.0,0.0,0.0,0.0,0.0,0.0,0.0,0.0,0.0,0.0,0.0,-4.9001,-4.9001,-4.9001,-4.9001,-4.9001,-4.9001,-4.9001,-4.9001,-4.9001,-4.9001,0.0,0.0,0.0,0.0,-4.9001,-4.9001,-4.9001,-4.9063,-4.9622,-4.9492,-4.9077,-4.9652,-4.9492,-4.9077,0.0,0.0,0.0,0.0,0.0,0.0,0.0,0.0,0.0,0.0,0.0,0.0,0.0,0.0,0.0,0.0,0.0,0.0,0.0,0.0,0.0,-3.56,-3.56,-3.56,-3.56,-3.56,-3.56,-3.56,-3.56,-3.56,-3.56,-3.56,-3.56,-3.56,-3.56,-3.56,-3.56,-3.56,-3.56,-3.56,-3.56,0.0,0.0,0.0,0.0,0.0,0.0,0.0,0.0,-3.56,-3.56,-3.56,-3.56,0.0,0.0,0.0,0.0,0.0,-3.56,-3.56,-3.56,-3.56,-3.5684,-3.6124,-3.7432,-3.7821,-3.8294,-3.9656,-3.9943,-3.9977,-4.0079,-4.0096,-4.035,0.0,0.0,0.0,0.0,0.0,0.0,0.0,0.0,0.0,0.0,0.0,0.0,0.0,0.0,0.0,0.0,0.0,0.0,0.0,0.0,-4.9001,-4.9001,-4.9001,-4.9001,-4.9001,-4.9001,-4.9001,-4.9001,-4.9001,-4.9001,0.0,0.0,0.0,-4.9001,-4.9001,-4.9001,-4.9001,-4.9107,-4.9077,-4.9001,-4.9107,-4.9077,-4.9001,0.0,0.0,0.0,0.0,0.0,0.0,0.0,0.0,0.0,0.0,0.0,0.0,0.0,0.0,0.0,0.0,0.0,0.0,0.0,0.0,-3.56,-3.56,-3.56,-3.56,-3.56,-3.56,-3.56,-3.56,-3.56,-3.56,-3.56,-3.56,-3.56,-3.56,-3.56,-3.56,-3.56,-3.56,-3.5385,-3.5098,0.0,0.0,0.0,0.0,0.0,0.0,0.0,0.0,0.0,0.0,-3.56,-3.56,-3.56,0.0,0.0,0.0,0.0,0.0,-3.56,-3.56,-3.56,-3.56,-3.5943,-3.6434,-3.7127,-3.7618,-3.821,-3.9276,-3.952,-3.9757,0.0,0.0,-4.1068,-4.2219,0.0,0.0,0.0,0.0,0.0,0.0,0.0,0.0,0.0,0.0,0.0,0.0,0.0,0.0,0.0,0.0,0.0,0.0,0.0,0.0,-4.9001,-4.9001,-4.9001,-4.9001,-4.9001,-4.9001,-4.9001,-4.9001,-4.9001,0.0,0.0,-4.9001,-4.9001,-4.9001,-4.9001,-4.9001,-4.9001,-4.9001,-4.9001,-4.9001,-4.9001,-4.9001,0.0,0.0,0.0,0.0,0.0,0.0,0.0,0.0,0.0,0.0,0.0,0.0,0.0,0.0,0.0,0.0,0.0,0.0,0.0,-3.56,-3.56,-3.56,-3.56,-3.56,-3.56,-3.56,-3.56,-3.56,-3.56,-3.56,-3.56,-3.56,-3.56,-3.56,-3.5447,-3.5447,-3.56,-3.543,-3.5161,-3.4894,0.0,0.0,0.0,0.0,0.0,0.0,0.0,0.0,0.0,0.0,0.0,0.0,0.0,0.0,0.0,-3.56,-3.56,-3.56,-3.56,-3.56,-3.565,-3.5819,-3.6332,-3.6846,-3.7032,-3.7618,-3.8362,-3.9106,-3.9377,0.0,0.0,-4.1491,0.0,-4.3206,0.0,0.0,0.0,0.0,0.0,0.0,0.0,0.0,0.0,0.0,0.0,0.0,0.0,0.0,0.0,0.0,0.0,0.0,0.0,0.0,-4.9001,-4.9001,-4.9001,-4.9001,-4.9001,-4.9001,-4.9001,-4.9001,-4.9001,-4.9001,-4.9001,-4.9001,-4.9001,-4.9001,-4.9001,-4.9001,-4.9001,-4.9001,-4.9001,-4.9001,-4.9001,-4.9001,0.0,0.0,0.0,0.0,0.0,0.0,0.0,0.0,0.0,0.0,0.0,0.0,0.0,0.0,0.0,0.0,0.0,0.0,0.0,-3.56,-3.56,-3.56,-3.56,-3.56,-3.56,-3.56,-3.56,-3.56,-3.56,-3.56,-3.56,-3.56,-3.56,-3.5577,-3.4941,-3.5028,-3.5577,-3.4941,-3.4988,-3.5538,-3.5577,0.0,0.0,0.0,0.0,0.0,0.0,0.0,0.0,0.0,0.0,0.0,0.0,0.0,-3.56,-3.56,-3.56,-3.56,-3.56,-3.56,-3.5769,-3.6541,-3.6761,-3.6981,-3.7669,-3.8396,-3.9123,-3.9876,-4.0561,0.0,0.0,-4.2337,-4.3274,0.0,0.0,0.0,0.0,0.0,0.0,0.0,0.0,0.0,0.0,0.0,0.0,0.0,0.0,0.0,0.0,0.0,0.0,0.0,0.0,0.0,-4.9001,-4.9001,-4.9001,-4.9001,-4.9001,-4.9001,-4.9001,-4.9001,-4.9001,-4.9001,-4.9001,-4.9001,-4.9001,-4.9001,-4.9001,-4.9001,-4.9001,-4.9001,-4.9001,-4.9001,-4.9001,-4.9001,0.0,0.0,0.0,0.0,0.0,0.0,0.0,0.0,0.0,0.0,0.0,-3.56,-3.56,0.0,0.0,0.0,0.0,0.0,0.0,-3.4965,-3.4965,-3.4965,-3.5385,-3.56,-3.56,-3.56,-3.56,-3.56,-3.56,-3.56,-3.56,-3.56,-3.5385,-3.5005,-3.5144,-3.4894,-3.4374,-3.4528,-3.452,-3.4399,-3.4823,-3.4847,0.0,0.0,0.0,0.0,0.0,0.0,0.0,0.0,-3.56,-3.56,-3.56,-3.56,-3.56,-3.56,-3.56,-3.56,-3.56,-3.5977,-3.6417,-3.6728,-3.7506,-3.8251,-3.8514,-3.914,-3.991,-4.0629,-4.1018,0.0,0.0,0.0,0.0,0.0,0.0,0.0,0.0,0.0,0.0,0.0,0.0,0.0,0.0,0.0,0.0,0.0,0.0,0.0,0.0,0.0,0.0,0.0,0.0,0.0,0.0,-4.8342,-4.8105,-4.7631,-4.8562,-4.9001,-4.9001,-4.9001,-4.9001,-4.9001,-4.9001,-4.9001,-4.9001,-4.9001,-4.9001,-4.9001,-4.9001,-4.9001,-4.9001,-4.9001,-4.9001,-4.9001,0.0,0.0,0.0,0.0,0.0,0.0,0.0,0.0,-3.5515,0.0,0.0,0.0,0.0,-3.4958,0.0,0.0,0.0,0.0,-3.46,-3.4783,-3.4918,-3.4918,-3.5362,-3.56,-3.56,-3.56,-3.56,-3.56,-3.56,-3.56,-3.56,-3.56,-3.5362,-3.4918,-3.4958,-3.4704,-3.4227,-3.4037,-3.4062,-3.4252,-3.4503,-3.46,0.0,0.0,0.0,0.0,0.0,0.0,0.0,0.0,-3.56,-3.56,-3.56,-3.56,-3.56,-3.56,-3.56,-3.56,-3.56,-3.618,-3.6863,-3.71,-3.8075,-3.9106,-3.958,-4.007,-4.0578,-4.1102,-4.1576,-4.2286,-4.3555,0.0,0.0,0.0,0.0,0.0,0.0,0.0,0.0,0.0,0.0,0.0,0.0,0.0,0.0,0.0,0.0,0.0,0.0,0.0,0.0,0.0,0.0,0.0,0.0,-4.7564,-4.731,-4.6802,-4.7817,-4.8308,-4.8308,-4.8308,-4.8426,-4.8663,-4.8663,-4.8781,-4.9001,-4.9001,-4.9001,-4.9001,-4.9001,-4.9001,-4.9001,-4.9001,-4.9001,-4.9001,0.0,0.0,0.0,0.0,0.0,0.0,0.0,0.0,-3.5339,-3.4688,-3.4576,0.0,0.0,0.0,0.0,0.0,0.0,0.0,-3.4576,-3.5207,-3.5577,-3.5577,-3.56,-3.56,-3.56,-3.56,-3.56,-3.56,-3.56,-3.56,-3.56,-3.56,-3.5577,-3.5515,-3.4202,-3.435,-3.5447,-3.3459,-3.3751,-3.5515,-3.4871,-3.4576,-3.4648,0.0,0.0,0.0,0.0,0.0,0.0,0.0,-3.5577,-3.5577,-3.56,-3.56,-3.56,-3.56,-3.56,-3.56,-3.56,-3.6197,-3.6998,-3.7736,-3.8464,-3.9377,-4.0865,-4.1204,-4.1204,-4.1221,-4.2405,-4.3656,-4.4462,0.0,0.0,0.0,0.0,0.0,0.0,0.0,0.0,0.0,0.0,0.0,0.0,0.0,0.0,0.0,0.0,0.0,0.0,0.0,0.0,0.0,0.0,0.0,0.0,-4.6786,-4.6786,-4.6769,-4.6769,-4.6786,-4.6786,-4.6786,-4.7192,-4.7872,-4.7889,-4.8294,-4.8984,-4.9001,-4.9001,-4.9001,-4.9001,-4.9001,-4.9001,-4.9001,-4.9001,-4.9001,0.0,0.0,0.0,0.0,0.0,0.0,0.0,0.0,-3.4112,-3.3912,-3.3887,0.0,0.0,0.0,0.0,0.0,0.0,0.0,-3.3182,-3.3827,-3.4202,-3.4202,-3.5091,-3.56,-3.56,-3.5138,-3.5121,-3.56,-3.5121,-3.5138,-3.5577,-3.4633,-3.4447,-3.4894,-3.4479,-3.3987,-3.3495,-3.3862,-3.3811,-3.3495,-3.3786,-3.3887,-3.3912,0.0,0.0,0.0,0.0,0.0,0.0,0.0,0.0,0.0,-3.4752,-3.4894,-3.5005,-3.547,-3.56,-3.5718,-3.6282,-3.6992,-3.7753,-3.8481,-3.9249,-4.0003,-4.0984,-4.1204,-4.1491,0.0,-4.3555,-4.4316,-4.4564,0.0,0.0,0.0,0.0,0.0,0.0,0.0,0.0,0.0,0.0,0.0,0.0,0.0,0.0,0.0,0.0,0.0,0.0,0.0,0.0,0.0,0.0,0.0,0.0,0.0,-4.5771,-4.5258,-4.5258,-4.5788,-4.6786,-4.6786,-4.6921,-4.7158,-4.7652,-4.8007,-4.8291,-4.8798,-4.9001,-4.9001,-4.9001,-4.9001,-4.9001,-4.9001,-4.9001,-4.9001,0.0,0.0,0.0,0.0,0.0,0.0,-3.3582,-3.3582,-3.3505,-3.3235,-3.3182,-3.3077,0.0,0.0,0.0,-3.2772,-3.2906,0.0,-3.2986,-3.3608,-3.4012,-3.4012,-3.452,-3.4816,-3.4816,-3.4423,-3.4544,-3.5207,-3.4783,-3.4664,-3.48,-3.452,-3.4471,-3.46,-3.46,-3.4161,-3.3417,-3.3684,-3.3479,-3.3013,-3.3145,-3.3365,-3.3582,0.0,0.0,0.0,0.0,0.0,0.0,0.0,0.0,0.0,-3.4479,-3.4783,-3.5075,-3.547,-3.56,-3.5769,-3.6592,-3.733,-3.8091,-3.8819,-3.9554,-4.0367,-4.139,-4.1863,-4.2422,0.0,-4.4248,-4.4615,-4.4615,0.0,0.0,0.0,0.0,0.0,0.0,0.0,0.0,0.0,0.0,0.0,0.0,0.0,0.0,0.0,0.0,0.0,0.0,0.0,0.0,0.0,0.0,0.0,0.0,0.0,0.0,-4.4615,-4.4615,-4.5089,-4.5935,-4.5935,-4.6075,-4.6413,-4.7432,-4.7889,-4.7939,-4.8714,-4.9001,-4.9001,-4.9001,-4.9001,-4.9001,-4.9001,-4.9001,-4.9001,0.0,0.0,-3.3521,-3.3521,0.0,0.0,-3.3401,-3.3401,-3.3182,-3.2586,-3.2492,-3.2244,0.0,0.0,0.0,-3.1511,-3.2664,-3.3401,0.0,-3.4037,-3.4431,-3.4431,-3.3887,-3.3582,-3.3582,-3.3531,-3.3811,-3.4431,-3.4431,-3.4211,-3.3786,-3.4776,-3.5028,-3.4671,-3.4503,-3.4455,-3.4431,-3.3224,-3.296,-3.3365,-3.2815,-3.2906,-3.3401,-3.3401,0.0,0.0,0.0,0.0,0.0,0.0,0.0,0.0,-3.4406,-3.4847,-3.5339,-3.547,-3.547,-3.5615,-3.6631,-3.7334,-3.8002,-3.8886,-3.9723,-4.0654,-4.1982,-4.2929,-4.3724,-4.4462,0.0,-4.4615,0.0,0.0,0.0,0.0,0.0,0.0,0.0,0.0,0.0,0.0,0.0,0.0,0.0,0.0,0.0,0.0,0.0,0.0,0.0,0.0,0.0,0.0,0.0,0.0,0.0,0.0,0.0,0.0,-4.4542,-4.4615,-4.4615,-4.4615,-4.4993,-4.5771,-4.7111,-4.777,-4.7939,-4.8629,-4.8951,-4.9001,-4.9001,-4.9001,-4.9001,-4.9001,-4.9001,-4.9001,0.0,0.0,-3.2815,-3.2815,0.0,0.0,-3.1936,-3.1936,-3.1894,-3.1768,-3.1754,-3.1697,-3.1511,-3.1511,0.0,-3.1511,-3.1796,-3.1936,-3.1936,-3.2625,-3.3039,-3.3039,-3.3391,-3.3582,-3.3582,-3.3093,-3.2895,-3.3039,-3.3039,-3.3777,-3.5138,-3.3271,-3.3453,-3.5316,-3.3726,-3.3313,-3.3786,-3.3521,-3.2826,-3.1992,-3.2422,-3.2355,-3.1936,-3.1936,-3.1936,0.0,0.0,0.0,0.0,0.0,0.0,0.0,-3.2853,-3.3119,-3.3443,-3.452,-3.4447,-3.4554,-3.7002,-3.7366,-3.7503,-3.9396,-4.0857,-4.1897,-4.2219,-4.3352,-4.4384,-4.4564,-4.4615,-4.4615,0.0,0.0,0.0,0.0,0.0,0.0,0.0,0.0,0.0,0.0,0.0,0.0,0.0,0.0,0.0,0.0,0.0,0.0,0.0,0.0,0.0,0.0,0.0,0.0,-4.3591,-4.4253,-4.4253,0.0,-4.4253,-4.4615,-4.4615,-4.4615,-4.4993,-4.572,-4.6041,-4.6836,-4.7906,-4.8058,-4.8494,-4.9001,-4.9001,-4.9001,-4.9001,-4.9001,-4.9001,-4.9001,0.0,0.0,0.0,0.0,0.0,0.0,0.0,0.0,-3.1511,-3.1511,-3.1511,-3.1511,-3.1511,-3.1511,0.0,0.0,-3.1824,-3.2035,-3.2035,-3.2382,-3.2437,-3.2092,-3.2422,-3.2583,-3.2583,-3.2256,-3.2244,-3.2586,-3.2244,-3.2625,-3.3633,-3.3193,-3.3401,-3.4153,-3.3751,-3.3391,-3.3119,-3.3119,-3.2674,-3.2003,-3.2408,-3.2518,-3.2407,-3.2093,-3.1974,-3.1929,-3.1615,0.0,0.0,0.0,0.0,0.0,0.0,0.0,-3.3224,-3.3912,-3.3862,-3.4082,-3.6252,-3.6818,-3.725,-3.907,-4.0662,-4.1765,-4.1765,-4.3233,-4.4485,-4.4064,-4.4327,0.0,0.0,0.0,0.0,0.0,0.0,0.0,0.0,0.0,0.0,0.0,0.0,0.0,0.0,0.0,0.0,0.0,0.0,0.0,0.0,0.0,0.0,0.0,0.0,0.0,-4.3948,-4.3977,-4.3756,-4.3306,-4.335,-4.335,-4.338,-4.3768,-4.4194,-4.4578,-4.4912,-4.5497,-4.6296,-4.7447,-4.8139,-4.8528,-4.8866,-4.9001,-4.9001,-4.9001,-4.9001,-4.9001,0.0,0.0,0.0,0.0,0.0,0.0,0.0,0.0,0.0,-3.1511,-3.1511,-3.1511,-3.1511,-3.1511,-3.1511,0.0,0.0,0.0,-3.241,-3.241,-3.2148,-3.1524,-3.1511,-3.1511,-3.1511,-3.1511,-3.1796,-3.241,-3.1796,-3.1511,-3.1539,-3.3255,-3.3659,-3.2986,-3.3735,-3.3569,-3.2757,-3.2635,-3.2627,-3.2677,-3.2677,-3.3006,-3.344,-3.2886,-3.2677,-3.2617,-3.2034,-3.1765,-3.1675,-3.1675,0.0,0.0,0.0,0.0,-3.3245,-3.3391,-3.3339,-3.3615,-3.5256,-3.6313,-3.7236,-3.8422,-3.9762,-4.0824,-4.0939,-4.2518,-4.381,-4.3213,0.0,0.0,0.0,0.0,0.0,0.0,0.0,0.0,0.0,0.0,0.0,0.0,0.0,0.0,0.0,0.0,0.0,0.0,0.0,0.0,0.0,0.0,0.0,0.0,0.0,-4.4281,-4.415,-4.3426,-4.3017,-4.2847,-4.2252,-4.1997,-4.2029,-4.2583,-4.2939,-4.3111,-4.3715,-4.4043,-4.4335,-4.6407,-4.7323,-4.7508,-4.8402,-4.8656,-4.8545,-4.8688,-4.8656,-4.8513,0.0,0.0,0.0,0.0,0.0,0.0,0.0,0.0,0.0,0.0,-3.1511,-3.1511,-3.1511,-3.1511,-3.1511,-3.1511,-3.1582,-3.164,-3.164,0.0,0.0,-3.1496,-3.1511,-3.1511,-3.1511,-3.1511,-3.1553,-3.164,-3.1553,-3.1511,-3.1511,-3.1781,-3.2783,-3.426,-3.2621,-3.2466,-3.3339,-3.2743,-3.2841,-3.3365,-3.3365,-3.3425,-3.3484,-3.3395,-3.3365,-3.335,-3.326,-3.2871,-3.2377,-3.2377,-3.2062,0.0,0.0,0.0,-3.1894,-3.2559,-3.2272,-3.2338,-3.4999,-3.6673,-3.7709,-3.7901,-3.8573,-3.9342,0.0,0.0,-4.1605,0.0,0.0,0.0,0.0,0.0,0.0,0.0,0.0,0.0,0.0,0.0,0.0,0.0,0.0,0.0,0.0,0.0,0.0,0.0,0.0,0.0,0.0,0.0,-4.4615,-4.4615,-4.3873,0.0,-4.2347,-4.2221,-4.1788,-4.1046,-4.1691,-4.1997,-4.1965,-4.1346,-4.1478,-4.2157,-4.2285,-4.2671,-4.3347,-4.425,-4.4977,-4.5725,-4.7194,-4.7306,-4.6678,-4.7489,-4.7273,-4.6558,0.0,0.0,0.0,0.0,0.0,0.0,0.0,0.0,0.0,0.0,0.0,-3.1511,-3.1511,-3.1511,-3.1511,-3.1511,-3.1511,-3.1511,-3.1511,-3.1511,-3.1511,-3.1511,-3.1511,-3.1511,-3.1511,-3.1511,-3.1511,-3.1511,-3.1511,-3.171,-3.212,-3.1697,-3.1992,-3.2853,-3.268,-3.272,-3.2953,-3.3036,-3.344,-3.4038,-3.4038,-3.4277,-3.4577,-3.4188,-3.4038,-3.3993,-3.3619,-3.3305,-3.3066,-3.3066,-3.2617,-3.2049,-3.2049,0.0,0.0,0.0,-3.1739,-3.2025,-3.4472,-3.5815,-3.66,-3.701,-3.7663,-3.8306,-3.859,-3.988,-4.0943,0.0,0.0,0.0,0.0,0.0,0.0,0.0,0.0,0.0,0.0,0.0,0.0,0.0,0.0,0.0,0.0,0.0,0.0,0.0,0.0,0.0,0.0,-4.3152,-4.3152,-4.3152,-4.2769,0.0,-4.1997,-4.1511,-4.0826,-3.999,-4.0359,-4.055,-4.0516,-4.015,-4.0447,-4.128,-4.128,-4.1453,-4.1834,-4.3032,-4.3951,-4.4705,-4.5805,-4.6219,-4.6244,-4.6662,-4.6558,-4.6208,0.0,0.0,0.0,0.0,0.0,0.0,0.0,0.0,0.0,0.0,0.0,-3.1511,-3.1511,0.0,0.0,0.0,-3.1511,-3.1511,-3.1511,-3.1511,-3.1511,-3.1511,-3.1511,-3.1511,-3.1511,-3.1511,-3.1511,-3.1511,-3.1511,-3.1768,-3.2299,-3.1949,-3.175,-3.1809,-3.281,-3.3163,-3.3036,-3.3529,-3.4128,-3.4741,-3.4741,-3.504,-3.5444,-3.4936,-3.4741,-3.4681,-3.4188,-3.3888,-3.3739,-3.3739,-3.3305,-3.2766,-3.2766,-3.2288,0.0,0.0,0.0,-3.236,-3.3962,-3.4956,-3.5651,-3.6196,-3.6721,-3.7168,0.0,0.0,0.0,0.0,0.0,0.0,0.0,0.0,0.0,0.0,0.0,0.0,0.0,0.0,0.0,0.0,0.0,0.0,0.0,0.0,0.0,0.0,0.0,0.0,-4.1997,-4.1997,-4.1997,-4.1997,-4.1804,-4.1674,-4.1674,-4.0792,-4.0045,-3.9388,-3.9388,-3.9388,-3.9388,-3.9388,-3.9758,-4.0363,-4.0363,-4.0363,-4.0493,-4.1849,-4.2813,-4.3504,-4.4481,-4.5108,-4.5493,-4.5762,-4.569,-4.5457,0.0,0.0,0.0,0.0,0.0,0.0,0.0,0.0,0.0,0.0,0.0,-3.1511,-3.1511,-3.1511,-3.1511,-3.1511,-3.1511,-3.1511,-3.1511,-3.1511,-3.1511,-3.1511,-3.1511,0.0,-3.1511,-3.1511,-3.1511,-3.1511,-3.1511,-3.1524,-3.1568,-3.2168,-3.2437,-3.2437,-3.2527,-3.3231,-3.4414,-3.4444,-3.4816,-3.5444,-3.5444,-3.5474,-3.5504,-3.5474,-3.5444,-3.5444,-3.5415,-3.4981,-3.4459,-3.4459,-3.3978,-3.344,-3.344,-3.2991,-3.2437,0.0,0.0,0.0,-3.3531,-3.4503,-3.5504,-3.5569,-3.5584,-3.5779,0.0,0.0,0.0,0.0,0.0,0.0,0.0,0.0,0.0,0.0,0.0,0.0,0.0,0.0,0.0,0.0,0.0,0.0,0.0,0.0,0.0,0.0,0.0,0.0,-4.1997,-4.1997,-4.1997,-4.1997,-4.1213,-4.0758,-4.0758,-3.99,-3.9445,-3.9388,-3.9388,-3.9388,-3.9388,-3.9388,-3.9409,-3.9481,-3.9481,-3.9481,-3.9526,-4.0259,-4.092,-4.1693,-4.3239,-4.3707,-4.3591,-4.451,-4.4259,-4.3433,0.0,0.0,0.0,0.0,0.0,0.0,0.0,0.0,0.0,0.0,0.0,0.0,0.0,-3.1511,-3.1511,-3.1511,-3.1511,-3.1511,-3.1511,-3.1511,-3.1511,-3.1511,-3.1511,-3.1511,-3.1511,-3.1511,-3.1511,-3.1511,-3.1511,-3.172,-3.2138,-3.2378,-3.2961,-3.3769,-3.3769,-3.4038,-3.4533,-3.4951,-3.528,-3.5504,-3.5504,-3.5504,-3.5504,-3.5504,-3.5504,-3.5504,-3.5504,0.0,-3.513,-3.513,-3.4681,-3.4159,-3.4159,-3.3679,-3.314,-3.314,-3.3604,-3.4159,-3.4159,-3.4801,-3.5504,-3.5504,-3.5504,-3.5564,-3.5804,-3.6178,0.0,0.0,0.0,0.0,0.0,0.0,0.0,0.0,0.0,0.0,0.0,0.0,0.0,0.0,0.0,0.0,0.0,0.0,0.0,0.0,0.0,0.0,-4.0324,-4.0324,-4.0324,-4.0324,-4.0025,-3.9864,-3.9864,-3.9538,-3.9388,-3.9388,-3.9388,-3.9388,-3.9388,-3.9388,-3.9388,-3.9388,-3.9388,-3.9388,-3.9439,-3.9679,-4.0157,-4.0853,-4.1858,-4.2447,-4.28,-4.3542,-4.3591,-4.329,0.0,0.0,0.0,0.0,0.0,-3.1511,-3.1511,-3.1511,-3.1511,-3.1511,0.0,0.0,0.0,0.0,-3.1511,-3.1511,-3.1511,-3.1511,-3.1511,-3.1511,-3.1511,-3.1511,-3.1511,-3.1511,-3.1511,-3.1511,-3.1615,-3.1839,-3.1839,-3.2168,-3.2841,-3.3066,-3.3649,-3.4518,-3.4758,-3.4848,-3.4846,-3.531,-3.5504,-3.5534,-3.5744,-3.5833,-3.5863,-3.6073,-3.6148,-3.6148,0.0,0.0,-3.5833,-3.5833,-3.5385,-3.4848,-3.4848,-3.4367,-3.3784,-3.3559,-3.3963,-3.4503,-3.4503,-3.4981,-3.5504,-3.5504,-3.5504,-3.5504,-3.5504,0.0,0.0,0.0,0.0,0.0,0.0,0.0,0.0,0.0,0.0,0.0,0.0,0.0,0.0,0.0,0.0,0.0,0.0,0.0,0.0,0.0,0.0,0.0,-3.9388,-3.9388,-3.9388,-3.9388,-3.9388,-3.9388,-3.9388,-3.9388,-3.9388,-3.9388,-3.9388,-3.9388,-3.9388,-3.9388,-3.9388,-3.9388,-3.9388,-3.9388,-3.9388,-3.9388,-3.9813,-4.0442,-4.0876,-4.1632,-4.2455,-4.2851,-4.315,-4.329,-3.1511,-3.1511,-3.1511,-3.1511,-3.1511,-3.1511,-3.1511,-3.1511,-3.1511,-3.1511,0.0,0.0,0.0,0.0,0.0,-3.157,-3.157,-3.157,-3.157,-3.157,-3.157,-3.157,-3.157,-3.157,-3.157,-3.157,-3.1869,-3.2542,-3.2542,-3.2886,-3.3529,-3.4219,-3.4518,-3.4563,-3.5205,-3.5504,-3.5504,-3.5504,-3.5519,-3.5594,-3.6237,-3.6492,-3.6582,-3.718,-3.7404,0.0,-3.7404,-3.703,0.0,-3.6507,-3.6073,-3.5534,-3.5504,-3.504,-3.4414,-3.3739,-3.4008,-3.4533,0.0,0.0,0.0,0.0,0.0,0.0,-3.5504,0.0,0.0,0.0,0.0,0.0,0.0,0.0,0.0,0.0,0.0,0.0,0.0,0.0,0.0,0.0,0.0,0.0,0.0,0.0,0.0,0.0,0.0,-3.9388,-3.9388,-3.9388,-3.9388,-3.9388,-3.9388,-3.9388,-3.9388,-3.9388,-3.9388,-3.9388,-3.9388,-3.9388,-3.9388,-3.9388,-3.9388,-3.9388,-3.9388,-3.9388,-3.9388,-3.9388,-3.9798,-4.0367,-4.0382,-4.119,-4.2351,-4.2396,-4.2761,-4.3275,-3.1511,-3.1511,-3.1511,-3.1511,-3.1511,-3.1511,-3.1511,-3.1511,-3.1511,0.0,0.0,0.0,-3.2213,-3.2662,-3.2961,-3.2961,-3.2961,-3.2961,-3.2961,-3.2961,-3.2961,-3.2961,-3.2961,-3.2961,-3.2961,-3.2961,-3.3036,-3.3215,-3.3215,-3.3559,-3.4234,-3.4414,-3.4773,-3.5235,-3.5429,-3.5504,-3.5504,-3.5504,-3.5774,-3.6237,-3.6417,-3.6746,-3.7165,-3.7345,0.0,0.0,0.0,-3.73,-3.715,0.0,-3.6731,-3.6133,-3.5654,-3.537,-3.519,-3.4996,-3.507,-3.522,-3.522,0.0,0.0,0.0,0.0,0.0,-3.5504,-3.5504,0.0,0.0,0.0,0.0,0.0,0.0,0.0,0.0,0.0,0.0,0.0,0.0,0.0,0.0,0.0,0.0,0.0,0.0,0.0,0.0,0.0,-3.9388,-3.9388,-3.9388,-3.9388,-3.9388,-3.9388,-3.9388,-3.9388,-3.9388,-3.9388,-3.9388,-3.9388,-3.9388,-3.9388,-3.9388,-3.9388,-3.9388,-3.9388,-3.9388,-3.9388,-3.9388,-3.9493,-3.9738,-4.0217,-4.0621,-4.1055,-4.2051,-4.2515,-4.2701,-3.1511,-3.1511,-3.1511,-3.1511,-3.1511,-3.16,-3.1869,-3.1914,-3.2019,0.0,0.0,0.0,-3.2916,-3.326,-3.3499,-3.3499,-3.3499,-3.3499,-3.3499,-3.3499,-3.3499,-3.3499,-3.3499,-3.3499,-3.3499,-3.3499,-3.3634,-3.3934,-3.3934,-3.4247,-3.4906,-3.4906,-3.5115,-3.5504,-3.5504,-3.5654,-3.5908,-3.5908,-3.6133,-3.6537,-3.7075,-3.7494,-3.7853,-3.8138,-3.8242,0.0,0.0,0.0,-3.7823,-3.7823,-3.7404,0.0,0.0,0.0,-3.5863,-3.5594,-3.5504,-3.5504,-3.5504,-3.5504,0.0,0.0,0.0,0.0,-3.5504,-3.5504,-3.5504,0.0,0.0,0.0,0.0,0.0,0.0,0.0,0.0,0.0,0.0,0.0,0.0,0.0,0.0,0.0,0.0,0.0,0.0,0.0,-3.8586,-3.8706,-3.8975,-3.926,-3.9388,-3.9388,-3.9388,-3.9388,-3.9388,-3.9388,-3.9388,-3.9388,-3.9388,-3.9388,-3.9388,-3.9388,-3.9388,-3.9388,-3.9388,-3.9388,-3.9388,-3.9388,-3.9388,-3.9454,-3.9843,-4.0157,-4.0487,-4.1265,-4.1931,-4.2455,0.0,-3.1511,-3.1525,-3.16,-3.1615,-3.1839,-3.2497,-3.2617,-3.2826,0.0,-3.3559,-3.3634,-3.3709,-3.3724,-3.3724,-3.3724,-3.3724,-3.3724,-3.3724,-3.3724,-3.3724,-3.3724,-3.3724,-3.3724,-3.3724,-3.3724,-3.4008,-3.4623,-3.4623,-3.4906,-3.5504,-3.5504,-3.5504,-3.5504,-3.5579,-3.5938,-3.6492,-3.6641,-3.6701,-3.6791,-3.7928,-3.8437,0.0,0.0,-3.9493,-3.9508,-3.9619,-3.92,-3.8586,-3.8437,-3.8003,0.0,0.0,0.0,0.0,0.0,-3.5564,0.0,-3.5504,-3.5504,0.0,0.0,0.0,0.0,-3.5504,-3.5504,-3.5504,0.0,0.0,0.0,0.0,0.0,0.0,0.0,0.0,0.0,0.0,0.0,0.0,0.0,0.0,0.0,0.0,0.0,0.0,-3.7404,-3.7404,-3.7659,-3.8257,-3.8856,-3.9194,-3.9305,-3.9305,-3.9298,-3.9388,-3.9388,-3.9388,-3.9388,-3.9388,-3.9388,-3.9388,-3.9388,-3.9388,-3.9388,-3.9388,-3.9388,-3.9388,-3.9388,-3.9388,-3.9388,-3.9388,-3.9768,-4.0307,-4.0367,-4.113,-4.2186,-3.1511,-3.1511,-3.1675,-3.2198,-3.2288,-3.2542,-3.32,-3.3305,-3.335,-3.3484,-3.3963,-3.4502,-3.5055,-3.5115,-3.5115,-3.5115,-3.5115,-3.5115,-3.5115,-3.5115,-3.5115,-3.5115,-3.5115,-3.5115,-3.5115,-3.5115,-3.5175,-3.5295,-3.5295,-3.537,-3.5504,-3.5504,-3.5504,-3.5534,-3.6058,-3.6372,-3.6552,-3.7584,-3.8018,-3.8048,-3.8287,-3.8721,-3.929,-3.9948,-4.0202,-4.0277,-4.0816,-4.0576,-3.9843,-3.8751,-3.8302,-3.8078,0.0,0.0,0.0,-3.6327,0.0,0.0,0.0,0.0,0.0,0.0,0.0,0.0,-3.5504,-3.5504,-3.5504,0.0,0.0,0.0,0.0,0.0,0.0,0.0,0.0,0.0,0.0,0.0,0.0,0.0,0.0,0.0,0.0,0.0,-3.7404,-3.7404,-3.7404,-3.7464,-3.7599,-3.7734,-3.8048,-3.8571,-3.8601,-3.8856,-3.9373,-3.9388,-3.9388,-3.9388,-3.9388,-3.9388,-3.9388,-3.9388,-3.9388,-3.9388,-3.9388,-3.9388,-3.9388,-3.9388,-3.9388,-3.9388,-3.9388,-3.9499,-3.9679,-4.0202,-4.0561,-4.0861,-3.1989,-3.2258,-3.2617,-3.2946,-3.3006,-3.3215,-3.3888,-3.3978,-3.4113,-3.4457,-3.4786,-3.5115,-3.5474,-3.5504,-3.5504,-3.5504,-3.5504,-3.5504,-3.5504,-3.5504,-3.5504,-3.5504,-3.5504,-3.5504,-3.5504,-3.5504,-3.5504,-3.5504,-3.5504,-3.5504,-3.5519,-3.5833,-3.5998,-3.6028,-3.6656,-3.712,-3.7479,-3.8123,-3.8586,-3.8901,-3.8901,0.0,-3.9948,-4.0277,-4.0606,-4.0935,-4.1265,-4.0965,-4.0292,-3.9619,-3.917,0.0,0.0,-3.7689,-3.7375,0.0,-3.6492,-3.5998,0.0,0.0,0.0,-3.5504,0.0,0.0,0.0,-3.5504,-3.5504,0.0,0.0,0.0,0.0,0.0,0.0,0.0,0.0,0.0,0.0,0.0,0.0,0.0,0.0,0.0,0.0,0.0,-3.6462,-3.6462,-3.6761,-3.6941,-3.6941,-3.724,-3.7554,-3.7883,-3.8227,-3.8556,-3.8901,-3.9245,-3.9388,-3.9388,-3.9388,-3.9388,-3.9388,-3.9388,-3.9388,-3.9388,-3.9388,-3.9388,-3.9388,-3.9388,-3.9388,-3.9388,-3.9388,-3.9388,-3.9454,-3.9783,-4.0113,-4.0442,-3.2721,-3.3125,-3.3529,-3.3664,-3.3679,-3.3903,-3.4608,-3.4698,-3.4921,-3.5609,-3.5684,-3.5744,-3.5863,-3.5878,-3.5878,-3.5878,-3.5878,-3.5878,-3.5878,-3.5878,-3.5878,-3.5878,-3.5878,-3.5818,-3.5699,-3.5684,-3.5624,-3.5504,-3.5624,-3.5684,-3.5714,-3.6357,-3.6656,-3.6686,-3.7315,-3.7883,-3.8407,-3.8527,-3.8975,-3.9604,0.0,-3.9933,-4.0427,-4.0681,-4.1115,-4.1602,-4.1602,-4.1235,-4.0756,-4.0636,-4.0157,-3.9514,-3.896,-3.8601,0.0,0.0,0.0,0.0,0.0,0.0,0.0,0.0,0.0,-3.5504,0.0,0.0,0.0,0.0,0.0,0.0,0.0,0.0,0.0,0.0,0.0,0.0,0.0,0.0,0.0,0.0,0.0,0.0,0.0,0.0,-3.5504,-3.5504,-3.5998,-3.6297,-3.6297,-3.6776,-3.7105,-3.7225,-3.7853,-3.8257,-3.8392,-3.9065,-3.9388,-3.9388,-3.9388,-3.9388,-3.9388,-3.9388,-3.9388,-3.9388,-3.9388,-3.9388,-3.9388,-3.9388,-3.9388,-3.9388,-3.9388,-3.9388,-3.9388,-3.9388,-3.9753,-4.0217,-3.3499,-3.344,-3.3679,-3.4294,-3.4399,-3.4592,-3.528,-3.5385,-3.5624,-3.6297,-3.6372,-3.6582,-3.7135,-3.7195,-3.7195,-3.7195,-3.7195,-3.7195,-3.7195,-3.7195,-3.7195,-3.7195,-3.7195,-3.6941,-3.6387,-3.6372,-3.6088,-3.5504,-3.6088,-3.6372,-3.6387,-3.7015,-3.73,-3.733,-3.7988,-3.8317,-3.8437,-3.9035,-3.9679,0.0,-4.0292,-4.0337,0.0,-4.1737,-4.2231,-4.2291,-4.2291,-4.2246,-4.2096,0.0,-4.0831,-4.0277,0.0,-3.9349,-3.8377,-3.8302,0.0,0.0,0.0,0.0,0.0,0.0,-3.5938,0.0,0.0,0.0,0.0,0.0,0.0,0.0,0.0,0.0,0.0,0.0,0.0,0.0,0.0,0.0,0.0,0.0,0.0,0.0,0.0,0.0,0.0,-3.5504,-3.5579,-3.5609,-3.5609,-3.5684,-3.5983,-3.6567,-3.7195,-3.7808,-3.8377,-3.9065,-3.9388,-3.9388,-3.9388,-3.9388,-3.9388,-3.9388,-3.9388,-3.9388,-3.9388,-3.9388,-3.9388,-3.9388,-3.9388,-3.9388,-3.9388,-3.9388,-3.9388,-3.9388,-3.9433,-3.9493,-3.4203,-3.4382,-3.4756,-3.5026,-3.507,-3.5175,-3.5459,-3.5833,-3.6312,-3.6941,-3.7015,-3.712,-3.7375,-3.7404,-3.7404,-3.7404,-3.7404,-3.7404,0.0,-3.7404,-3.7404,-3.7404,-3.7404,-3.7285,-3.703,-3.7015,-3.6881,-3.6611,-3.6881,-3.7015,-3.7045,-3.7674,-3.7973,-3.8003,-3.8691,-3.92,-3.9574,0.0,-4.0367,0.0,0.0,0.0,0.0,-4.2186,-4.2635,-4.2925,-4.2925,-4.2686,-4.2366,0.0,-4.1504,0.0,0.0,0.0,0.0,0.0,0.0,0.0,0.0,0.0,0.0,0.0,0.0,0.0,-3.6073,0.0,-3.5504,0.0,0.0,0.0,0.0,0.0,0.0,0.0,0.0,0.0,0.0,0.0,0.0,0.0,0.0,0.0,0.0,0.0,0.0,0.0,0.0,-3.5504,-3.5504,-3.5504,-3.5624,-3.5908,-3.6537,-3.718,-3.7808,-3.8482,-3.902,-3.9388,-3.9388,-3.9388,-3.9388,-3.9388,-3.9388,-3.9388,-3.9388,-3.9388,-3.9388,-3.9388,-3.9388,-3.9388,-3.9388,-3.9388,-3.9388,-3.9388,-3.9388,-3.9388,-3.5117,-3.528,-3.5504,-3.5504,-3.5654,-3.5833,-3.6013,-3.6432,-3.703,-3.7853,-3.7958,-3.8093,-3.8452,-3.8497,-3.8497,-3.8497,-3.8497,-3.8497,0.0,0.0,-3.8422,-3.8242,-3.8227,-3.8063,-3.7689,-3.7674,-3.7584,-3.7404,-3.7584,-3.7674,-3.7689,-3.8362,-3.8676,-3.8691,-3.9379,-3.9948,-4.0412,0.0,-4.1055,-4.1737,-4.2201,-4.2515,-4.2626,-4.2626,-4.2925,-4.329,-4.329,-4.303,-4.2626,-4.2626,-4.2192,0.0,-4.1085,0.0,0.0,0.0,0.0,0.0,-3.8676,0.0,0.0,0.0,0.0,0.0,0.0,0.0,0.0,0.0,0.0,0.0,0.0,0.0,0.0,0.0,0.0,0.0,0.0,0.0,0.0,0.0,0.0,0.0,0.0,0.0,0.0,0.0,0.0,0.0,-3.5504,-3.5504,-3.5504,-3.5504,-3.6148,-3.6791,-3.7404,-3.8063,-3.8736,-3.9388,-3.9388,-3.9388,-3.9388,-3.9388,-3.9388,-3.9388,-3.9388,-3.9388,-3.9388,-3.9388,-3.9388,-3.9388,-3.9388,-3.9388,-3.9388,-3.9388,-3.9388,-3.9388,-3.6297,-3.5923,-3.5504,-3.5504,-3.6028,-3.6656,-3.7255,-3.736,-3.7853,-3.9149,-3.9328,-3.9843,0.0,0.0,0.0,0.0,0.0,-4.1287,-4.1287,0.0,-4.0965,0.0,0.0,-3.9694,-3.8392,-3.8362,-3.8048,-3.7404,-3.8048,-3.8362,-3.8377,-3.9065,-3.9394,-3.9409,-4.0068,-4.0382,-4.0442,-4.107,-4.1767,-4.2366,-4.2396,-4.2746,-4.326,0.0,-4.3275,-4.329,-4.329,0.0,0.0,-4.326,-4.2865,0.0,0.0,0.0,0.0,0.0,0.0,0.0,0.0,0.0,0.0,-3.8362,0.0,0.0,0.0,0.0,-3.6267,0.0,0.0,0.0,0.0,0.0,-3.5295,-3.4653,0.0,0.0,0.0,0.0,0.0,0.0,0.0,0.0,0.0,0.0,0.0,0.0,0.0,0.0,-3.5504,-3.5504,-3.5504,-3.5504,-3.6148,-3.6791,-3.7404,-3.8063,-3.8736,-3.9388,-3.9388,-3.9388,-3.9388,-3.9388,-3.9388,-3.9388,-3.9388,-3.9388,-3.9388,-3.9388,-3.9388,-3.9388,-3.9388,-3.9388,-3.9388,-3.9388,-3.9388,-3.9388,-3.7045,-3.6911,-3.6761,-3.6761,-3.6941,-3.7315,-3.7958,-3.8452,-3.9065,0.0,-4.0442,0.0,0.0,-4.1422,-4.1422,0.0,0.0,-4.1422,-4.1422,-4.1422,0.0,0.0,0.0,-4.0831,0.0,-4.0404,-4.0053,-3.9394,-3.9619,-3.9499,-3.9095,-3.9753,-4.0068,-4.0098,-4.0756,-4.1294,0.0,0.0,0.0,0.0,0.0,-4.3135,-4.329,0.0,0.0,-4.329,-4.329,-4.329,0.0,-4.329,-4.314,-4.294,-4.2545,-4.2096,-4.1647,-4.1175,-4.0591,0.0,0.0,0.0,-3.9065,-3.9065,0.0,0.0,0.0,0.0,0.0,0.0,0.0,0.0,0.0,0.0,-3.5429,-3.519,-3.4412,0.0,0.0,0.0,0.0,0.0,0.0,0.0,0.0,0.0,0.0,0.0,0.0,0.0,0.0,-3.5504,-3.5504,-3.5504,-3.5729,-3.6342,-3.7404,-3.7629,-3.8302,-3.9388,-3.9388,-3.9388,-3.9388,-3.9388,-3.9388,-3.9388,-3.9388,-3.9388,-3.9388,-3.9388,-3.9388,-3.9388,-3.9388,-3.9388,-3.9388,-3.9388,-3.9388,-3.9388,-3.7719,-3.7764,-3.7689,-3.7449,-3.7599,-3.8063,-3.896,-3.9484,0.0,0.0,-4.1512,0.0,-4.2043,0.0,-4.2073,0.0,-4.2073,-4.2073,-4.2073,-4.2073,0.0,-4.1767,-4.1767,0.0,0.0,0.0,0.0,-4.0756,-4.0756,-4.0531,-4.0127,-4.0546,-4.0756,-4.0771,-4.1482,-4.2006,-4.241,-4.265,-4.294,0.0,0.0,-4.329,0.0,0.0,-4.329,-4.329,0.0,-4.329,-4.329,-4.329,-4.329,-4.3215,-4.2836,-4.259,-4.2321,-4.1886,-4.1265,-4.0696,-4.0457,-4.0083,0.0,0.0,-3.9095,0.0,-3.8437,0.0,0.0,0.0,0.0,0.0,0.0,0.0,-3.5504,-3.5504,-3.4562,-3.3679,0.0,-3.2183,0.0,0.0,0.0,0.0,0.0,0.0,0.0,0.0,0.0,0.0,0.0,0.0,-3.5504,-3.5504,-3.5504,-3.6118,-3.7404,-3.7404,-3.8078,-3.9388,-3.9388,-3.9388,-3.9388,-3.9388,-3.9388,-3.9388,-3.9388,-3.9388,-3.9388,-3.9388,-3.9388,-3.9388,-3.9388,-3.9388,-3.9388,-3.9388,-3.9388,-3.9388,-3.8407,-3.8542,-3.8347,-3.7719,-3.8093,0.0,0.0,0.0,-4.095,0.0,-4.2425,-4.2641,-4.323,-4.329,-4.329,-4.329,-4.329,-4.329,-4.329,-4.329,0.0,0.0,-4.244,-4.2156,-4.1489,0.0,0.0,0.0,0.0,-4.1414,-4.1422,-4.1414,-4.1467,-4.1497,-4.2156,-4.244,-4.2485,-4.3075,-4.329,-4.329,-4.329,-4.329,-4.329,-4.329,0.0,-4.329,-4.329,-4.329,-4.329,-4.329,-4.329,-4.329,-4.329,-4.291,-4.244,-4.244,-4.1976,-4.1294,-4.0666,-4.0442,-4.0247,-3.9634,0.0,0.0,0.0,0.0,-3.8212,0.0,0.0,0.0,0.0,0.0,0.0,-3.5504,-3.4921,-3.4054,0.0,0.0,0.0,0.0,0.0,0.0,0.0,0.0,0.0,0.0,0.0,0.0,0.0,0.0,0.0,-3.5504,-3.5504,-3.6118,-3.7404,-3.7404,-3.8078,-3.9388,-3.9388,-3.9388,-3.9388,-3.9388,-3.9388,-3.9388,-3.9388,-3.9388,-3.9388,-3.9388,-3.9388,-3.9388,-3.9388,-3.9388,-3.9388,-3.9388,-3.9388,-3.9388,-4.0576,-4.0621,-4.0598,0.0,-4.0098,-4.0172,0.0,0.0,0.0,0.0,-4.2776,-4.315,-4.3275,-4.329,-4.329,-4.329,-4.329,0.0,0.0,0.0,0.0,-4.309,-4.309,-4.3,-4.2836,-4.2836,0.0,-4.2141,0.0,-4.1901,-4.1384,-4.1916,-4.2141,-4.2171,-4.2791,-4.309,-4.309,-4.3215,-4.329,-4.329,-4.329,-4.329,0.0,0.0,-4.329,-4.329,-4.329,-4.329,-4.329,-4.329,-4.329,-4.329,-4.329,-4.317,-4.309,-4.309,-4.2626,-4.2111,-4.1946,-4.1145,-4.0367,-4.0187,-3.9783,-3.9328,0.0,0.0,0.0,0.0,0.0,0.0,0.0,0.0,0.0,-3.5579,-3.4921,-3.4219,0.0,0.0,0.0,0.0,0.0,0.0,0.0,0.0,0.0,0.0,0.0,0.0,0.0,0.0,0.0,-3.5504,-3.5504,-3.6118,-3.7404,-3.7404,-3.8078,-3.9388,-3.9388,-3.9388,-3.9388,-3.9388,-3.9388,-3.9388,-3.9388,-3.9388,-3.9388,-3.9388,-3.9388,-3.9388,-3.9388,-3.9388,-3.9388,-3.9388,-3.9388,-3.9388,-4.1422,-4.1422,-4.1512,-4.1796,0.0,0.0,-4.1796,-4.2171,0.0,-4.2746,-4.3105,0.0,-4.329,-4.329,-4.329,-4.329,-4.329,0.0,-4.329,0.0,0.0,-4.329,-4.329,-4.329,-4.329,-4.329,0.0,-4.2776,0.0,-4.2596,-4.2237,-4.2611,-4.2776,-4.2806,-4.3125,-4.329,-4.329,-4.329,-4.329,-4.329,-4.329,0.0,0.0,-4.329,-4.329,-4.329,-4.329,-4.329,-4.329,-4.329,-4.329,-4.329,-4.329,-4.329,-4.329,-4.329,-4.3075,-4.2731,-4.247,-4.1856,-4.119,-4.0905,-4.0337,-3.9843,-3.9843,-3.9334,-3.8841,0.0,0.0,0.0,0.0,0.0,0.0,0.0,0.0,0.0,0.0,0.0,0.0,0.0,0.0,0.0,0.0,0.0,0.0,0.0,0.0,0.0,0.0,0.0,0.0,0.0,-3.5504,-3.6118,-3.7404,-3.7404,-3.8078,-3.9388,-3.9388,-3.9388,-3.9388,-3.9388,-3.9388,-3.9388,-3.9388,-3.9388,-3.9388,-3.9388,-3.9388,-3.9388,-3.9388,-3.9388,-3.9388,-3.9388,-3.9388,-3.9337,-4.1639,-4.1639,0.0,0.0,0.0,0.0,0.0,-4.253,0.0,-4.3215,0.0,-4.3319,-4.3409,-4.3424,-4.3454,-4.3544,0.0,-4.3424,-4.3424,-4.3349,-4.329,-4.329,-4.329,-4.329,-4.329,-4.329,-4.329,0.0,-4.329,-4.329,-4.329,-4.329,-4.329,-4.329,-4.329,0.0,0.0,-4.329,-4.329,-4.329,-4.329,-4.329,-4.329,-4.329,-4.329,-4.329,-4.329,-4.329,-4.329,-4.329,-4.329,-4.329,-4.329,-4.329,-4.329,-4.329,-4.329,-4.317,-4.2641,-4.247,-4.2261,-4.1692,-4.101,-4.0502,-4.0427,-3.9963,-3.9529,-3.9439,-3.8945,0.0,0.0,0.0,0.0,0.0,0.0,0.0,0.0,0.0,0.0,0.0,0.0,0.0,0.0,0.0,0.0,0.0,0.0,0.0,0.0,0.0,0.0,0.0,-3.5504,0.0,-3.7404,0.0,-3.8078,-3.9388,-3.9388,-3.9388,-3.9388,-3.9388,-3.9388,-3.9388,-3.9265,-3.9265,-3.9388,-3.9265,-3.9177,-3.9177,-3.9177,-3.9104,-3.898,-3.898,-3.898,-3.8855,-4.2946,-4.2946,0.0,0.0,0.0,-4.3125,-4.3125,-4.3125,-4.317,-4.329,-4.329,-4.3499,-4.4077,-4.4137,-4.4362,-4.49,-4.4451,0.0,0.0,0.0,0.0,-4.329,-4.329,-4.329,-4.329,-4.329,-4.329,0.0,-4.329,-4.329,-4.329,-4.329,-4.329,-4.329,-4.329,0.0,-4.329,-4.329,0.0,-4.329,-4.329,-4.329,-4.329,-4.329,-4.329,-4.329,-4.329,-4.329,-4.329,-4.329,-4.329,-4.329,-4.329,-4.329,-4.329,-4.329,-4.329,-4.3275,-4.3155,-4.2776,-4.2366,-4.2246,-4.1737,-4.107,-4.0531,-4.0307,-4.0068,-3.9493,-3.9334,-3.9065,-3.8497,0.0,0.0,0.0,0.0,0.0,0.0,0.0,0.0,0.0,0.0,0.0,0.0,0.0,0.0,0.0,0.0,0.0,0.0,0.0,0.0,0.0,0.0,0.0,0.0,0.0,0.0,-3.9388,-3.9388,-3.9388,-3.9388,-3.9388,-3.9388,-3.9337,-3.8472,-3.8583,-3.9337,-3.8472,-3.8069,-3.8069,-3.8069,-3.7534,-3.676,-3.676,-3.676,-3.6852,-4.329,0.0,0.0,0.0,0.0,0.0,0.0,-4.329,0.0,-4.329,-4.3589,-4.3958,-4.4272,-4.4616,-4.4945,-4.5274,-4.5005,-4.4825,-4.4825,-4.4212,-4.3838,-4.3838,-4.3484,0.0,-4.329,-4.329,-4.329,-4.329,-4.329,-4.329,-4.329,-4.329,-4.329,-4.329,-4.329,-4.329,0.0,0.0,0.0,-4.329,-4.329,-4.329,-4.329,-4.329,-4.329,-4.329,-4.329,-4.329,-4.329,-4.329,-4.329,-4.329,-4.329,-4.329,-4.329,-4.329,-4.329,-4.329,-4.329,-4.3105,-4.2865,-4.2865,-4.2372,-4.1841,-4.1527,-4.0891,-4.0307,-3.9993,-3.9649,-3.902,-3.7811,-3.6685,0.0,0.0,0.0,0.0,0.0,0.0,0.0,0.0,0.0,0.0,0.0,0.0,0.0,0.0,0.0,0.0,0.0,0.0,0.0,0.0,0.0,0.0,0.0,0.0,0.0,-3.8583,-3.9141,-3.9388,-3.9388,-3.9388,-3.9104,-3.8546,-3.8032,-3.7776,-3.7724,-3.7776,-3.7472,-3.7021,-3.7587,-3.7137,-3.6198,-3.6198,-3.5854,-3.5521,0.0,-4.329,0.0,0.0,-4.329,0.0,-4.3484,-4.3499,-4.3499,-4.3499,-4.3947,-4.4421,-4.4706,-4.52,-4.5574,-4.5708,-4.5589,-4.5514,-4.5514,-4.4885,-4.4466,-4.4317,-4.3783,-4.3439,-4.329,-4.329,-4.329,0.0,-4.329,-4.329,0.0,-4.329,-4.329,0.0,0.0,0.0,0.0,0.0,-4.329,-4.329,-4.329,-4.329,-4.329,-4.329,-4.329,-4.329,-4.329,-4.329,-4.329,-4.329,-4.329,-4.329,-4.329,-4.329,-4.329,-4.329,-4.329,-4.329,-4.329,-4.329,-4.329,-4.329,-4.294,-4.2575,-4.2425,-4.1444,-4.0561,-4.0427,-3.9675,-3.8656,-3.7263,-3.655,0.0,0.0,0.0,0.0,0.0,0.0,0.0,0.0,0.0,0.0,0.0,0.0,0.0,0.0,0.0,-3.4578,-3.4713,-3.5205,0.0,0.0,0.0,0.0,-3.5906,0.0,-3.6276,0.0,-3.8331,-3.873,-3.873,-3.873,-3.8256,-3.7472,-3.7228,-3.6671,-3.5974,-3.7021,-3.6827,-3.5974,-3.6788,-3.6476,-3.5534,-3.5534,-3.5034,-3.4345,0.0,0.0,0.0,0.0,0.0,0.0,0.0,-4.4227,-4.4227,-4.4227,-4.4272,-4.4781,-4.5965,-4.6145,-4.6471,-4.707,-4.6576,-4.619,-4.619,-4.5589,-4.4945,-4.4347,-4.4257,-4.3902,-4.3305,-4.329,-4.329,0.0,0.0,-4.329,0.0,0.0,0.0,0.0,0.0,0.0,0.0,-4.329,-4.329,-4.329,-4.329,-4.329,-4.329,-4.329,-4.329,-4.329,-4.329,-4.329,-4.329,-4.329,-4.329,-4.329,-4.329,-4.329,-4.329,-4.329,-4.329,-4.329,-4.329,-4.329,-4.329,-4.329,-4.3245,-4.309,-4.253,-4.1841,-4.1115,-4.0531,-3.9075,-3.789,-3.7757,-3.5726,-3.4123,0.0,0.0,0.0,0.0,0.0,0.0,0.0,0.0,0.0,0.0,0.0,0.0,0.0,0.0,-3.4788,-3.537,-3.5474,0.0,-3.5504,0.0,-3.4612,-3.5906,-3.5012,0.0,-3.6369,-3.6448,-3.6487,-3.6487,-3.6487,-3.6434,-3.629,-3.5413,-3.4938,-3.4938,-3.5934,-3.5748,-3.4856,-3.4938,-3.4345,-3.3398,-3.3398,-3.3313,-3.324,0.0,0.0,0.0,0.0,0.0,0.0,0.0,-4.49,-4.505,-4.5469,-4.5514,-4.5681,-4.6219,-4.6681,-4.7025,-4.7279,-4.7055,-4.692,-4.692,-4.6277,-4.5798,-4.5487,-4.4751,-4.4182,-4.3928,-4.3499,-4.329,0.0,0.0,0.0,0.0,0.0,0.0,0.0,0.0,-4.329,-4.329,-4.329,-4.329,-4.329,-4.329,-4.329,-4.329,-4.329,-4.329,-4.329,-4.329,-4.329,-4.329,-4.329,-4.329,-4.329,-4.329,-4.329,-4.329,-4.329,-4.329,-4.329,-4.329,-4.329,-4.329,-4.329,-4.329,-4.323,-4.3015,-4.2432,-4.162,-4.0294,-3.8312,-3.6852,-3.6852,-3.5478,-3.4069,0.0,0.0,0.0,0.0,0.0,0.0,0.0,0.0,0.0,0.0,0.0,0.0,0.0,0.0,0.0,-3.5489,-3.4953,0.0,-3.461,0.0,-3.3192,-3.4039,-3.4047,-3.4445,-3.5319,-3.5894,-3.6198,-3.6198,-3.6198,-3.5854,-3.5238,-3.4178,-3.3755,-3.3839,-3.4856,-3.4692,-3.3797,-3.447,-3.4037,-3.3124,-3.3124,-3.3124,-3.3124,-4.3589,0.0,-4.4062,0.0,-4.4601,-4.4825,-4.5499,-4.5589,-4.5843,-4.6531,-4.6563,-4.6563,-4.6563,-4.7025,-4.7309,-4.7309,-4.7309,-4.7309,-4.7309,-4.6875,-4.6531,-4.6294,-4.5367,0.0,-4.4332,-4.3828,-4.3484,-4.329,-4.329,0.0,0.0,0.0,0.0,0.0,-4.329,-4.329,-4.329,-4.329,-4.329,-4.329,-4.329,-4.329,-4.329,-4.329,-4.329,-4.329,-4.329,-4.329,-4.329,-4.329,-4.329,-4.329,-4.329,-4.329,-4.329,-4.329,-4.329,-4.329,-4.329,-4.329,-4.329,-4.329,-4.329,-4.321,-4.29,-4.2609,-4.1855,-3.9905,-3.7618,-3.5952,-3.5775,-3.4925,-3.3801,0.0,0.0,0.0,0.0,0.0,0.0,0.0,-2.9792,-2.9792,-2.9792,0.0,0.0,0.0,0.0,0.0,0.0,0.0,0.0,0.0,0.0,0.0,0.0,0.0,-3.3634,-3.4233,-3.4966,-3.5305,-3.5305,-3.5305,-3.4884,-3.4191,-3.3441,-3.3124,-3.3154,-3.3911,-3.3797,-3.3197,-3.3911,-3.3755,-3.3124,-3.3124,-3.3124,-3.3124,-4.4302,-4.4825,-4.5274,-4.5289,-4.5289,-4.5514,-4.6217,-4.6264,-4.6546,-4.7204,-4.7294,-4.7294,-4.7294,-4.7309,-4.7309,-4.7309,-4.7309,-4.7309,-4.7309,-4.7294,-4.6995,0.0,0.0,-4.5678,-4.4347,-4.4302,-4.3947,-4.329,0.0,0.0,-4.329,0.0,0.0,-4.329,-4.329,-4.329,-4.329,-4.329,-4.329,-4.329,-4.329,-4.329,-4.329,-4.329,-4.329,-4.329,-4.329,-4.329,-4.329,-4.329,-4.329,-4.329,-4.329,-4.329,-4.329,-4.329,-4.329,-4.329,-4.329,-4.329,-4.329,-4.329,-4.329,-4.3036,-4.1891,-4.2008,-4.1736,-3.9325,-3.707,-3.535,-3.481,-3.3839,-3.2935,-3.2303,0.0,0.0,0.0,0.0,0.0,0.0,-2.9792,-2.9792,-2.9792,0.0,0.0,0.0,0.0,0.0,0.0,0.0,0.0,-3.2629,-3.2209,0.0,-3.2778,-3.2396,-3.2503,-3.3124,-3.3111,-3.3154,-3.3154,-3.3154,-3.3111,-3.3124,-3.3124,-3.3124,-3.3124,-3.3124,-3.3124,-3.3124,-3.3124,-3.3124,-3.3124,-3.3124,-3.3124,-3.3124,-4.499,-4.5155,-4.5439,-4.5918,-4.5992,-4.6217,-4.689,-4.6995,-4.707,-4.7279,-4.7309,-4.7309,-4.7309,-4.7309,-4.7309,0.0,-4.7309,-4.7309,0.0,-4.7309,-4.7204,-4.6995,-4.6518,-4.6085,-4.5651,-4.5229,-4.4661,-4.3962,0.0,0.0,0.0,-4.329,-4.329,-4.329,-4.329,-4.329,-4.329,-4.329,-4.329,-4.329,-4.329,-4.329,-4.329,-4.329,-4.329,-4.329,-4.329,-4.329,-4.329,-4.329,-4.329,-4.329,-4.329,-4.329,-4.329,-4.329,-4.329,-4.329,-4.329,-4.329,-4.329,-4.329,-4.329,-4.2981,-4.185,-4.0196,-3.892,-3.888,-3.6489,-3.4581,-3.5128,-3.4054,-3.3061,-3.283,0.0,0.0,0.0,0.0,0.0,0.0,-3.0357,-3.0206,0.0,-3.0075,0.0,0.0,0.0,0.0,0.0,0.0,0.0,0.0,-3.1811,0.0,-3.2408,-3.2672,-3.2893,-3.3124,-3.3124,-3.3124,-3.3124,-3.3124,-3.3124,-3.3124,-3.3124,-3.3124,-3.3124,-3.3124,-3.3124,-3.3124,-3.3124,-3.3124,-3.3124,-3.3124,-3.3124,-3.3124,-4.5678,-4.5888,-4.6187,-4.6621,-4.6696,-4.683,-4.7249,-4.7309,-4.7309,-4.7309,-4.7309,-4.7309,-4.7309,-4.7309,0.0,-4.7309,-4.7309,-4.7309,-4.7309,-4.7309,-4.7309,-4.7309,-4.692,-4.6576,-4.6337,0.0,0.0,-4.4691,-4.4436,-4.3947,-4.329,-4.329,-4.329,-4.329,-4.329,-4.329,-4.329,-4.329,-4.329,-4.329,-4.329,-4.329,-4.329,-4.329,-4.329,-4.329,-4.329,-4.329,-4.329,-4.329,-4.329,-4.329,-4.329,-4.329,-4.329,-4.329,-4.329,-4.329,-4.329,-4.329,-4.321,-4.2765,-4.2684,-4.2371,-4.1211,-3.8884,-3.7213,-3.8098,-3.6257,-3.4597,-3.4839,-3.4061,-3.3319,-3.3106,0.0,-3.2466,0.0,0.0,0.0,0.0,0.0,0.0,0.0,-3.0394,0.0,0.0,0.0,0.0,0.0,0.0,0.0,-3.1746,-3.1711,0.0,-3.2215,-3.278,-3.3124,-3.3124,-3.3124,-3.3124,-3.3124,-3.3124,-3.3124,-3.3124,-3.3124,-3.3124,-3.3124,-3.3124,-3.3124,-3.3124,-3.3124,-3.3124,-3.3124,-3.3124,-3.3124,-3.3124,-4.6354,-4.689,0.0,0.0,-4.7309,0.0,-4.7309,-4.7309,-4.7309,-4.7309,-4.7309,-4.7309,-4.7309,-4.7309,-4.7309,-4.7309,0.0,0.0,0.0,-4.7309,-4.7309,-4.7309,-4.7309,0.0,-4.6369,-4.6354,-4.6052,-4.5364,-4.4706,-4.4062,-4.3424,-4.3379,-4.3364,-4.3364,-4.3319,-4.329,-4.329,-4.329,-4.329,-4.329,-4.329,-4.329,-4.329,-4.329,-4.329,-4.329,-4.329,-4.329,-4.329,-4.329,-4.329,-4.329,-4.329,-4.329,-4.329,-4.329,-4.329,-4.329,-4.321,-4.317,-4.29,-4.1767,-4.142,-4.1085,-4.0015,-3.7997,-3.6569,-3.7121,-3.6295,-3.5182,-3.4211,-3.3947,-3.3734,-3.3262,-3.3106,-3.288,-3.2353,0.0,0.0,0.0,0.0,0.0,0.0,-3.1386,-3.1386,0.0,0.0,0.0,0.0,0.0,0.0,-3.1436,-3.1938,-3.2227,-3.2277,-3.2805,-3.3124,-3.3124,-3.3124,-3.3124,-3.3124,-3.3124,-3.3124,-3.3124,-3.3124,-3.3124,-3.3124,-3.3124,-3.3124,-3.3124,-3.3124,-3.3124,-3.3124,-3.3124,-3.3124,-3.3124,0.0,0.0,-4.7309,-4.7309,-4.7309,-4.7309,-4.7309,-4.7309,-4.7309,-4.7309,-4.7309,-4.7309,-4.7309,-4.7309,-4.7309,-4.7309,-4.7309,-4.7309,-4.7309,-4.7309,-4.7309,-4.7309,-4.7309,-4.7234,-4.707,-4.707,-4.6741,-4.6082,-4.5394,-4.499,-4.4825,-4.4317,-4.4077,-4.4062,-4.3514,-4.329,-4.329,-4.329,-4.329,-4.329,-4.329,-4.329,-4.329,-4.329,-4.329,-4.329,-4.329,-4.329,-4.329,-4.329,-4.329,-4.329,-4.329,-4.329,-4.329,-4.329,-4.329,-4.3115,-4.2249,-4.1988,-4.1726,-4.0575,-3.961,-3.8859,-3.8604,-3.7415,-3.6461,-3.6591,-3.6004,-3.542,-3.5157,-3.4462,-3.3859,-3.3721,-3.3357,-3.3074,-3.2893,0.0,0.0,0.0,-3.2014,-3.1851,-3.1436,-3.1386,-3.1386,0.0,0.0,0.0,0.0,0.0,-3.1888,-3.2014,-3.2139,-3.2428,-3.2867,-3.3048,-3.3124,-3.3124,-3.3124,-3.3124,-3.3124,-3.3124,-3.3124,-3.3124,-3.3124,-3.3124,-3.3124,-3.3124,-3.3124,-3.3124,-3.3124,-3.3124,-3.3124,-3.3124,-3.3124,-3.3124,-4.7309,-4.7309,-4.7309,-4.7309,-4.7309,-4.7309,-4.7309,-4.7309,-4.7309,-4.7309,-4.7309,-4.7309,-4.7309,-4.7309,-4.7309,-4.7309,-4.7309,-4.7309,-4.7309,-4.7309,-4.7309,-4.7309,-4.7309,-4.7309,-4.7309,-4.7309,-4.698,-4.6279,-4.5948,-4.5603,-4.5289,-4.493,-4.4766,-4.4736,-4.4077,-4.3738,-4.3723,-4.3424,-4.329,-4.329,-4.329,-4.329,-4.329,-4.329,-4.329,-4.329,-4.329,-4.329,-4.321,-4.2684,-4.2508,-4.2508,-4.2508,-4.2167,-4.1823,-4.2386,-4.2508,-4.229,-4.1127,-4.0831,-4.0532,-3.9346,-3.8211,-3.7322,-3.7322,-3.6849,-3.6405,-3.6405,-3.6119,-3.5843,-3.5545,-3.5006,-3.4487,-3.3985,-3.3646,-3.337,-3.3106,-3.3124,0.0,-3.2641,-3.2604,-3.2491,-3.219,-3.2164,-3.2164,-3.2164,0.0,0.0,-3.2591,-3.2604,-3.2604,-3.2604,-3.2604,-3.2754,-3.3124,-3.3124,-3.3124,-3.3124,-3.3332,-3.3458,-3.3458,-3.3458,-3.3458,-3.3432,-3.3224,-3.3124,-3.3124,-3.3124,-3.3124,-3.3124,-3.3124,-3.3124,-3.3124,-3.3124,-3.3124,-3.3124,-4.7309,-4.7309,-4.7309,-4.7309,-4.7309,-4.7309,-4.7309,-4.7309,-4.7309,-4.7309,-4.7309,-4.7309,-4.7309,-4.7309,-4.7309,-4.7309,-4.7309,-4.7309,-4.7309,-4.7309,-4.7309,-4.7309,-4.7309,-4.7309,-4.7309,-4.7309,-4.704,-4.6429,-4.6429,-4.6172,-4.5589,-4.5499,-4.5454,-4.5424,-4.4751,-4.4466,-4.4421,-4.3828,-4.3529,-4.3439,-4.3439,-4.3379,-4.329,-4.329,-4.321,-4.3076,-4.325,-4.3076,-4.2684,-4.185,-4.1504,-4.1337,-4.1337,-4.0703,-4.0059,-4.0859,-4.107,-4.0859,-3.9885,-3.9492,-3.9152,-3.8121,-3.7103,-3.6405,-3.6405,-3.6405,-3.6405,-3.6405,-3.6405,-3.6267,-3.5708,-3.5558,-3.5194,-3.4299,-3.401,-3.3734,-3.3269,0.0,-3.3124,-3.3124,-3.3124,-3.3124,-3.3124,-3.3124,-3.3124,-3.3124,-3.3124,0.0,0.0,-3.3124,-3.3124,-3.3124,-3.3124,-3.3162,-3.3206,-3.3206,-3.3244,-3.3332,-3.3796,-3.4022,-3.4022,-3.4022,-3.4022,-3.3985,-3.3432,-3.3206,-3.3194,-3.3106,-3.3124,-3.3124,-3.3124,-3.3124,-3.3124,-3.3124,-3.3124,-3.3124,-4.7309,-4.7309,-4.7309,-4.7309,-4.7309,-4.7309,-4.7309,-4.7309,-4.7309,-4.7309,-4.7309,-4.7309,-4.7309,-4.7309,-4.7309,-4.7309,-4.7309,-4.7309,-4.7309,-4.7309,-4.7309,-4.7309,-4.7309,-4.7309,-4.7309,-4.7309,-4.7249,-4.716,-4.716,-4.71,-4.698,-4.6426,-4.6115,-4.6142,-4.5439,-4.514,-4.514,-4.5035,-4.4661,-4.4127,-4.4127,-4.3823,-4.329,-4.329,-4.2684,-4.1988,-4.2941,-4.2044,-4.0546,-4.1337,-4.0958,-4.0145,-4.0145,-4.0029,-3.9711,-3.8903,-3.8635,-3.859,-3.8424,-3.7678,-3.6896,-3.6709,-3.6534,-3.6405,-3.6405,-3.6405,-3.6405,-3.6405,-3.6405,-3.638,-3.6304,-3.5855,-3.5445,-3.527,-3.4512,-3.3872,0.0,0.0,-3.3124,-3.3124,-3.3124,-3.3124,-3.3124,-3.3124,-3.3124,-3.3124,-3.3124,-3.3124,-3.3124,-3.3124,-3.3124,-3.3124,-3.3124,-3.3307,-3.3771,-3.3771,-3.401,-3.4462,-3.4562,-3.46,-3.46,-3.46,-3.46,-3.4562,-3.401,-3.3771,-3.3734,-3.3269,-3.3124,-3.3124,-3.3124,-3.3124,-3.3124,-3.3124,-3.3124,-3.3144,-4.7309,-4.7309,-4.7309,-4.7309,-4.7309,-4.7309,-4.7309,-4.7309,-4.7309,-4.7309,-4.7309,-4.7309,-4.7309,-4.7309,-4.7309,-4.7309,-4.7309,-4.7309,-4.7309,-4.7309,-4.7309,-4.7309,-4.7309,-4.7309,-4.7309,-4.7309,-4.7309,-4.7309,-4.7309,-4.7309,-4.7294,-4.6995,-4.686,-4.683,-4.6157,-4.5843,-4.5813,-4.5454,-4.5125,-4.4799,-4.4076,-4.3634,-4.3272,-4.2595,-4.198,-4.1618,-4.2152,-4.1676,-4.0708,-4.0274,-3.9823,-3.9289,-3.9011,-3.8527,-3.8043,-3.8075,-3.7678,-3.7196,-3.7196,-3.6803,-3.6405,-3.6405,-3.6405,-3.6405,-3.6405,-3.6405,-3.6405,-3.6405,-3.6405,-3.6405,-3.6405,-3.6157,-3.5893,-3.5545,-3.5069,0.0,0.0,-3.4123,-3.396,-3.396,-3.396,-3.396,-3.396,-3.396,-3.396,-3.396,-3.396,-3.396,-3.396,-3.396,-3.396,-3.396,-3.3671,-3.3784,-3.4336,-3.4349,-3.4474,-3.468,-3.4981,-3.5119,-3.5119,-3.5119,-3.5119,-3.5094,-3.4575,-3.4349,-3.4324,-3.406,-3.396,-3.396,-3.396,-3.396,-3.396,-3.396,-3.396,-3.3997,-4.7309,-4.7309,-4.7309,-4.7309,-4.7309,-4.7309,-4.7309,-4.7309,-4.7309,-4.7309,-4.7309,-4.7309,-4.7309,-4.7309,-4.7309,-4.7309,-4.7309,-4.7309,-4.7309,-4.7309,-4.7309,-4.7309,-4.7309,-4.7309,-4.7309,-4.7309,-4.7309,-4.7309,-4.7309,-4.7309,-4.7309,-4.7309,-4.7164,-4.6858,-4.631,-4.5943,-4.5624,-4.5109,-4.4801,-4.4568,-4.3558,-4.3106,-4.2832,-4.1879,-4.1334,-4.1164,-4.1379,-4.115,-4.0541,-3.9462,-3.8909,-3.8582,-3.8056,-3.7309,-3.6745,-3.75,-3.7103,-3.6405,-3.6405,-3.6405,-3.6405,-3.6405,-3.6405,-3.6405,-3.6405,-3.6405,-3.6405,-3.6405,-3.6405,-3.6405,-3.6405,-3.6405,-3.6267,-3.5805,0.0,0.0,0.0,-3.4756,-3.468,-3.468,-3.468,-3.468,-3.468,-3.468,-3.468,-3.468,-3.468,-3.468,-3.468,-3.468,-3.4776,-3.4868,-3.4374,-3.4349,-3.4868,-3.4868,-3.4977,-3.5115,-3.5529,-3.5683,-3.5683,-3.5683,-3.5683,-3.5658,-3.5107,-3.4868,-3.4856,-3.4731,-3.468,-3.468,-3.468,-3.468,-3.468,-3.468,-3.468,-3.4738,-4.7309,-4.7309,-4.7309,-4.7309,-4.7309,-4.7309,-4.7309,-4.7309,-4.7309,-4.7309,-4.7309,-4.7309,-4.7309,-4.7309,-4.7309,-4.7309,-4.7309,-4.7309,-4.7309,-4.7309,-4.7309,-4.7309,-4.7309,-4.7309,-4.7309,-4.7309,-4.7309,-4.7309,-4.7309,-4.7309,-4.7309,-4.7309,-4.6682,-4.5539,-4.5496,-4.4815,-4.3718,-4.3662,-4.3268,-4.2722,-4.2629,-4.2178,-4.1653,-4.1562,-4.0841,-4.0052,-4.1118,-4.0106,-3.842,-3.9407,-3.8975,-3.7986,-3.7432,-3.722,-3.7071,-3.665,-3.6452,-3.6405,-3.6405,-3.6405,-3.6405,-3.6405,-3.6405,-3.6405,-3.6405,-3.6405,-3.6405,-3.6405,-3.6405,-3.6405,-3.6405,-3.6405,-3.6405,-3.6355,0.0,0.0,-3.5445,-3.4994,-3.468,-3.468,-3.468,-3.468,-3.468,-3.468,-3.468,-3.468,-3.468,-3.468,-3.468,-3.468,-3.4906,-3.542,-3.4906,-3.4881,-3.5433,-3.5445,-3.5742,-3.6292,-3.6329,-3.6342,-3.6342,-3.6342,-3.6342,-3.6317,-3.5717,-3.5445,-3.5395,-3.4893,-3.468,-3.468,-3.468,-3.468,-3.468,-3.468,-3.468,-3.4756,-4.7309,-4.7309,-4.7429,-4.7848,-4.7923,-4.8057,-4.8461,-4.8521,-4.8521,-4.8521,-4.8521,-4.8521,-4.8521,-4.8162,-4.7614,-4.6796,-4.6341,-4.5779,-4.5024,-4.4918,-4.5644,-4.7207,-4.7309,-4.7309,-4.7309,-4.6535,-4.6107,-4.6107,-4.5358,-4.4918,-4.4918,-4.4918,-4.4688,-4.421,-4.421,-4.3929,-4.3504,-4.3504,-4.3365,-4.3064,-4.2268,-4.1796,-4.1499,-4.0687,-4.0098,-3.9762,-4.0234,-3.9799,-3.9045,-3.918,-3.8929,-3.8442,-3.7877,-3.7462,-3.7073,-3.6568,-3.6405,-3.6405,-3.6405,-3.6405,-3.6405,-3.6405,-3.6405,-3.6405,-3.6405,-3.6405,-3.6405,-3.6405,-3.6405,-3.6405,-3.6405,-3.6405,-3.6405,-3.6405,0.0,-3.6056,-3.6056,-3.5868,-3.5742,-3.5742,-3.5742,-3.5742,-3.5742,-3.5742,-3.5742,-3.5742,-3.5742,-3.5742,-3.5742,-3.5742,-3.5843,-3.6044,-3.5843,-3.5843,-3.6056,-3.6056,-3.6157,-3.6405,-3.6405,-3.6405,-3.6405,-3.6405,-3.6405,-3.6405,-3.6144,-3.6056,-3.6031,-3.5818,-3.5742,-3.5742,-3.5742,-3.5742,-3.5742,-3.5742,-3.5742,-3.5768,-4.7923,-4.7923,-4.8057,-4.8521,-4.8253,-4.8252,-4.9149,-4.8922,-4.8816,-4.9254,-4.9314,-4.9314,-4.9314,-4.8461,-4.7533,-4.6492,-4.5567,-4.4607,-4.3565,-4.3504,-4.4256,-4.6018,-4.6107,-4.6107,-4.6107,-4.5252,-4.478,-4.478,-4.3929,-4.3504,-4.3504,-4.3504,-4.3313,-4.2882,-4.2882,-4.2689,-4.2315,-4.2315,-4.2315,-4.2217,-4.1369,-4.0982,-4.0882,-4.0032,-3.9697,-3.9697,-3.9697,-3.9697,-3.9634,-3.9258,-3.9132,-3.9032,-3.8467,-3.7776,-3.7111,-3.6782,-3.6543,-3.6405,-3.6405,-3.6405,-3.6405,-3.6405,-3.6405,-3.6405,-3.6405,-3.6405,-3.6405,-3.6405,-3.6405,-3.6405,-3.6405,-3.6405,-3.6405,-3.6405,-3.6405,-3.6405,-3.6405,-3.6405,-3.6405,-3.6405,-3.6405,-3.6405,-3.6405,-3.6405,-3.6405,-3.6405,-3.6405,-3.6405,-3.6405,-3.6405,-3.6405,-3.6405,-3.6405,-3.6405,-3.6405,-3.6405,-3.6405,-3.6405,-3.6405,-3.6405,-3.6405,-3.6405,-3.6405,-3.6405,-3.6405,-3.6405,-3.6405,-3.6405,-3.6405,-3.6405,-3.6405,-3.6405,-3.6405,-3.6405,-3.6405,-3.6405,-4.9314,-4.9314,-4.9314,-4.9269,-4.8129,-4.768,-4.9088,-4.8082,-4.7695,-4.9088,-4.9284,-4.9284,-4.9284,-4.8036,-4.6983,-4.6411,-4.5088,-4.4042,-4.3497,-4.3456,-4.3456,-4.3456,-4.3504,-4.3504,-4.3504,-4.3504,-4.3504,-4.3504,-4.3504,-4.3456,-4.3456,-4.3456,-4.2786,-4.1604,-4.1604,-4.0882,-3.9697,-3.9697,-3.9697,-3.9697,-3.9697,-3.9697,-3.9697,-3.9697,-3.9697,-3.9697,-3.9697,-3.9697,-3.9697,-3.9697,-3.9697,-3.9597,-3.9095,-3.8103,-3.7199,-3.7186,-3.6845,-3.6417,-3.6405,-3.6405,-3.6405,-3.6405,-3.6405,-3.6405,-3.6405,-3.6405,-3.6405,-3.6405,-3.6405,-3.6405,-3.6405,-3.6405,-3.6405,-3.6405,-3.6405,-3.6405,-3.6405,-3.6405,-3.6405,-3.6405,-3.6405,-3.6405,-3.6405,-3.6405,-3.6405,-3.6405,-3.6405,-3.6405,-3.6405,-3.6405,-3.6405,-3.6405,-3.6405,-3.6405,-3.6405,-3.6405,-3.6405,-3.6405,-3.6405,-3.6405,-3.6405,-3.6405,-3.6405,-3.6405,-3.6405,-3.6405,-3.6405,-3.6405,-3.6405,-3.6405,-3.6405,-3.6405,-3.6405,-3.6405,-3.6405,-3.6405,-4.8021,-4.8619,-4.9162,-4.862,-4.8191,-4.8192,-4.9087,-4.8033,-4.7275,-4.7674,-4.7787,-4.7787,-4.7787,-4.6946,-4.6001,-4.4932,-4.3721,-4.2362,-4.092,-4.0844,-4.0844,-4.0844,-4.2544,-4.3504,-4.3504,-4.2593,-4.2168,-4.2168,-4.1269,-4.0844,-4.0844,-4.0844,-4.0655,-4.0262,-4.0262,-4.0083,-3.9697,-3.9697,-3.9697,-3.9697,-3.9697,-3.9697,-3.9697,-3.9697,-3.9697,-3.9697,-3.9697,-3.9697,-3.9697,-3.9697,-3.9697,-3.9597,-3.9095,-3.8693,-3.8265,-3.7412,-3.7073,-3.6908,-3.6518,-3.6405,-3.6405,-3.6405,-3.6405,-3.6405,-3.6405,-3.6405,-3.6405,-3.6405,-3.6405,-3.6405,-3.6405,-3.6405,-3.6405,-3.6405,-3.6405,-3.6405,-3.6405,-3.6405,-3.6405,-3.6405,-3.6405,-3.6405,-3.6405,-3.6405,-3.6405,-3.6405,-3.6405,-3.6405,-3.6405,-3.6405,-3.6405,-3.6405,-3.6405,-3.6405,-3.6405,-3.6405,-3.6405,-3.6405,-3.6405,-3.6405,-3.6405,-3.6405,-3.6405,-3.6405,-3.6405,-3.6405,-3.6405,-3.6405,-3.6405,-3.6405,-3.6405,-3.6405,-3.6405,-3.6405,-3.6405,-3.6405,-4.7415,-4.7865,-4.8283,-4.7864,-4.7311,-4.7237,-4.8218,-4.7146,-4.6487,-4.7043,-4.7094,-4.7094,-4.7094,-4.6264,-4.5292,-4.4309,-4.2632,-4.1196,-4.0088,-3.9823,-3.9697,-3.9697,-4.1169,-4.1985,-4.1985,-4.1219,-4.0844,-4.0844,-4.007,-3.9697,-3.9697,-3.9697,-3.9697,-3.9697,-3.9697,-3.9697,-3.9697,-3.9697,-3.9697,-3.9697,-3.9697,-3.9697,-3.9697,-3.9697,-3.9697,-3.9697,-3.9697,-3.9697,-3.9697,-3.9697,-3.9697,-3.9634,-3.9295,-3.9095,-3.8781,-3.8052,-3.7538,-3.7111,-3.6772,-3.6568,-3.6405,-3.6405,-3.6405,-3.6405,-3.6405,-3.6405,-3.6405,-3.6405,-3.6405,-3.6405,-3.6405,-3.6405,-3.6405,-3.6405,-3.6405,-3.6405,-3.6405,-3.6405,-3.6405,-3.6405,-3.6405,-3.6405,-3.6405,-3.6405,-3.6405,-3.6405,-3.6405,-3.6405,-3.6405,-3.6405,-3.6405,-3.6405,-3.6405,-3.6405,-3.6405,-3.6405,-3.6405,-3.6405,-3.6405,-3.6405,-3.6405,-3.6405,-3.6405,-3.6405,-3.6405,-3.6405,-3.6405,-3.6405,-3.6405,-3.6405,-3.6405,-3.6405,-3.6405,-3.6405,-3.6405,-3.6405,-4.7197,-4.6991,-4.7043,-4.694,-4.5872,-4.5462,-4.6747,-4.5714,-4.5302,-4.6591,-4.6747,-4.6747,-4.6747,-4.5608,-4.4623,-4.4151,-4.1961,-4.0639,-4.0588,-4.0074,-3.9772,-3.9772,-3.9722,-3.9697,-3.9697,-3.9697,-3.9697,-3.9697,-3.9697,-3.9697,-3.9697,-3.9697,-3.9697,-3.9697,-3.9697,-3.9697,-3.9697,-3.9697,-3.9697,-3.9697,-3.9697,-3.9697,-3.9697,-3.9697,-3.9697,-3.9697,-3.9697,-3.9697,-3.9697,-3.9697,-3.9697,-3.9697,-3.9697,-3.9346,-3.8931,-3.8881,-3.814,-3.7324,-3.7274,-3.6908,-3.648,-3.648,-3.6443,-3.6405,-3.6405,-3.6405,-3.6405,-3.6405,-3.6405,-3.6405,-3.6405,-3.6405,-3.6405,-3.6405,-3.6405,-3.6405,-3.6405,-3.6405,-3.6405,-3.6405,-3.6405,-3.6405,-3.6405,-3.6405,-3.6405,-3.6405,-3.6405,-3.6405,-3.6405,-3.6405,-3.6405,-3.6405,-3.6405,-3.6405,-3.6405,-3.6405,-3.6405,-3.6405,-3.6405,-3.6405,-3.6405,-3.6405,-3.6405,-3.6405,-3.6405,-3.6405,-3.6405,-3.6405,-3.6405,-3.6405,-3.6405,-3.6405,-3.6405,-3.6405,-3.6405,-3.6405,-4.5714,-4.6331,-4.6733,-4.5661,-4.5195,-4.5088,-4.5409,-4.4318,-4.3547,-4.3865,-4.3907,-4.3907,-4.3907,-4.3602,-4.3398,-4.3271,-4.2389,-4.1618,-4.1137,-4.0651,-4.0337,-4.0337,-3.9923,-3.9697,-3.9697,-3.9697,-3.9697,-3.9697,-3.9697,-3.9697,-3.9697,-3.9697,-3.9697,-3.9697,-3.9697,-3.9697,-3.9697,-3.9697,-3.9697,-3.9697,-3.9697,-3.9697,-3.9697,-3.9697,-3.9697,-3.9697,-3.9697,-3.9697,-3.9697,-3.9697,-3.9697,-3.9697,-3.9697,-3.9609,-3.9433,-3.9045,-3.8743,-3.8404,-3.7952,-3.7425,-3.7059,-3.7059,-3.6732,-3.6405,-3.6405,-3.6405,-3.6405,-3.6405,-3.6405,-3.6405,-3.6405,-3.6405,-3.6405,-3.6405,-3.6405,-3.6405,-3.6405,-3.6405,-3.6405,-3.6405,-3.6405,-3.6405,-3.6405,-3.6405,-3.6405,-3.6405,-3.6405,-3.6405,-3.6405,-3.6405,-3.6405,-3.6405,-3.6405,-3.6405,-3.6405,-3.6405,-3.6405,-3.6405,-3.6405,-3.6405,-3.6405,-3.6405,-3.6405,-3.6405,-3.6405,-3.6405,-3.6405,-3.6405,-3.6405,-3.6405,-3.6405,-3.6405,-3.6405,-3.6405,-3.6405,-3.6405,-4.4318,-4.463,-4.4887,-4.4167,-4.4071,-4.4071,-4.4071,-4.3449,-4.2974,-4.2974,-4.2974,-4.2974,-4.2974,-4.2974,-4.2974,-4.2974,-4.2527,-4.2087,-4.1743,-4.1216,-4.0862,-4.0862,-4.0626,-4.035,-4.0086,-4.0086,-3.9961,-3.9697,-3.9697,-3.9697,-3.9697,-3.9697,-3.9697,-3.9697,-3.9697,-3.9697,-3.9697,-3.9697,-3.9697,-3.9697,-3.9697,-3.9697,-3.9697,-3.9697,-3.9697,-3.9697,-3.9697,-3.9697,-3.9697,-3.9697,-3.9697,-3.9697,-3.9697,-3.9697,-3.9634,-3.9346,-3.9082,-3.8856,-3.8504,-3.8002,-3.7513,-3.7249,-3.6973,-3.6732,-3.6468,-3.6405,-3.6405,-3.6405,-3.6405,-3.6405,-3.6405,-3.6405,-3.6405,-3.6405,-3.6405,-3.6405,-3.6405,-3.6405,-3.6405,-3.6405,-3.6405,-3.6405,-3.6405,-3.6405,-3.6405,-3.6405,-3.6405,-3.6405,-3.6405,-3.6405,-3.6405,-3.6405,-3.6405,-3.6405,-3.6405,-3.6405,-3.6405,-3.6405,-3.6405,-3.6405,-3.6405,-3.6405,-3.6405,-3.6405,-3.6405,-3.6405,-3.6405,-3.6405,-3.6405,-3.6405,-3.6405,-3.6405,-3.6405,-3.6405,-3.6405,-3.6405,-4.324,-4.2974,-4.2974,-4.2974,-4.2974,-4.2974,-4.2974,-4.2974,-4.2974,-4.2974,-4.2974,-4.2974,-4.2974,-4.2974,-4.2974,-4.2974,-4.2615,-4.2351,-4.2351,-4.1781,-4.148,-4.148,-4.1338,-4.1075,-4.0664,-4.0664,-4.0337,-3.9697,-3.9697,-3.9697,-3.9697,-3.9697,-3.9697,-3.9697,-3.9697,-3.9697,-3.9697,-3.9697,-3.9697,-3.9697,-3.9697,-3.9697,-3.9697,-3.9697,-3.9697,-3.9697,-3.9697,-3.9697,-3.9697,-3.9697,-3.9697,-3.9697,-3.9697,-3.9697,-3.9697,-3.9697,-3.9371,-3.9057,-3.9057,-3.8592,-3.8052,-3.7588,-3.74,-3.7186,-3.6669,-3.648,-3.6405,-3.6405,-3.6405,-3.6405,-3.6405,-3.6405,-3.6405,-3.6405,-3.6405,-3.6405,-3.6405,-3.6405,-3.6405,-3.6405,-3.6405,-3.6405,-3.6405,-3.6405,-3.6405,-3.6405,-3.6405,-3.6405,-3.6405,-3.6405,-3.6405,-3.6405,-3.6405,-3.6405,-3.6405,-3.6405,-3.6405,-3.6405,-3.6405,-3.6405,-3.6405,-3.6405,-3.6405,-3.6405,-3.6405,-3.6405,-3.6405,-3.6405,-3.6405,-3.6405,-3.6405,-3.6405,-3.6405,-3.6405,-3.6405,-3.6405,-4.303,-4.2974,-4.2974,-4.2974,-4.2974,-4.2974,-4.2974,-4.2974,-4.2974,-4.2974,-4.2974,-4.2974,-4.2974,-4.2974,-4.2974,-4.2974,-4.2911,-4.2861,-4.2861,-4.2401,-4.2099,-4.2099,-4.1593,-4.125,-4.1175,-4.1175,-4.0727,-3.9697,-3.9697,-3.9697,-3.9697,-3.9697,-3.9697,-3.9697,-3.9697,-3.9697,-3.9697,-3.9697,-3.9697,-3.9697,-3.9697,-3.9697,-3.9697,-3.9697,-3.9697,-3.9697,-3.9697,-3.9697,-3.9697,-3.9697,-3.9697,-3.9697,-3.9697,-3.9697,-3.9697,-3.9697,-3.9647,-3.9584,-3.9584,-3.9182,-3.8781,-3.8705,-3.8266,-3.7751,-3.7199,-3.6757,-3.6405,-3.6405,-3.6405,-3.6405,-3.6405,-3.6405,-3.6405,-3.6405,-3.6405,-3.6405,-3.6405,-3.6405,-3.6405,-3.6405,-3.6405,-3.6405,-3.6405,-3.6405,-3.6405,-3.6405,-3.6405,-3.6405,-3.6405,-3.6405,-3.6405,-3.6405,-3.6405,-3.6405,-3.6405,-3.6405,-3.6405,-3.6405,-3.6405,-3.6405,-3.6405,-3.6405,-3.6405,-3.6405,-3.6405,-3.6405,-3.6405,-3.6405,-3.6405,-3.6405,-3.6405,-3.6405,-3.6405,-3.6405,-3.6405,-3.6405,-4.2974,-4.2974,-4.2974,-4.2974,-4.2974,-4.2974,-4.2974,-4.2974,-4.2974,-4.2974,-4.2974,-4.2974,-4.2974,-4.2974,-4.2974,-4.2974,-4.2974,-4.2974,-4.2974,-4.2803,-4.2678,-4.2678,-4.2384,-4.2108,-4.1806,-4.1794,-4.1404,-4.0614,-4.03,-3.9998,-3.9697,-3.9697,-3.9697,-3.9697,-3.9697,-3.9697,-3.9697,-3.9697,-3.9697,-3.9697,-3.9697,-3.9697,-3.9697,-3.9697,-3.9697,-3.9697,-3.9697,-3.9697,-3.9697,-3.9697,-3.9697,-3.9697,-3.9697,-3.9697,-3.9697,-3.9697,-3.9697,-3.9697,-3.9697,-3.9521,-3.9258,-3.8994,-3.868,-3.8341,-3.7776,-3.745,-3.7098,-3.6531,-3.6405,-3.6405,-3.6405,-3.6405,-3.6405,-3.6405,-3.6405,-3.6405,-3.6405,-3.6405,-3.6405,-3.6405,-3.6405,-3.6405,-3.6405,-3.6405,-3.6405,-3.6405,-3.6405,-3.6405,-3.6405,-3.6405,-3.6405,-3.6405,-3.6405,-3.6405,-3.6405,-3.6405,-3.6405,-3.6405,-3.6405,-3.6405,-3.6405,-3.6405,-3.6405,-3.6405,-3.6405,-3.6405,-3.6405,-3.6405,-3.6405,-3.6405,-3.6405,-3.6405,-3.6405,-3.6405,-3.5918,-3.5271]},{"header":{"parameterUnit":"m.s-1","parameterCategory":1,"la1":30.6,"la2":28.766,"lo1":-90.7593,"lo2":-88.6598,"dy":0.0162,"dx":0.0183,"nx":116,"ny":114,"refTime":"2024-04-09T18:00:00:Z","depth":0,"parameterNumber":3,"parameterNumberName":"V-component_of_WINDS"},"data":[0.0,0.0,0.0,0.0,0.0,0.0,0.0,0.0,0.0,0.0,0.0,0.0,0.0,0.0,0.0,0.0,0.0,0.0,0.0,0.0,0.0,0.0,0.0,0.0,0.0,0.0,0.0,0.0,0.0,0.0,0.0,0.0,0.0,0.0,0.0,0.0,0.0,0.0,0.0,0.0,0.0,0.0,0.0,0.0,0.0,0.0,0.0,0.0,0.0,0.0,0.0,0.0,0.0,0.0,0.0,0.0,0.0,0.0,0.0,0.0,0.0,0.0,0.0,0.0,0.0,0.0,0.0,0.0,0.0,0.0,0.0,0.0,0.0,0.0,0.0,0.0,0.0,0.0,0.0,0.0,0.0,0.0,0.0,0.0,0.0,0.0,0.0,0.0,0.0,0.0,0.0,0.0,0.0,0.0,0.0,0.0,0.0,0.0,0.0,0.0,0.0,0.0,0.0,0.0,0.0,0.0,0.0,0.0,0.0,0.0,0.0,0.0,0.0,0.0,0.0,0.0,0.0,0.0,0.0,0.0,0.0,0.0,0.0,0.0,0.0,0.0,0.0,0.0,0.0,0.0,0.0,0.0,0.0,0.0,0.0,0.0,0.0,0.0,0.0,0.0,0.0,0.0,0.0,0.0,0.0,0.0,0.0,0.0,0.0,0.0,0.0,0.0,0.0,0.0,0.0,0.0,0.0,0.0,0.0,0.0,0.0,0.0,0.0,0.0,0.0,0.0,0.0,0.0,0.0,0.0,0.0,0.0,0.0,0.0,0.0,0.0,0.0,0.0,0.0,0.0,0.0,0.0,0.0,0.0,0.0,0.0,0.0,0.0,0.0,0.0,0.0,0.0,0.0,0.0,0.0,0.0,0.0,0.0,0.0,0.0,0.0,0.0,0.0,0.0,0.0,0.0,0.0,0.0,0.0,0.0,0.0,0.0,0.0,0.0,0.0,0.0,0.0,0.0,0.0,0.0,0.0,0.0,0.0,0.0,0.0,0.0,0.0,0.0,0.0,0.0,0.0,0.0,0.0,0.0,0.0,0.0,0.0,0.0,0.0,0.0,0.0,0.0,0.0,0.0,0.0,0.0,0.0,0.0,0.0,0.0,0.0,0.0,0.0,0.0,0.0,0.0,0.0,0.0,0.0,0.0,0.0,0.0,0.0,0.0,0.0,0.0,0.0,0.0,0.0,0.0,0.0,0.0,0.0,0.0,0.0,0.0,0.0,0.0,0.0,0.0,0.0,0.0,0.0,0.0,0.0,0.0,0.0,0.0,0.0,0.0,0.0,0.0,0.0,0.0,0.0,0.0,0.0,0.0,0.0,0.0,0.0,0.0,0.0,0.0,0.0,0.0,0.0,0.0,0.0,0.0,0.0,0.0,0.0,0.0,0.0,0.0,0.0,0.0,0.0,0.0,0.0,0.0,0.0,0.0,0.0,0.0,0.0,0.0,0.0,0.0,0.0,0.0,0.0,0.0,0.0,0.0,0.0,0.0,0.0,0.0,0.0,0.0,0.0,0.0,0.0,0.0,0.0,0.0,0.0,0.0,0.0,0.0,0.0,0.0,0.0,0.0,0.0,0.0,0.0,0.0,0.0,0.0,0.0,0.0,0.0,0.0,0.0,0.0,0.0,0.0,0.0,0.0,0.0,0.0,0.0,0.0,0.0,0.0,0.0,0.0,0.0,0.0,0.0,0.0,0.0,0.0,0.0,0.0,0.0,0.0,0.0,0.0,0.0,0.0,0.0,0.0,0.0,0.0,0.0,0.0,0.0,0.0,0.0,0.0,0.0,0.0,0.0,0.0,0.0,0.0,0.0,0.0,0.0,0.0,0.0,0.0,0.0,0.0,0.0,0.0,0.0,0.0,0.0,0.0,0.0,0.0,0.0,0.0,0.0,0.0,0.0,0.0,0.0,0.0,0.0,0.0,0.0,0.0,0.0,0.0,0.0,0.0,0.0,0.0,0.0,0.0,0.0,0.0,0.0,0.0,0.0,0.0,0.0,0.0,0.0,0.0,0.0,0.0,0.0,0.0,0.0,0.0,0.0,0.0,0.0,0.0,0.0,0.0,0.0,0.0,0.0,0.0,0.0,0.0,0.0,0.0,0.0,0.0,0.0,0.0,0.0,0.0,0.0,0.0,0.0,0.0,0.0,0.0,0.0,0.0,0.0,0.0,0.0,0.0,0.0,0.0,0.0,0.0,0.0,0.0,0.0,0.0,0.0,0.0,0.0,0.0,0.0,0.0,0.0,0.0,0.0,0.0,0.0,0.0,0.0,0.0,0.0,0.0,0.0,0.0,0.0,0.0,0.0,0.0,0.0,0.0,0.0,0.0,0.0,0.0,0.0,0.0,0.0,0.0,0.0,0.0,0.0,0.0,0.0,0.0,0.0,0.0,0.0,0.0,0.0,0.0,0.0,0.0,0.0,0.0,0.0,0.0,0.0,0.0,0.0,0.0,0.0,0.0,0.0,0.0,0.0,0.0,0.0,0.0,0.0,0.0,0.0,0.0,0.0,0.0,0.0,0.0,0.0,0.0,0.0,0.0,0.0,0.0,0.0,0.0,0.0,0.0,0.0,0.0,0.0,0.0,0.0,0.0,0.0,0.0,0.0,0.0,0.0,0.0,0.0,0.0,0.0,0.0,0.0,0.0,0.0,0.0,0.0,0.0,0.0,0.0,0.0,0.0,0.0,0.0,0.0,0.0,0.0,0.0,0.0,0.0,0.0,0.0,0.0,0.0,0.0,0.0,0.0,0.0,0.0,0.0,0.0,0.0,0.0,0.0,0.0,0.0,0.0,0.0,0.0,0.0,0.0,0.0,0.0,0.0,0.0,0.0,0.0,0.0,0.0,0.0,0.0,0.0,0.0,0.0,0.0,0.0,0.0,0.0,0.0,0.0,0.0,0.0,0.0,0.0,0.0,0.0,0.0,0.0,0.0,0.0,0.0,0.0,0.0,0.0,0.0,0.0,0.0,0.0,0.0,0.0,0.0,0.0,0.0,0.0,0.0,0.0,0.0,0.0,0.0,0.0,0.0,0.0,0.0,0.0,0.0,0.0,0.0,0.0,0.0,0.0,0.0,0.0,0.0,0.0,0.0,0.0,0.0,0.0,0.0,0.0,0.0,0.0,0.0,0.0,0.0,0.0,0.0,0.0,0.0,0.0,0.0,0.0,0.0,0.0,0.0,0.0,0.0,0.0,0.0,0.0,0.0,0.0,0.0,0.0,0.0,0.0,0.0,0.0,0.0,0.0,0.0,0.0,0.0,0.0,0.0,0.0,0.0,0.0,0.0,0.0,0.0,0.0,0.0,0.0,0.0,0.0,0.0,0.0,0.0,0.0,0.0,0.0,0.0,0.0,0.0,0.0,0.0,0.0,0.0,0.0,0.0,0.0,0.0,0.0,0.0,0.0,0.0,0.0,0.0,0.0,0.0,0.0,0.0,0.0,0.0,0.0,0.0,0.0,0.0,0.0,0.0,0.0,0.0,0.0,0.0,0.0,0.0,0.0,0.0,0.0,0.0,0.0,0.0,0.0,0.0,0.0,0.0,0.0,0.0,0.0,0.0,0.0,0.0,0.0,0.0,0.0,0.0,0.0,0.0,0.0,0.0,0.0,0.0,0.0,0.0,0.0,0.0,0.0,0.0,0.0,0.0,0.0,0.0,0.0,0.0,0.0,0.0,0.0,0.0,0.0,0.0,0.0,0.0,0.0,0.0,0.0,0.0,0.0,0.0,0.0,0.0,0.0,0.0,0.0,0.0,0.0,0.0,0.0,0.0,0.0,0.0,0.0,0.0,0.0,0.0,0.0,0.0,0.0,0.0,0.0,0.0,0.0,0.0,0.0,0.0,0.0,0.0,0.0,0.0,0.0,0.0,0.0,0.0,0.0,0.0,0.0,0.0,0.0,0.0,0.0,0.0,0.0,0.0,0.0,0.0,0.0,0.0,0.0,0.0,0.0,0.0,0.0,0.0,0.0,0.0,0.0,0.0,0.0,0.0,0.0,0.0,0.0,0.0,0.0,0.0,0.0,0.0,0.0,0.0,0.0,0.0,0.0,0.0,0.0,0.0,0.0,0.0,0.0,0.0,0.0,0.0,0.0,0.0,0.0,0.0,0.0,0.0,0.0,0.0,0.0,0.0,0.0,0.0,0.0,0.0,0.0,0.0,0.0,0.0,0.0,0.0,0.0,0.0,0.0,0.0,0.0,0.0,0.0,0.0,0.0,0.0,0.0,0.0,0.0,0.0,0.0,0.0,0.0,0.0,0.0,0.0,0.0,0.0,0.0,0.0,0.0,0.0,0.0,0.0,0.0,0.0,0.0,0.0,0.0,0.0,0.0,0.0,0.0,0.0,0.0,0.0,0.0,0.0,0.0,0.0,0.0,0.0,0.0,0.0,0.0,0.0,0.0,0.0,0.0,0.0,0.0,0.0,0.0,0.0,0.0,0.0,0.0,0.0,0.0,0.0,0.0,0.0,0.0,0.0,0.0,0.0,0.0,0.0,0.0,0.0,0.0,0.0,0.0,0.0,0.0,0.0,0.0,0.0,0.0,0.0,0.0,0.0,0.0,0.0,0.0,0.0,0.0,0.0,0.0,0.0,0.0,0.0,0.0,0.0,0.0,0.0,0.0,0.0,0.0,0.0,0.0,0.0,0.0,0.0,0.0,0.0,0.0,0.0,0.0,0.0,0.0,0.0,0.0,0.0,0.0,0.0,0.0,0.0,0.0,0.0,0.0,0.0,0.0,0.0,0.0,0.0,0.0,0.0,0.0,0.0,0.0,0.0,0.0,0.0,0.0,0.0,0.0,0.0,0.0,0.0,0.0,0.0,0.0,0.0,0.0,0.0,0.0,0.0,0.0,0.0,0.0,0.0,0.0,0.0,0.0,0.0,0.0,0.0,0.0,0.0,0.0,0.0,0.0,0.0,0.0,0.0,0.0,0.0,0.0,0.0,0.0,0.0,0.0,0.0,0.0,0.0,0.0,0.0,0.0,0.0,0.0,0.0,0.0,0.0,0.0,0.0,0.0,0.0,0.0,0.0,0.0,0.0,0.0,0.0,0.0,0.0,0.0,0.0,0.0,0.0,0.0,0.0,0.0,0.0,0.0,0.0,0.0,0.0,0.0,0.0,0.0,0.0,0.0,0.0,0.0,0.0,0.0,0.0,0.0,0.0,0.0,0.0,0.0,0.0,0.0,0.0,0.0,0.0,0.0,0.0,0.0,0.0,0.0,0.0,0.0,0.0,0.0,0.0,0.0,0.0,0.0,0.0,0.0,0.0,0.0,0.0,0.0,0.0,0.0,0.0,0.0,0.0,0.0,0.0,0.0,0.0,0.0,0.0,0.0,0.0,0.0,0.0,0.0,0.0,0.0,0.0,0.0,0.0,0.0,0.0,0.0,0.0,0.0,0.0,0.0,0.0,0.0,0.0,0.0,0.0,0.0,0.0,0.0,0.0,0.0,0.0,0.0,0.0,0.0,0.0,0.0,0.0,0.0,0.0,0.0,0.0,0.0,0.0,0.0,0.0,0.0,0.0,0.0,0.0,0.0,0.0,0.0,0.0,0.0,0.0,0.0,0.0,0.0,0.0,0.0,0.0,0.0,0.0,0.0,0.0,0.0,0.0,0.0,0.0,0.0,0.0,0.0,0.0,0.0,0.0,0.0,0.0,0.0,0.0,0.0,0.0,0.0,0.0,0.0,0.0,0.0,0.0,0.0,0.0,0.0,0.0,0.0,0.0,0.0,0.0,0.0,0.0,0.0,0.0,0.0,0.0,0.0,0.0,0.0,0.0,0.0,0.0,0.0,0.0,0.0,0.0,0.0,0.0,0.0,0.0,0.0,0.0,0.0,0.0,0.0,0.0,0.0,0.0,0.0,0.0,0.0,0.0,0.0,0.0,0.0,0.0,0.0,0.0,0.0,0.0,0.0,0.0,0.0,0.0,0.0,0.0,0.0,0.0,0.0,0.0,0.0,0.0,0.0,0.0,0.0,0.0,0.0,0.0,0.0,0.0,0.0,0.0,0.0,0.0,0.0,0.0,0.0,0.0,0.0,0.0,0.0,0.0,0.0,0.0,0.0,0.0,0.0,0.0,0.0,0.3346,0.0,0.0,0.0,0.0,0.0,0.0,0.0,0.0,0.0,0.0,0.0,0.0,0.0,0.0,0.0,0.0,0.0,0.0,0.0,0.0,0.0,0.0,0.0,0.0,1.4088,1.4088,1.4088,1.4088,1.4088,1.4088,1.4088,0.0,0.0,0.0,0.0,1.4088,1.4088,1.4088,1.4088,1.465,1.5171,1.5745,1.6879,1.773,1.8252,0.0,0.0,0.0,0.0,0.0,0.0,0.0,0.0,0.0,0.0,0.0,0.0,0.0,0.0,0.0,0.0,0.0,0.0,0.0,0.0,0.0,0.0,0.0,0.0,0.0,0.0,0.0,0.0,0.0,0.0,0.0,0.0,0.0,0.0,0.0,0.0,0.0,0.0,0.0,0.0,0.0,0.0,0.0,0.0,0.0,0.0,0.0,0.0,0.0,0.0,0.0,0.0,0.0,0.0,0.0,0.0,0.0,0.0,0.0,0.0,0.0,0.0,0.0,0.0,0.0,0.0,0.0,0.0,0.0,0.0,0.0,0.3086,0.0,0.0,0.0,0.0,0.0,0.0,0.0,0.0,0.0,0.0,0.0,0.0,0.0,0.0,0.0,0.0,0.0,0.0,0.0,0.0,0.0,1.4088,1.4088,1.4088,1.4088,1.4088,1.4088,1.4088,1.4088,1.4088,1.4088,1.4088,1.4088,1.4088,1.4088,1.4088,1.4088,1.4088,1.4088,1.4531,1.5421,1.5421,1.5421,1.5496,1.6723,0.0,0.0,0.0,0.0,0.0,0.0,0.0,0.0,0.0,0.0,0.0,0.0,0.0,0.0,0.0,0.0,0.0,0.0,0.0,0.0,0.0,0.0,0.0,0.0,0.0,0.0,0.0,0.0,0.0,0.0,0.0,0.0,0.0,0.0,0.0,0.0,0.0,0.0,0.0,0.0,0.0,0.0,0.0,0.0,0.0,0.0,0.0,0.0,0.0,0.0,0.0,0.0,0.0,0.0,0.0,0.0,0.0,0.0,0.0,0.0,0.0,0.0,0.0,0.0,0.0,0.6702,0.6702,0.6702,0.6602,0.4581,0.411,0.4705,0.0,0.0,0.0,0.0,0.0,0.0,0.0,0.0,0.0,0.0,0.0,0.0,0.0,0.0,0.0,0.0,0.0,0.0,0.0,0.0,1.4088,1.4088,1.4088,1.4088,1.4088,1.4088,1.4088,1.4088,1.4088,1.4088,1.4088,1.4088,1.4088,1.4088,1.4088,1.4088,1.4088,1.4088,1.4166,1.4328,1.4328,1.4328,1.4412,1.6404,1.7302,1.7302,0.0,0.0,0.0,0.0,0.0,0.0,0.0,0.0,0.0,0.0,0.0,0.0,0.0,0.0,0.0,0.0,0.0,0.0,0.0,0.0,0.0,0.0,0.0,0.0,0.0,0.0,0.0,0.0,0.0,0.0,0.0,0.0,0.0,0.0,0.0,0.0,0.0,0.0,0.0,0.0,0.0,1.172,1.1601,0.0,0.0,0.0,0.0,0.0,0.0,0.0,0.0,0.0,0.0,0.0,0.0,0.0,0.0,0.6671,0.6692,0.6702,0.6702,0.6702,0.6702,0.6702,0.6702,0.6702,0.6698,0.6366,0.0,0.5056,0.4891,0.0,0.0,0.0,0.0,0.0,0.0,0.0,0.0,0.0,0.0,0.0,0.0,0.0,0.0,0.0,0.0,0.0,0.0,0.0,0.0,0.0,1.4088,1.4088,1.4088,1.4088,1.4088,1.4088,1.4088,1.4088,1.4088,1.4242,1.4329,1.4329,1.4329,1.4329,1.4329,1.4329,1.4416,1.4626,1.4626,1.4626,1.4663,1.5598,1.5815,1.5553,1.6157,0.0,0.0,0.0,0.0,0.0,0.0,0.0,0.0,0.0,0.0,0.0,0.0,0.0,0.0,0.0,0.0,0.0,0.0,0.0,0.0,0.0,0.0,0.0,0.0,0.0,0.0,0.0,0.0,0.0,0.0,0.0,0.0,0.0,0.0,0.0,0.0,0.0,0.0,0.0,1.2759,1.2559,1.2559,1.1696,1.0882,0.0,0.0,0.0,0.0,0.0,0.0,0.0,0.0,0.0,0.6702,0.6783,0.6827,0.6827,0.6909,0.6906,0.6906,0.6906,0.6993,0.7075,0.6987,0.6993,0.7071,0.6987,0.6642,0.6193,0.6044,0.5396,0.4437,0.0,0.0,0.0,0.0,0.0,0.0,0.0,0.0,0.0,0.0,0.0,0.0,0.0,0.0,0.0,0.0,0.0,0.0,1.4088,1.4088,1.4088,1.4088,1.4088,1.4122,1.4195,1.4202,1.4235,1.4309,1.4516,1.4636,1.4636,1.4636,1.4636,1.4636,1.471,1.4856,1.5122,1.515,1.5184,1.5184,1.511,1.4794,1.4238,1.5049,1.5986,1.7009,0.0,0.0,0.0,0.0,0.0,0.0,0.0,0.0,0.0,0.0,0.0,0.0,0.0,0.0,0.0,0.0,0.0,0.0,0.0,0.0,0.0,0.0,0.0,0.0,0.0,0.0,0.0,0.0,0.0,0.0,0.0,0.0,0.0,0.0,0.0,0.0,0.0,1.3387,1.3434,1.3434,1.3179,1.2681,0.0,0.0,0.0,0.0,0.0,0.0,0.7727,0.7432,0.7331,0.7331,0.7147,0.7099,0.7099,0.7162,0.7213,0.7213,0.7213,0.7316,0.7424,0.7309,0.7322,0.7424,0.7309,0.7213,0.7189,0.6936,0.634,0.5614,0.5614,0.5131,0.0,0.4435,0.442,0.4481,0.0,0.0,0.0,0.0,0.0,0.0,0.0,0.0,0.0,0.0,0.0,1.4088,1.4088,1.4088,1.4088,1.4088,1.4088,1.4202,1.4482,1.4496,1.4623,1.4955,1.4981,1.4988,1.4988,1.4988,1.4988,1.4988,1.5217,1.5357,1.5384,1.5658,1.5738,1.5724,1.5498,1.505,1.4496,1.4539,1.5035,1.5861,1.6968,0.0,0.0,0.0,0.0,0.0,0.0,0.0,0.0,0.0,0.0,0.0,0.0,0.0,0.0,0.0,0.0,0.0,0.0,0.0,0.0,0.0,0.0,0.0,0.0,0.0,0.0,0.0,0.0,0.0,0.0,0.0,0.0,0.0,0.0,0.0,0.0,0.0,0.0,1.4041,1.3032,0.0,0.0,0.0,0.0,1.0489,1.0489,1.0446,1.0403,0.95,0.8975,0.8975,0.8075,0.7567,0.7567,0.7573,0.7577,0.7577,0.7577,0.758,0.7587,0.758,0.758,0.7587,0.758,0.7577,0.7553,0.72,0.7031,0.6983,0.6983,0.6904,0.6744,0.6744,0.6655,0.6533,0.0,0.0,0.0,0.0,0.0,1.4088,1.4088,1.4088,1.4088,1.4088,1.4088,1.4088,1.4088,1.4088,1.4088,1.4088,1.4088,1.4128,1.4235,1.4416,1.4569,1.4676,1.5044,1.5244,1.5244,1.5424,1.5518,1.5518,1.5818,1.6059,1.6239,1.6346,1.6393,1.6386,1.6286,1.6019,1.5611,1.5044,1.5264,1.601,1.6389,1.7532,0.0,0.0,0.0,0.0,0.0,0.0,0.0,0.0,0.0,0.0,0.0,0.0,0.0,0.0,0.0,0.0,0.0,0.0,0.0,0.0,0.0,0.0,0.0,0.0,0.0,0.0,0.0,0.0,0.0,0.0,0.0,0.0,0.0,0.0,0.0,0.0,0.0,1.4088,1.373,0.0,1.347,1.3082,1.263,1.204,1.2008,1.1767,1.121,1.0839,1.0241,0.9376,0.9031,0.8423,0.76,0.76,0.76,0.76,0.76,0.7648,0.7733,0.7641,0.7648,0.7729,0.7638,0.76,0.759,0.7482,0.7434,0.7428,0.7329,0.7258,0.72,0.7058,0.6987,0.694,0.0,0.0,0.0,0.0,0.0,1.4088,1.4088,1.4088,1.4088,1.4088,1.4088,1.4088,1.4088,1.4088,1.4088,1.4088,1.4088,1.4168,1.4369,1.4563,1.4756,1.4905,1.5337,1.5591,1.5691,1.5879,1.6079,1.6273,1.6573,1.6867,1.7161,1.7261,1.7308,1.7301,1.7094,1.6894,1.671,1.6394,1.6102,1.59,1.6064,1.7098,1.8614,0.0,0.0,0.0,0.0,0.0,0.0,0.0,0.0,0.0,0.0,0.0,0.0,0.0,0.0,0.0,0.0,0.0,0.0,0.0,0.0,0.0,0.0,0.0,0.0,0.0,0.0,0.0,0.0,0.0,0.0,0.0,0.0,0.0,0.0,0.0,1.4088,1.4088,1.4175,1.4229,1.4229,1.4322,1.4145,1.3604,1.3528,1.3326,1.2854,1.2483,1.1713,1.0464,1.0058,0.928,0.7896,0.7899,0.7899,0.7899,0.7899,0.7946,0.8035,0.794,0.795,0.8031,0.794,0.7899,0.7899,0.7899,0.7868,0.7801,0.7546,0.7448,0.7438,0.7333,0.725,0.725,0.0,0.0,0.0,0.0,0.0,1.4088,1.4088,1.4088,1.4088,1.4088,1.4088,1.4088,1.4088,1.4088,1.4088,1.4088,1.4095,1.4342,1.4955,1.5015,1.5237,1.5771,1.5798,1.5979,1.6328,1.6355,1.6643,1.7213,1.7514,1.7762,1.8009,1.8357,1.849,1.8464,1.7876,1.7602,1.766,1.8361,1.7469,1.5575,1.5987,1.6815,1.7904,0.0,0.0,0.0,0.0,0.0,0.0,0.0,0.0,0.0,0.0,0.0,0.0,0.0,0.0,0.0,0.0,0.0,0.0,0.0,0.0,0.0,0.0,0.0,0.0,0.0,0.0,0.0,0.0,0.0,0.0,0.0,0.0,0.0,1.4088,1.4095,1.4102,1.4102,1.4355,1.4536,1.4536,1.4803,1.5028,1.5035,1.5042,1.5176,1.5424,1.4539,1.3473,1.2319,1.1313,1.0028,0.8587,0.8535,0.8482,0.8482,0.8482,0.8482,0.8482,0.8482,0.8482,0.8482,0.8482,0.8482,0.8482,0.8482,0.8401,0.8286,0.7787,0.7611,0.7604,0.76,0.76,0.76,0.0,0.0,0.0,1.4088,1.4088,1.4088,1.4088,1.4088,1.4088,1.4088,1.4088,1.4088,1.4088,1.4088,1.4088,1.4088,1.4282,1.4469,1.4629,1.5044,1.5538,1.6126,1.6152,1.6286,1.658,1.7001,1.7301,1.7514,1.7983,1.8283,1.837,1.8457,1.849,1.8484,1.8317,1.8123,1.7889,1.7914,1.7978,1.8096,1.7585,1.7731,1.8234,0.0,0.0,0.0,0.0,0.0,0.0,0.0,0.0,0.0,0.0,0.0,0.0,0.0,0.0,0.0,0.0,0.0,0.0,0.0,0.0,0.0,0.0,0.0,0.0,0.0,0.0,0.0,0.0,0.0,0.0,0.0,0.0,1.4329,1.4115,1.4269,1.4402,1.4402,1.4663,1.4843,1.4843,1.5104,1.5364,1.5578,1.5792,1.6039,1.6333,1.6068,1.5382,1.4127,1.2766,1.1414,1.0128,0.9048,0.8482,0.8482,0.8482,0.8482,0.8482,0.8482,0.8482,0.8482,0.8482,0.8482,0.8482,0.8482,0.8459,0.8391,0.8052,0.7851,0.774,0.7638,0.76,0.76,0.0,0.0,0.0,1.4088,1.4088,1.4088,1.4088,1.4088,1.4088,1.4088,1.4088,1.4088,1.4088,1.4088,1.4088,1.4088,1.4355,1.4569,1.4696,1.5371,1.5912,1.6259,1.6563,1.6774,1.7068,1.7535,1.7896,1.8143,1.8504,1.8738,1.8858,1.8858,1.8858,1.8851,1.8724,1.8577,1.839,1.8718,1.936,2.0144,1.9648,1.9228,1.8855,1.8812,1.8682,1.8602,1.9582,1.9101,1.8109,1.8798,0.0,0.0,0.0,0.0,0.0,0.0,0.0,0.0,0.0,0.0,0.0,0.0,0.0,0.0,0.0,0.0,0.0,0.0,0.0,0.0,0.0,0.0,0.0,0.0,1.4409,1.4502,1.4462,1.4603,1.4703,1.4703,1.507,1.5331,1.5331,1.5698,1.6012,1.6186,1.6359,1.658,1.6874,1.6894,1.6317,1.5068,1.4233,1.3132,1.1824,1.0306,0.9568,0.9568,0.8937,0.8672,0.8672,0.8672,0.8672,0.0,0.8672,0.8672,0.8672,0.8672,0.8635,0.0,0.0,0.0,0.0,0.0,0.7882,0.7872,0.0,0.0,0.0,1.4088,1.4088,1.4088,1.4088,1.4088,1.4088,1.4088,1.4088,1.4088,1.4088,1.4088,1.4088,1.4088,1.4382,1.471,1.5082,1.5872,1.6286,1.6319,1.6938,1.7387,1.7629,1.7916,1.8348,1.8925,1.8958,1.9112,1.9424,1.9424,1.9424,1.9417,1.9092,1.8951,1.8961,1.9928,2.081,2.1556,2.1667,2.0906,1.9798,2.0008,1.9802,1.9495,2.0464,1.999,1.89,1.8975,0.0,0.0,0.0,0.0,0.0,0.0,0.0,0.0,0.0,0.0,0.0,0.0,0.0,0.0,0.0,0.0,0.0,0.0,0.0,0.0,0.0,0.0,0.0,0.0,1.4576,1.471,1.5022,1.5115,1.5142,1.5109,1.5545,1.5892,1.5878,1.6426,1.676,1.676,1.6787,1.6921,1.7239,0.0,0.0,0.0,0.0,1.4824,1.3534,1.2077,1.1378,1.1324,0.986,0.9154,0.9154,0.8992,0.8885,0.8885,0.8885,0.8885,0.8885,0.8885,0.8804,0.872,0.855,0.8482,0.8465,0.834,0.8347,0.0,0.0,0.0,0.0,1.4088,1.4088,1.4088,1.4088,1.4088,1.4088,1.4088,1.4088,1.4088,1.4088,1.4088,1.4088,1.4088,1.4569,1.5097,1.5625,1.6046,1.638,1.6613,1.7188,1.7642,1.7896,1.8428,1.8755,1.8925,1.9165,1.9312,1.9424,1.9424,1.9424,1.9424,1.9305,1.9152,1.8918,1.9133,2.0263,2.1977,2.1673,2.1504,2.1387,2.0135,1.9415,1.9115,1.8642,1.8337,1.8276,1.8825,1.8997,1.9155,2.0001,2.044,0.0,0.0,0.0,0.0,0.0,0.0,0.0,0.0,0.0,0.0,0.0,0.0,0.0,0.0,0.0,0.0,0.0,0.0,0.0,1.4509,1.4917,1.5244,1.5304,1.5725,1.5932,1.5691,1.5972,1.6279,1.6513,1.6854,1.7112,1.7112,1.7281,1.7435,1.7495,1.7502,0.0,1.7199,1.6009,1.5257,1.499,1.3588,1.2891,1.2832,0.0,0.0,1.0621,0.9427,0.8885,0.8885,0.8885,0.8885,0.8885,0.8885,0.8865,0.8811,0.8587,0.8482,0.8479,0.8452,0.8442,0.8435,0.0,0.0,0.0,1.4088,1.4088,1.4088,1.4088,1.4088,1.4088,1.4088,1.4088,1.4088,1.4088,1.4088,1.4088,1.4088,1.4666,1.515,1.5585,1.6166,1.6553,1.67,1.7562,1.811,1.8263,1.8844,1.9145,1.9145,1.9292,1.9424,1.9424,1.9424,1.9424,1.9424,2.0141,2.0394,2.0302,2.1016,2.2166,2.3401,2.3212,2.3309,2.3401,2.2126,2.1042,2.0218,2.0175,1.9216,1.8146,1.8993,1.8789,1.835,1.9441,2.0167,2.0605,0.0,0.0,0.0,0.0,0.0,0.0,0.0,0.0,0.0,0.0,0.0,0.0,0.0,0.0,1.4302,1.4302,0.0,1.479,1.4937,1.5204,1.5498,1.5792,1.6086,1.6219,1.6072,1.644,1.6817,1.6965,1.7246,1.742,1.742,1.7502,1.7649,1.7809,1.7816,1.7883,1.8036,1.7312,1.6926,1.6926,1.5531,1.4806,1.4757,1.3316,1.2599,1.2543,1.1052,1.0333,1.0333,0.9493,0.9161,0.9154,0.9076,0.9045,0.9022,0.8798,0.871,0.8703,0.8625,0.8598,0.8584,0.0,0.0,0.0,1.4088,1.4088,1.4088,1.4088,1.4088,1.4088,1.4088,1.4088,1.4088,1.4088,1.4088,1.4108,1.4168,1.4603,1.5023,1.5378,1.6166,1.6647,1.67,1.7856,1.849,1.849,1.9065,1.9424,1.9424,1.9424,1.9424,1.9424,1.9424,1.9424,1.9424,2.0644,2.1194,2.1252,2.2631,2.3662,2.4385,2.4566,2.4852,2.5028,2.4209,2.3031,2.1811,2.2054,2.0706,1.8856,1.9652,1.903,1.8101,1.9036,1.9883,2.0605,2.0605,2.0605,0.0,0.0,0.0,0.0,0.0,0.0,0.0,0.0,0.0,1.618,1.4529,1.4355,1.4536,1.4596,1.485,1.5189,1.5431,1.5524,1.5752,1.6279,1.6406,1.6496,1.6496,1.6911,1.7226,1.728,1.7442,1.7582,1.7582,1.7642,1.7782,1.7975,1.8049,1.8243,1.8484,1.849,1.849,1.849,1.7334,1.6758,1.6702,1.5226,1.4544,1.4488,1.297,1.2232,1.2179,1.0582,0.9838,0.9831,0.9417,0.9255,0.9241,0.9069,0.9005,0.896,0.8811,0.8754,0.8737,0.0,0.0,0.0,0.0,0.0,1.4088,1.4088,1.4088,1.4088,1.4088,1.4088,1.4088,1.4088,1.4088,1.4195,1.4449,1.4529,1.4803,1.5357,1.5979,1.6433,1.6693,1.7856,1.849,1.849,1.9065,1.9424,1.9424,1.9424,1.9424,1.9424,1.9424,1.9424,1.9424,1.9591,1.9649,1.9744,2.0781,2.1807,2.2822,2.3798,2.4551,2.5057,2.4531,2.3991,2.3281,2.153,2.1146,2.1409,2.1115,2.069,2.0245,2.0362,2.0489,2.0605,2.0605,2.0605,2.0605,2.0605,1.9883,1.8957,1.79,1.696,1.5944,0.0,0.0,1.4452,1.4459,1.4496,1.4603,1.4908,1.515,1.5444,1.5732,1.6005,1.6286,1.6613,1.6938,1.7105,1.7105,1.7159,1.73,1.7508,1.7562,1.7582,1.7582,1.7842,1.7955,1.7989,1.8297,1.8457,1.849,1.849,1.849,1.849,1.8317,1.8262,1.8255,1.6758,1.6074,1.6012,1.4544,1.3865,1.3752,1.2175,1.1557,1.1438,0.9993,0.9354,0.9354,0.934,0.9249,0.9169,0.8967,0.8858,0.8854,0.0,0.0,0.0,0.0,0.0,1.4088,1.4088,1.4088,1.4088,1.4088,1.4088,1.4088,1.4088,1.4088,1.4135,1.4255,1.4422,1.4623,1.487,1.5598,1.6146,1.644,1.7422,1.8043,1.823,1.8644,1.8938,1.9112,1.9112,1.9199,1.9424,1.9424,1.9424,1.9475,2.0962,2.1597,2.1742,2.3668,2.4569,2.4769,2.498,2.5062,2.5037,2.4307,2.3789,2.3325,2.2412,2.1744,0.0,0.0,2.0895,2.0076,2.0479,2.0605,2.0605,2.0605,2.0605,0.0,2.0605,2.0284,1.9805,1.9353,1.8421,1.7383,1.6453,1.5749,1.5162,1.4848,1.491,1.507,1.5197,1.5451,1.5745,0.0,1.6192,1.6482,1.6951,1.7125,1.7266,1.7434,1.7454,1.7501,1.7569,1.7582,1.7655,1.7842,1.7916,1.8142,1.8482,1.8677,1.8818,1.8998,1.9005,1.9005,1.9005,1.9005,1.9005,1.9005,1.8408,1.811,1.8052,1.6523,1.5304,1.4374,1.3683,1.3454,1.3327,1.1632,1.0895,1.0829,0.9815,0.9344,0.9323,0.912,0.9011,0.8885,0.0,0.0,0.0,0.0,0.0,1.4088,1.4088,1.4088,1.4088,1.4088,1.4088,1.4088,1.4088,1.4088,1.4088,1.4088,1.4282,1.4436,1.4516,1.519,1.5758,1.6132,1.6914,1.7522,1.7856,1.8217,1.851,1.8804,1.8804,1.8918,1.9125,1.9125,1.9125,1.9226,2.1465,2.2439,2.2624,2.5033,2.5853,2.5588,2.5402,2.5039,2.4519,2.3848,2.335,2.3041,2.3062,2.2289,0.0,0.0,2.1244,2.0335,2.0826,2.0967,2.0967,2.0967,2.0967,2.0938,2.0781,2.0386,1.9986,1.9874,1.9111,1.816,1.726,1.6667,1.6074,1.528,1.5251,1.5424,1.5504,1.5752,1.6046,1.6346,1.6509,1.6744,1.7253,1.732,1.74,1.7555,1.7582,1.7582,1.7582,1.7582,1.7709,1.7969,1.8069,1.8335,1.8898,1.8998,1.9145,1.9417,1.9424,1.9424,1.9424,1.9424,1.9424,1.9424,1.9424,1.9424,1.9366,1.8163,1.7032,1.5913,1.5435,1.5252,1.5123,1.3422,1.2713,1.2582,1.1344,1.0518,1.0117,0.9996,0.9546,0.8991,0.0,0.0,0.0,0.0,0.0,1.4088,1.4088,1.4088,1.4088,1.4088,1.4088,1.4088,1.4088,1.4088,1.4088,1.4088,1.4095,1.4222,1.4502,1.4816,1.5244,1.5771,1.6413,1.7007,1.7582,1.7903,1.8203,1.8504,1.8504,1.851,1.8517,1.8517,1.8517,1.8573,1.9997,2.0567,2.0685,2.2766,2.3619,2.3638,2.4212,2.3965,2.3266,2.3237,2.291,2.2588,2.2945,0.0,2.1921,2.2363,2.2175,2.1814,2.1846,2.1846,0.0,2.1846,2.1846,2.1748,2.1288,1.9855,1.8385,1.7995,1.736,1.6565,1.5339,1.5984,1.65,1.5586,1.5391,1.5484,1.5718,1.6059,1.6353,1.6647,1.6934,1.728,1.7528,1.7569,1.7569,1.7582,1.7582,1.7582,0.0,1.7582,1.7709,1.7969,1.831,1.8611,1.8911,1.9199,1.9417,1.9424,1.9424,1.9424,1.9424,1.9424,1.9424,1.9424,1.9424,1.9424,1.9424,1.9366,1.9307,1.9185,1.7624,1.6909,1.6791,1.5187,1.4535,1.4535,1.4465,1.3386,1.1921,1.1917,1.0771,0.9183,0.0,0.0,0.0,0.0,0.0,0.0,1.4088,1.4088,1.4088,1.4088,1.4088,0.0,0.0,0.0,0.0,0.0,1.4088,1.4128,1.4229,1.4509,1.4843,1.5237,1.5812,1.6306,1.6707,1.7001,1.7301,1.7655,1.7655,1.7755,1.7889,1.7889,1.7889,1.7983,1.9976,2.0837,2.0958,2.3163,2.3966,2.3708,2.3628,2.3242,2.2705,2.2422,2.2041,2.1678,0.0,0.0,2.2695,2.2559,2.2422,2.2246,2.1973,2.1885,2.1885,2.1885,2.1885,2.1671,2.0693,1.9937,1.9238,1.8309,1.7376,1.6603,1.6384,1.608,1.5814,1.5665,1.5685,1.5712,1.5764,1.5912,1.6139,1.6627,1.6787,1.7027,1.7515,1.7582,1.7582,1.7582,1.7582,0.0,0.0,0.0,0.0,1.8317,1.8611,1.8905,1.9199,1.9312,1.9424,1.9424,1.9424,1.9424,1.9424,1.9424,1.9424,1.9424,1.9424,1.9424,1.9424,1.9424,1.9424,1.9366,1.8823,1.8583,1.846,1.6856,1.6197,1.6079,1.502,1.4257,1.37,1.362,1.2548,1.0844,0.0,0.0,0.0,0.0,0.0,0.0,0.0,0.0,0.0,0.0,0.0,0.0,0.0,0.0,0.0,0.0,0.0,1.4088,1.4088,1.4262,1.4496,1.4796,1.5164,1.5731,1.6544,1.6326,1.6569,1.7307,1.6923,1.6774,1.6954,1.6954,1.715,1.7636,1.9617,2.0664,2.1164,2.2969,2.3584,2.3301,2.2924,2.2441,2.2021,2.1758,2.1475,0.0,0.0,0.0,2.2676,2.2549,2.2617,2.2685,2.2422,2.2334,2.224,2.1797,2.1976,2.2032,2.0638,2.035,2.0111,1.8769,1.8001,1.7438,1.6755,1.6405,1.6151,1.588,1.5784,1.5784,1.5784,1.5912,1.6146,1.6627,1.6794,1.7034,1.7515,1.7582,1.7582,1.7582,1.7675,1.7822,0.0,0.0,0.0,1.8631,1.8818,1.9052,1.9352,1.9424,1.9424,1.9424,1.9424,1.9424,1.9424,1.9424,1.9424,1.9424,1.9424,1.9424,1.9424,1.9424,1.9424,1.9424,1.9424,1.9424,1.9307,1.8286,1.7864,1.7747,1.6738,1.5967,1.5472,1.5375,1.4273,1.2588,0.0,0.0,0.0,0.0,0.0,0.0,0.0,0.0,0.0,0.0,0.0,0.0,0.0,0.0,0.0,0.0,0.0,0.0,1.4088,1.4166,1.4251,1.4482,1.4553,1.5337,1.6921,1.5986,1.6139,1.7563,1.6472,1.592,1.592,1.592,1.6518,1.7602,1.8937,2.011,2.1123,2.2059,2.2471,2.2412,2.2012,2.1592,2.1161,2.1161,0.0,0.0,0.0,2.1484,2.1924,2.2363,2.273,2.3062,2.3042,2.3042,2.2833,2.1719,2.2199,2.2732,2.1156,2.1013,2.0891,1.9237,1.9106,1.881,1.6426,1.6763,1.7271,1.6062,1.5784,1.5784,0.0,0.0,1.6353,1.6653,1.6991,1.7286,1.7542,1.7582,1.7589,0.0,0.0,0.0,0.0,0.0,0.0,1.8945,0.0,1.9065,1.9352,1.9424,1.9424,1.9424,1.9424,1.9424,1.9424,1.9424,1.9424,1.9424,1.9424,1.9424,1.9424,1.9424,1.9424,1.9424,1.9424,1.9424,1.9424,1.9424,1.9424,1.9424,1.9424,1.846,1.7144,1.7144,1.6046,1.4313,0.0,0.0,0.0,0.0,0.0,0.0,0.0,0.0,0.0,0.0,0.0,0.0,0.0,0.0,0.0,0.0,0.0,0.0,1.4088,1.4859,1.4971,1.4238,1.5148,1.5885,1.6299,1.633,1.6847,1.8029,1.7728,1.7596,1.7596,1.7596,1.7728,1.8073,1.9332,2.0023,2.0366,2.1558,2.1855,2.1512,0.0,2.1133,2.0732,0.0,0.0,0.0,0.0,2.1025,2.1473,2.2266,2.2578,2.2617,2.2305,2.2422,2.258,2.226,2.2621,2.2799,2.1495,2.1221,2.0998,1.9644,1.8754,1.8002,1.7365,1.6716,1.6197,1.5872,1.5784,1.5784,0.0,0.0,0.0,1.662,1.6767,0.0,1.7508,1.7582,0.0,1.7849,0.0,1.8162,1.8657,1.8838,0.0,0.0,1.9252,1.9285,1.9424,1.9424,1.9424,1.9424,1.9424,1.9424,1.9424,1.9424,1.9424,1.9424,1.9424,1.9424,1.9424,1.9424,1.9424,1.9424,1.9424,1.9424,1.9424,1.9424,1.9424,1.9424,1.9424,1.9127,1.8765,1.8765,1.7763,1.6266,0.0,0.0,0.0,0.0,0.0,0.0,0.0,0.0,0.0,0.0,0.0,0.0,0.0,0.0,0.0,0.0,0.0,0.0,0.0,1.5095,1.5413,1.4817,1.5506,1.6385,1.7334,1.6611,1.6966,1.853,1.8071,1.7819,1.7819,1.7819,1.8071,1.8572,1.9277,1.9811,2.0311,2.1047,0.0,0.0,0.0,0.0,0.0,0.0,0.0,0.0,0.0,0.0,0.0,0.0,0.0,2.2197,2.1963,2.2178,2.2382,2.1883,2.2361,2.2818,2.1614,2.1712,2.18,2.0576,1.9761,1.9131,1.8588,1.7537,1.6803,1.7296,1.6983,1.6803,1.7343,1.6983,0.0,0.0,0.0,0.0,1.7502,1.7582,1.7695,0.0,1.8156,0.0,1.8878,1.9038,1.9185,0.0,1.9424,1.9424,1.9424,1.9424,1.9424,1.9424,1.9424,1.9424,1.9424,1.9424,1.9424,1.9424,1.9424,1.9424,1.9424,1.9424,1.9424,1.9424,0.0,1.9424,1.9424,1.9424,1.9424,1.9424,1.9424,1.9424,1.9424,1.9424,1.8823,1.8046,0.0,0.0,0.0,0.0,0.0,0.0,0.0,0.0,0.0,0.0,1.7496,1.7374,0.0,0.0,0.0,0.0,0.0,0.0,0.0,0.0,0.0,1.5902,1.6067,1.7041,1.8957,1.7123,1.7163,1.9195,0.0,1.7738,1.7738,0.0,0.0,0.0,0.0,0.0,0.0,0.0,0.0,0.0,0.0,0.0,0.0,0.0,0.0,0.0,0.0,0.0,0.0,0.0,2.1153,2.1787,2.1728,2.2041,2.221,2.117,2.1904,2.2862,2.18,2.2306,2.2862,2.18,2.1436,2.1025,1.9988,1.8818,1.8234,1.9268,1.8688,1.828,1.9314,1.8634,1.8067,1.8394,0.0,1.7096,1.7501,1.7555,1.7702,1.8036,1.8323,1.8617,1.8951,1.9219,1.9424,1.9424,1.9424,1.9424,1.9424,1.9424,1.9424,1.9424,1.9424,1.9424,1.9424,1.9424,1.9424,1.9424,1.9424,1.9424,1.9424,1.9424,1.9424,1.9424,0.0,0.0,1.9424,1.9424,1.9424,1.9424,1.9424,1.9424,1.9424,1.9424,1.9424,1.9424,0.0,0.0,0.0,0.0,0.0,0.0,0.0,0.0,0.0,0.0,1.843,1.7666,0.0,0.0,0.0,0.0,0.0,0.0,0.0,0.0,0.0,0.0,1.7948,1.859,1.8997,0.0,0.0,0.0,0.0,0.0,2.004,0.0,0.0,0.0,0.0,0.0,0.0,0.0,0.0,0.0,0.0,0.0,0.0,0.0,0.0,0.0,0.0,0.0,0.0,0.0,2.0918,2.1239,2.0908,2.1388,2.1951,2.1733,2.2359,2.3047,2.2862,2.295,2.3047,2.2818,2.2031,2.1248,2.1025,2.0034,0.0,0.0,1.9314,1.9268,1.9451,1.9314,1.8945,1.8281,1.8191,1.7953,1.738,1.7481,1.7789,0.0,1.8457,1.8704,1.9239,0.0,0.0,0.0,0.0,0.0,1.9424,1.9424,1.9424,1.9424,1.9424,1.9424,1.9424,1.9424,1.9424,1.9424,1.9424,1.9424,1.9424,1.9424,1.9424,1.9424,0.0,0.0,1.9424,1.9424,1.9424,1.9424,1.9424,1.9424,1.9424,1.9424,1.9424,1.9424,0.0,0.0,0.0,0.0,0.0,0.0,0.0,2.0284,2.0605,2.0605,1.9678,1.9234,1.9756,1.9353,1.8789,0.0,0.0,0.0,0.0,0.0,0.0,0.0,0.0,0.0,0.0,0.0,0.0,0.0,0.0,0.0,0.0,0.0,0.0,0.0,0.0,0.0,0.0,0.0,0.0,0.0,0.0,0.0,0.0,0.0,0.0,0.0,0.0,0.0,0.0,0.0,2.0752,2.085,2.0674,2.1212,2.1885,2.1885,2.248,2.3091,2.3091,2.3091,2.3091,2.3091,2.2677,2.2262,2.2262,0.0,0.0,2.1221,2.0854,2.0621,2.1266,2.0854,0.0,1.9178,1.8722,1.818,1.7306,1.7454,1.8115,1.9474,1.9654,2.0173,0.0,0.0,0.0,0.0,0.0,0.0,1.9424,1.9424,1.9424,1.9424,1.9424,1.9424,1.9424,1.9424,1.9424,1.9424,1.9424,1.9424,1.9424,1.9424,1.9424,1.9424,0.0,0.0,1.9424,1.9424,1.9424,1.9424,1.9424,1.9424,1.9424,1.9424,1.9424,1.9424,0.0,0.0,0.0,0.0,0.0,0.0,2.0605,2.0605,2.0605,2.0605,2.0605,2.0605,2.0605,2.0605,2.0245,0.0,0.0,0.0,0.0,0.0,0.0,0.0,0.0,0.0,0.0,0.0,0.0,0.0,0.0,0.0,0.0,0.0,0.0,0.0,0.0,0.0,0.0,0.0,0.0,0.0,0.0,0.0,0.0,0.0,0.0,0.0,0.0,0.0,0.0,0.0,2.0605,2.0605,2.0605,2.1153,2.1768,2.1855,2.2412,2.2984,2.3071,2.3091,2.3091,2.3091,2.3091,2.3091,2.3091,2.2378,0.0,2.2916,2.2359,2.1987,2.2916,2.235,2.1356,0.0,1.9718,1.8886,1.7668,1.8067,1.9041,0.0,2.0924,0.0,0.0,0.0,0.0,0.0,0.0,0.0,0.0,1.9424,1.9424,1.9424,1.9424,1.9424,1.9424,1.9424,1.9424,1.9424,1.9424,1.9424,1.9424,1.9424,1.9424,1.9424,0.0,0.0,0.0,1.9424,1.9424,1.9424,1.9424,1.9424,1.9424,1.9424,1.9424,1.9424,0.0,0.0,0.0,0.0,0.0,0.0,2.0605,2.0605,2.0605,2.0605,2.0605,2.0605,2.0605,2.0605,2.0566,0.0,0.0,0.0,0.0,0.0,0.0,0.0,0.0,0.0,0.0,0.0,0.0,0.0,0.0,0.0,0.0,0.0,0.0,0.0,0.0,0.0,0.0,0.0,0.0,0.0,0.0,0.0,0.0,0.0,0.0,0.0,0.0,0.0,0.0,0.0,0.0,2.0605,2.0605,2.0898,2.1327,2.1768,0.0,0.0,2.2994,2.3091,2.3091,2.3091,2.3091,2.3091,2.3091,0.0,2.296,2.3091,2.3003,2.296,2.3091,2.3003,2.2555,2.1347,2.1673,2.1171,1.8742,2.0073,2.1151,2.074,0.0,0.0,0.0,0.0,0.0,0.0,0.0,0.0,0.0,1.9424,1.9424,1.9424,1.9424,1.9424,1.9424,1.9424,1.9424,1.9424,1.9424,1.9424,1.9424,1.9424,1.9424,1.9424,0.0,0.0,0.0,1.9424,1.9424,1.9424,1.9424,1.9424,1.9424,1.9424,1.9424,1.9424,0.0,0.0,0.0,0.0,0.0,0.0,2.0605,2.0605,2.0605,2.0605,2.0605,2.0605,2.0605,2.0605,2.0605,2.0605,2.0605,0.0,0.0,0.0,0.0,0.0,0.0,0.0,0.0,0.0,2.0605,2.0605,2.0605,0.0,0.0,0.0,0.0,0.0,0.0,0.0,0.0,2.0605,0.0,0.0,0.0,0.0,0.0,0.0,0.0,0.0,0.0,0.0,0.0,0.0,0.0,0.0,2.0605,2.0723,0.0,0.0,2.1973,2.2549,2.2715,2.2906,2.3091,2.3091,2.3091,2.3091,2.3091,0.0,2.3091,2.3091,2.3091,2.3091,2.3091,2.3091,2.2677,2.1525,2.1932,2.1782,1.9998,2.0899,2.212,2.3178,2.3746,0.0,0.0,0.0,0.0,0.0,0.0,0.0,0.0,2.0378,1.9815,2.0702,1.9866,1.9815,2.0702,1.9815,1.9424,1.9424,1.9424,1.9424,1.9424,1.9424,1.9424,1.9424,0.0,0.0,0.0,1.9424,1.9424,1.9424,1.9424,1.9424,1.9424,1.9424,1.9424,1.9424,0.0,0.0,0.0,0.0,0.0,2.0605,2.0605,2.0605,2.0605,2.0605,2.0605,2.0605,2.0605,2.0605,2.0605,2.0605,2.0605,0.0,0.0,0.0,0.0,0.0,0.0,0.0,0.0,0.0,2.0605,2.0605,2.0605,2.0605,0.0,0.0,0.0,0.0,0.0,0.0,0.0,0.0,0.0,0.0,0.0,0.0,0.0,0.0,0.0,0.0,0.0,0.0,0.0,0.0,0.0,0.0,2.0605,2.0605,2.0693,0.0,2.1619,2.2168,2.2295,2.2637,2.2877,2.275,2.2916,2.3062,0.0,0.0,2.3091,2.3091,2.3091,2.3091,2.3091,2.3091,2.2818,2.1987,2.24,2.2422,2.128,2.204,2.3276,0.0,0.0,0.0,0.0,0.0,0.0,0.0,0.0,0.0,0.0,2.2104,2.1209,2.2202,2.1266,2.1209,2.2258,2.0816,2.0033,2.004,1.9591,1.9424,1.9424,1.9424,1.9424,0.0,0.0,0.0,0.0,1.9424,1.9424,1.9424,1.9424,1.9424,1.9424,1.9424,1.9424,1.9424,0.0,0.0,0.0,0.0,0.0,2.0605,2.0605,2.0605,2.0605,2.0605,2.0605,2.0605,2.0605,2.0605,2.0605,2.0605,2.0605,0.0,0.0,0.0,0.0,0.0,0.0,0.0,0.0,0.0,2.0605,2.0605,2.0605,2.0605,2.0605,2.0605,2.0605,2.0605,0.0,0.0,0.0,0.0,2.0605,0.0,0.0,0.0,0.0,0.0,0.0,0.0,0.0,0.0,0.0,0.0,0.0,0.0,0.0,2.0605,2.0693,2.1064,2.12,2.1298,2.1777,2.2197,2.2422,2.2002,2.2519,2.2984,0.0,2.2799,2.3091,2.3091,2.3091,2.3091,2.3091,2.3091,2.3091,2.3091,2.3461,2.3472,2.2503,2.3928,0.0,0.0,0.0,0.0,0.0,0.0,0.0,0.0,0.0,0.0,0.0,0.0,2.3766,2.3766,2.3766,2.3766,2.3766,2.2315,2.1586,2.1586,2.009,1.9424,1.9424,1.9424,0.0,0.0,0.0,0.0,0.0,1.9424,1.9424,1.9424,1.9424,1.9424,1.9424,1.9424,1.9424,1.9424,0.0,0.0,0.0,0.0,0.0,0.0,2.0605,2.0605,2.0605,2.0605,2.0605,2.0605,2.0605,2.0605,2.0605,2.0605,2.0605,0.0,0.0,0.0,0.0,0.0,0.0,0.0,0.0,2.0605,2.0605,2.0605,2.0605,2.0605,2.0605,2.0605,2.0605,2.0605,2.0605,2.0605,0.0,2.0605,2.0605,0.0,0.0,0.0,0.0,0.0,0.0,0.0,0.0,0.0,0.0,0.0,0.0,0.0,0.0,0.0,0.0,2.0732,2.0996,2.122,2.1356,2.1758,2.2119,2.2275,2.251,2.2711,2.2867,2.3003,2.3091,2.3091,2.3091,2.3091,2.3091,2.3091,2.3091,2.3091,2.3695,2.412,0.0,0.0,0.0,0.0,0.0,0.0,0.0,0.0,0.0,0.0,0.0,0.0,0.0,0.0,2.6381,2.5371,2.4322,2.4322,2.5371,2.3877,2.3095,2.3095,2.1593,2.143,2.2379,2.1373,0.0,0.0,0.0,0.0,0.0,1.9815,1.9424,1.9424,1.9424,1.9424,1.9424,1.9424,1.9424,1.9424,0.0,0.0,0.0,0.0,0.0,0.0,2.0605,2.0605,2.0605,2.0605,2.0605,2.0605,2.0605,2.0605,2.0605,2.0605,2.0605,0.0,0.0,0.0,0.0,0.0,0.0,0.0,2.0605,2.0605,2.0605,2.0605,2.0605,2.0605,2.0605,2.0605,2.0605,2.0605,2.0605,2.0605,0.0,2.0605,2.0605,2.0605,0.0,0.0,2.0605,0.0,0.0,0.0,0.0,0.0,0.0,0.0,0.0,0.0,0.0,0.0,0.0,0.0,2.0762,2.0986,2.0986,2.1299,2.166,2.1758,2.2148,2.2539,2.2604,2.2867,2.3091,2.3091,2.3091,2.3091,2.3091,2.3091,2.3091,2.3091,2.3721,2.4238,0.0,0.0,0.0,0.0,0.0,0.0,0.0,0.0,0.0,0.0,0.0,0.0,0.0,0.0,2.7897,2.6943,2.6,2.5945,2.6943,2.5434,2.4654,2.4654,2.3151,2.2927,2.3766,0.0,0.0,0.0,0.0,0.0,0.0,2.143,2.1045,2.0988,2.0429,2.0594,2.0988,2.0429,2.0594,2.0988,0.0,0.0,0.0,0.0,0.0,0.0,0.0,2.0605,2.0605,2.0605,2.0605,2.0605,2.0605,2.0605,2.0605,2.0605,2.0605,0.0,0.0,0.0,0.0,0.0,0.0,0.0,2.0605,2.0605,2.0605,2.0605,2.0605,2.0605,2.0605,2.0605,2.0605,2.0605,2.0605,2.0605,2.0605,2.0605,2.0605,2.0605,2.0605,2.0605,0.0,0.0,0.0,0.0,0.0,0.0,0.0,0.0,0.0,0.0,0.0,0.0,0.0,0.0,0.0,0.0,0.0,2.0869,2.1054,2.0752,2.1523,2.2334,2.2002,2.2539,0.0,2.3091,2.3091,2.3091,2.3091,2.3091,2.3091,2.3091,2.3525,2.3975,0.0,2.4873,0.0,0.0,0.0,0.0,0.0,0.0,0.0,0.0,0.0,0.0,0.0,0.0,0.0,2.8291,2.8291,2.8291,2.8291,2.6943,2.6264,2.6264,2.471,2.4044,2.41,0.0,0.0,0.0,0.0,0.0,0.0,2.3822,2.3822,2.3654,2.2315,2.2589,2.3654,2.2258,2.2645,2.3599,0.0,0.0,0.0,0.0,0.0,0.0,0.0,0.0,0.0,0.0,2.0605,2.0605,2.0605,2.0605,2.0605,0.0,0.0,0.0,0.0,0.0,0.0,0.0,0.0,0.0,2.0605,2.0605,2.0605,2.0605,2.0605,2.0605,2.0605,2.0605,2.0605,2.0605,2.0605,2.0605,2.0605,2.0605,2.0605,2.0605,2.0605,2.0605,0.0,0.0,0.0,0.0,2.0605,2.0605,0.0,0.0,0.0,0.0,0.0,0.0,0.0,0.0,2.0605,2.0605,2.0605,0.0,2.0781,2.1016,2.1268,2.1639,0.0,2.2519,2.2711,2.3033,2.3091,2.3091,2.3091,2.3091,2.3091,2.3091,2.3725,2.4307,2.4404,0.0,0.0,0.0,0.0,0.0,0.0,0.0,0.0,0.0,0.0,0.0,0.0,0.0,0.0,2.8291,2.8291,2.8291,2.8291,2.796,2.7789,2.778,2.6273,2.6164,2.7222,0.0,0.0,0.0,0.0,0.0,0.0,2.4267,2.3822,2.3766,2.3431,2.3487,2.3766,2.3431,2.3487,2.3766,0.0,0.0,0.0,0.0,0.0,0.0,0.0,0.0,0.0,0.0,2.0605,2.0605,2.0605,2.0605,2.0605,0.0,0.0,0.0,0.0,0.0,0.0,0.0,0.0,2.0605,2.0605,2.0605,2.0605,2.0605,2.0605,2.0605,2.0605,2.0605,2.0605,2.0605,2.0605,2.0605,2.0605,2.0605,2.0605,2.0605,2.0605,0.0,0.0,0.0,0.0,0.0,2.0605,2.0605,0.0,2.0605,2.0605,2.0605,0.0,0.0,0.0,0.0,2.0605,2.0605,2.0605,2.0605,2.0664,2.0869,2.1044,2.1317,2.1785,2.208,2.2344,2.2721,2.2808,2.2867,2.3062,2.3091,2.3159,2.3408,2.3984,0.0,0.0,0.0,0.0,0.0,0.0,0.0,0.0,0.0,0.0,0.0,0.0,0.0,0.0,0.0,0.0,0.0,2.8291,2.8291,2.8291,2.8291,2.8291,2.8291,2.7501,2.7501,2.8291,0.0,0.0,0.0,0.0,0.0,2.7051,2.6218,2.5882,2.5772,2.5105,2.527,2.5772,2.5096,2.527,2.5772,0.0,0.0,0.0,0.0,0.0,0.0,0.0,0.0,0.0,0.0,0.0,0.0,0.0,0.0,0.0,0.0,0.0,0.0,0.0,0.0,0.0,0.0,2.0605,2.0605,2.0605,2.0605,2.0605,2.0605,2.0605,2.0605,2.0605,2.0605,2.0605,2.0605,2.0605,2.0605,2.0605,2.0605,2.0605,2.0605,2.0605,0.0,0.0,0.0,0.0,0.0,0.0,0.0,0.0,2.0605,2.0605,2.0605,2.0605,0.0,0.0,0.0,0.0,0.0,2.0605,2.0605,2.0605,2.0605,2.085,2.1132,2.1259,2.1621,2.2021,2.251,2.2607,2.2715,2.3033,2.3091,0.0,0.0,0.0,0.0,0.0,0.0,0.0,0.0,0.0,0.0,0.0,0.0,0.0,0.0,0.0,0.0,0.0,0.0,0.0,0.0,2.8291,2.8291,2.8291,2.8291,2.8291,2.8291,2.8291,2.8291,2.8291,2.8291,0.0,0.0,0.0,0.0,2.8291,2.8291,2.8291,2.8184,2.6943,2.7222,2.8121,2.6888,2.7222,2.8121,0.0,0.0,0.0,0.0,0.0,0.0,0.0,0.0,0.0,0.0,0.0,0.0,0.0,0.0,0.0,0.0,0.0,0.0,0.0,0.0,0.0,2.0605,2.0605,2.0605,2.0605,2.0605,2.0605,2.0605,2.0605,2.0605,2.0605,2.0605,2.0605,2.0605,2.0605,2.0605,2.0605,2.0605,2.0605,2.0605,2.0605,0.0,0.0,0.0,0.0,0.0,0.0,0.0,0.0,2.0605,2.0605,2.0605,2.0605,0.0,0.0,0.0,0.0,0.0,2.0605,2.0605,2.0605,2.0605,2.0654,2.0909,2.1611,2.1836,2.2109,2.2838,2.3003,2.3023,2.3081,2.3091,2.3237,0.0,0.0,0.0,0.0,0.0,0.0,0.0,0.0,0.0,0.0,0.0,0.0,0.0,0.0,0.0,0.0,0.0,0.0,0.0,0.0,2.8291,2.8291,2.8291,2.8291,2.8291,2.8291,2.8291,2.8291,2.8291,2.8291,0.0,0.0,0.0,2.8291,2.8291,2.8291,2.8291,2.8067,2.8121,2.8291,2.8067,2.8121,2.8291,0.0,0.0,0.0,0.0,0.0,0.0,0.0,0.0,0.0,0.0,0.0,0.0,0.0,0.0,0.0,0.0,0.0,0.0,0.0,0.0,2.0605,2.0605,2.0605,2.0605,2.0605,2.0605,2.0605,2.0605,2.0605,2.0605,2.0605,2.0605,2.0605,2.0605,2.0605,2.0605,2.0605,2.0605,2.0895,2.1298,0.0,0.0,0.0,0.0,0.0,0.0,0.0,0.0,0.0,0.0,2.0605,2.0605,2.0605,0.0,0.0,0.0,0.0,0.0,2.0605,2.0605,2.0605,2.0605,2.0752,2.1035,2.1435,2.1719,2.206,2.2676,2.276,2.2896,0.0,0.0,2.3711,2.4375,0.0,0.0,0.0,0.0,0.0,0.0,0.0,0.0,0.0,0.0,0.0,0.0,0.0,0.0,0.0,0.0,0.0,0.0,0.0,0.0,2.8291,2.8291,2.8291,2.8291,2.8291,2.8291,2.8291,2.8291,2.8291,0.0,0.0,2.8291,2.8291,2.8291,2.8291,2.8291,2.8291,2.8291,2.8291,2.8291,2.8291,2.8291,0.0,0.0,0.0,0.0,0.0,0.0,0.0,0.0,0.0,0.0,0.0,0.0,0.0,0.0,0.0,0.0,0.0,0.0,0.0,2.0605,2.0605,2.0605,2.0605,2.0605,2.0605,2.0605,2.0605,2.0605,2.0605,2.0605,2.0605,2.0605,2.0605,2.0605,2.0828,2.0828,2.0605,2.0818,2.1231,2.1593,0.0,0.0,0.0,0.0,0.0,0.0,0.0,0.0,0.0,0.0,0.0,0.0,0.0,0.0,0.0,2.0605,2.0605,2.0605,2.0605,2.0605,2.0635,2.0732,2.0977,2.122,2.1327,2.1719,2.2148,2.2578,2.2734,0.0,0.0,2.3955,0.0,2.5008,0.0,0.0,0.0,0.0,0.0,0.0,0.0,0.0,0.0,0.0,0.0,0.0,0.0,0.0,0.0,0.0,0.0,0.0,0.0,0.0,2.8291,2.8291,2.8291,2.8291,2.8291,2.8291,2.8291,2.8291,2.8291,2.8291,2.8291,2.8291,2.8291,2.8291,2.8291,2.8291,2.8291,2.8291,2.8291,2.8291,2.8291,2.8291,0.0,0.0,0.0,0.0,0.0,0.0,0.0,0.0,0.0,0.0,0.0,0.0,0.0,0.0,0.0,0.0,0.0,0.0,0.0,2.0605,2.0605,2.0605,2.0605,2.0605,2.0605,2.0605,2.0605,2.0605,2.0605,2.0605,2.0605,2.0605,2.0605,2.0644,2.1517,2.1413,2.0644,2.1517,2.1441,2.0673,2.0644,0.0,0.0,0.0,0.0,0.0,0.0,0.0,0.0,0.0,0.0,0.0,0.0,0.0,2.0605,2.0605,2.0605,2.0605,2.0605,2.0605,2.0703,2.1044,2.1171,2.1298,2.1748,2.2168,2.2588,2.2964,2.3418,0.0,0.0,2.4443,2.5047,0.0,0.0,0.0,0.0,0.0,0.0,0.0,0.0,0.0,0.0,0.0,0.0,0.0,0.0,0.0,0.0,0.0,0.0,0.0,0.0,0.0,2.8291,2.8291,2.8291,2.8291,2.8291,2.8291,2.8291,2.8291,2.8291,2.8291,2.8291,2.8291,2.8291,2.8291,2.8291,2.8291,2.8291,2.8291,2.8291,2.8291,2.8291,2.8291,0.0,0.0,0.0,0.0,0.0,0.0,0.0,0.0,0.0,0.0,0.0,2.0605,2.0605,0.0,0.0,0.0,0.0,0.0,0.0,2.1479,2.1479,2.1479,2.0895,2.0605,2.0605,2.0605,2.0605,2.0605,2.0605,2.0605,2.0605,2.0605,2.0895,2.1451,2.1221,2.1593,2.2376,2.2103,2.2151,2.2339,2.1707,2.1669,0.0,0.0,0.0,0.0,0.0,0.0,0.0,0.0,2.0605,2.0605,2.0605,2.0605,2.0605,2.0605,2.0605,2.0605,2.0605,2.0771,2.1025,2.1151,2.16,2.2029,2.2236,2.2598,2.2984,2.3457,2.3682,0.0,0.0,0.0,0.0,0.0,0.0,0.0,0.0,0.0,0.0,0.0,0.0,0.0,0.0,0.0,0.0,0.0,0.0,0.0,0.0,0.0,0.0,0.0,0.0,0.0,0.0,2.791,2.7773,2.75,2.8037,2.8291,2.8291,2.8291,2.8291,2.8291,2.8291,2.8291,2.8291,2.8291,2.8291,2.8291,2.8291,2.8291,2.8291,2.8291,2.8291,2.8291,0.0,0.0,0.0,0.0,0.0,0.0,0.0,0.0,2.0712,0.0,0.0,0.0,0.0,2.1527,0.0,0.0,0.0,0.0,2.1989,2.1735,2.1555,2.1555,2.0934,2.0605,2.0605,2.0605,2.0605,2.0605,2.0605,2.0605,2.0605,2.0605,2.0934,2.1555,2.1527,2.1897,2.2601,2.285,2.2813,2.2563,2.214,2.1989,0.0,0.0,0.0,0.0,0.0,0.0,0.0,0.0,2.0605,2.0605,2.0605,2.0605,2.0605,2.0605,2.0605,2.0605,2.0605,2.0889,2.1229,2.1366,2.1982,2.2578,2.2852,2.3135,2.3428,2.373,2.4004,2.4414,2.5146,0.0,0.0,0.0,0.0,0.0,0.0,0.0,0.0,0.0,0.0,0.0,0.0,0.0,0.0,0.0,0.0,0.0,0.0,0.0,0.0,0.0,0.0,0.0,0.0,2.7461,2.7314,2.7021,2.7607,2.7891,2.7891,2.7891,2.7959,2.8096,2.8096,2.8164,2.8291,2.8291,2.8291,2.8291,2.8291,2.8291,2.8291,2.8291,2.8291,2.8291,0.0,0.0,0.0,0.0,0.0,0.0,0.0,0.0,2.0972,2.1886,2.2027,0.0,0.0,0.0,0.0,0.0,0.0,0.0,2.2027,2.1155,2.0644,2.0644,2.0605,2.0605,2.0605,2.0605,2.0605,2.0605,2.0605,2.0605,2.0605,2.0605,2.0644,2.0712,2.2638,2.2414,2.0828,2.3756,2.3305,2.0712,2.1631,2.2027,2.1914,0.0,0.0,0.0,0.0,0.0,0.0,0.0,2.0644,2.0644,2.0605,2.0605,2.0605,2.0605,2.0605,2.0605,2.0605,2.0898,2.1307,2.1787,2.2207,2.2734,2.3594,2.3789,2.3789,2.3799,2.4482,2.5205,2.5606,0.0,0.0,0.0,0.0,0.0,0.0,0.0,0.0,0.0,0.0,0.0,0.0,0.0,0.0,0.0,0.0,0.0,0.0,0.0,0.0,0.0,0.0,0.0,0.0,2.7012,2.7012,2.7002,2.7002,2.7012,2.7012,2.7012,2.7246,2.7708,2.7718,2.7953,2.8281,2.8291,2.8291,2.8291,2.8291,2.8291,2.8291,2.8291,2.8291,2.8291,0.0,0.0,0.0,0.0,0.0,0.0,0.0,0.0,2.2739,2.3036,2.3073,0.0,0.0,0.0,0.0,0.0,0.0,0.0,2.4108,2.3195,2.2638,2.2638,2.1346,2.0605,2.0605,2.127,2.126,2.0605,2.126,2.127,2.0644,2.201,2.2264,2.1593,2.2178,2.2925,2.3672,2.311,2.3184,2.3672,2.322,2.3073,2.3036,0.0,0.0,0.0,0.0,0.0,0.0,0.0,0.0,0.0,2.1821,2.1593,2.1451,2.0789,2.0605,2.0674,2.0947,2.1357,2.1797,2.2217,2.2604,2.3096,2.3662,2.3789,2.3955,0.0,2.5146,2.5586,2.5664,0.0,0.0,0.0,0.0,0.0,0.0,0.0,0.0,0.0,0.0,0.0,0.0,0.0,0.0,0.0,0.0,0.0,0.0,0.0,0.0,0.0,0.0,0.0,0.0,0.0,2.6426,2.6064,2.6064,2.6435,2.7012,2.7012,2.709,2.7226,2.7581,2.7787,2.7881,2.8174,2.8291,2.8291,2.8291,2.8291,2.8291,2.8291,2.8291,2.8291,0.0,0.0,0.0,0.0,0.0,0.0,2.3514,2.3514,2.3624,2.4036,2.4108,2.4253,0.0,0.0,0.0,2.4696,2.4516,0.0,2.4409,2.3478,2.2888,2.2888,2.2151,2.1756,2.1756,2.2301,2.2113,2.1155,2.1735,2.1924,2.1745,2.2151,2.2226,2.1989,2.1989,2.2664,2.3781,2.3368,2.3661,2.4373,2.4192,2.3854,2.3514,0.0,0.0,0.0,0.0,0.0,0.0,0.0,0.0,0.0,2.2178,2.1735,2.1336,2.0789,2.0605,2.0703,2.1073,2.1553,2.1992,2.2412,2.2779,2.3247,2.3896,2.417,2.4492,0.0,2.5547,2.5693,2.5693,0.0,0.0,0.0,0.0,0.0,0.0,0.0,0.0,0.0,0.0,0.0,0.0,0.0,0.0,0.0,0.0,0.0,0.0,0.0,0.0,0.0,0.0,0.0,0.0,0.0,0.0,2.5693,2.5693,2.5966,2.6454,2.6454,2.6602,2.6797,2.7454,2.7718,2.7748,2.8125,2.8291,2.8291,2.8291,2.8291,2.8291,2.8291,2.8291,2.8291,0.0,0.0,2.3635,2.3635,0.0,0.0,2.377,2.377,2.4108,2.5004,2.5158,2.5476,0.0,0.0,0.0,2.6499,2.4838,2.377,0.0,2.285,2.2253,2.2253,2.3073,2.3514,2.3514,2.3588,2.3184,2.2253,2.2253,2.259,2.322,2.1783,2.1413,2.1876,2.214,2.2215,2.2253,2.4084,2.4445,2.3854,2.4671,2.4516,2.377,2.377,0.0,0.0,0.0,0.0,0.0,0.0,0.0,0.0,2.2291,2.1669,2.0972,2.0789,2.0789,2.0927,2.1202,2.1663,2.2107,2.2451,2.2877,2.3413,2.4238,2.4785,2.5244,2.5606,0.0,2.5693,0.0,0.0,0.0,0.0,0.0,0.0,0.0,0.0,0.0,0.0,0.0,0.0,0.0,0.0,0.0,0.0,0.0,0.0,0.0,0.0,0.0,0.0,0.0,0.0,0.0,0.0,0.0,0.0,2.5781,2.5693,2.5693,2.5693,2.5977,2.6426,2.7268,2.765,2.7748,2.8076,2.8262,2.8291,2.8291,2.8291,2.8291,2.8291,2.8291,2.8291,0.0,0.0,2.4671,2.4671,0.0,0.0,2.5861,2.5861,2.5943,2.6129,2.6176,2.6245,2.6499,2.6499,0.0,2.6499,2.6094,2.5861,2.5861,2.4921,2.4337,2.4337,2.3818,2.3514,2.3514,2.4264,2.4564,2.4337,2.4337,2.3268,2.127,2.3952,2.3697,2.1011,2.3342,2.3927,2.322,2.3635,2.4624,2.5791,2.5217,2.5335,2.5861,2.5861,2.5861,0.0,0.0,0.0,0.0,0.0,0.0,0.0,2.4588,2.4228,2.3745,2.2151,2.2264,2.2708,2.1959,2.2341,2.2982,2.2975,2.353,2.4189,2.4375,2.5029,2.5625,2.5664,2.5693,2.5693,0.0,0.0,0.0,0.0,0.0,0.0,0.0,0.0,0.0,0.0,0.0,0.0,0.0,0.0,0.0,0.0,0.0,0.0,0.0,0.0,0.0,0.0,0.0,0.0,2.7173,2.6197,2.6197,0.0,2.6197,2.5693,2.5693,2.5693,2.5977,2.6396,2.6582,2.7041,2.7728,2.7816,2.7998,2.8291,2.8291,2.8291,2.8291,2.8291,2.8291,2.8291,0.0,0.0,0.0,0.0,0.0,0.0,0.0,0.0,2.6499,2.6499,2.6499,2.6499,2.6499,2.6499,0.0,0.0,2.606,2.5769,2.5769,2.53,2.5229,2.5699,2.5217,2.4945,2.4945,2.5429,2.5476,2.5004,2.5476,2.4921,2.3441,2.4061,2.377,2.2713,2.3305,2.3818,2.4228,2.4228,2.5242,2.6854,2.6302,2.6569,2.7253,2.6989,2.6889,2.6851,2.6587,0.0,0.0,0.0,0.0,0.0,0.0,0.0,2.4084,2.3036,2.311,2.3479,2.343,2.3343,2.3389,2.3825,2.4553,2.5219,2.5219,2.5466,2.5878,2.6476,2.611,0.0,0.0,0.0,0.0,0.0,0.0,0.0,0.0,0.0,0.0,0.0,0.0,0.0,0.0,0.0,0.0,0.0,0.0,0.0,0.0,0.0,0.0,0.0,0.0,0.0,2.6668,2.662,2.6945,2.7589,2.7484,2.7484,2.7437,2.6887,2.6752,2.6984,2.7187,2.7541,2.7955,2.774,2.7793,2.8018,2.8213,2.8291,2.8291,2.8291,2.8291,2.8291,0.0,0.0,0.0,0.0,0.0,0.0,0.0,0.0,0.0,2.6499,2.6499,2.6499,2.6499,2.6499,2.6499,0.0,0.0,0.0,2.5264,2.5264,2.5629,2.6452,2.6499,2.6499,2.6499,2.6499,2.6094,2.5264,2.6094,2.6499,2.6465,2.394,2.3404,2.4409,2.3294,2.3669,2.5135,2.5325,2.6186,2.7419,2.7419,2.7695,2.8059,2.7595,2.7419,2.7369,2.6939,2.6713,2.6637,2.6637,0.0,0.0,0.0,0.0,2.3988,2.3818,2.3891,2.4143,2.4801,2.4436,2.4066,2.4892,2.5699,2.6322,2.6396,2.6311,2.6519,2.7662,0.0,0.0,0.0,0.0,0.0,0.0,0.0,0.0,0.0,0.0,0.0,0.0,0.0,0.0,0.0,0.0,0.0,0.0,0.0,0.0,0.0,0.0,0.0,0.0,0.0,2.6149,2.6332,2.74,2.8002,2.8226,2.9039,2.9407,2.9361,2.8588,2.8085,2.793,2.8254,2.8466,2.8517,2.8299,2.8294,2.8405,2.8582,2.8804,2.8953,2.8751,2.8804,2.9006,0.0,0.0,0.0,0.0,0.0,0.0,0.0,0.0,0.0,0.0,2.6499,2.6499,2.6499,2.6499,2.6499,2.6499,2.6383,2.6314,2.6314,0.0,0.0,2.6487,2.6499,2.6499,2.6499,2.6499,2.6418,2.6314,2.6418,2.6499,2.6499,2.6082,2.4648,2.2515,2.4862,2.5825,2.5756,2.6633,2.7374,2.7996,2.7996,2.8047,2.8097,2.8021,2.7996,2.7984,2.7908,2.7582,2.7168,2.7168,2.6784,0.0,0.0,0.0,2.5943,2.504,2.5441,2.5954,2.5196,2.5501,2.6099,2.6232,2.6634,2.7102,0.0,0.0,2.8394,0.0,0.0,0.0,0.0,0.0,0.0,0.0,0.0,0.0,0.0,0.0,0.0,0.0,0.0,0.0,0.0,0.0,0.0,0.0,0.0,0.0,0.0,0.0,2.5693,2.5693,2.6754,0.0,2.8901,2.9085,2.967,3.0721,2.9806,2.9407,2.9453,3.0316,3.0135,2.9177,2.9198,2.9464,2.9792,3.027,3.0695,3.0915,3.0283,3.0721,3.1633,3.0473,3.0773,3.1774,0.0,0.0,0.0,0.0,0.0,0.0,0.0,0.0,0.0,0.0,0.0,2.6499,2.6499,2.6499,2.6499,2.6499,2.6499,2.6499,2.6499,2.6499,2.6499,2.6499,2.6499,2.6499,2.6499,2.6499,2.6499,2.6499,2.6499,2.6198,2.5664,2.6245,2.5791,2.4588,2.5648,2.632,2.6685,2.7415,2.8059,2.8561,2.8561,2.8762,2.9013,2.8687,2.8561,2.8524,2.821,2.7946,2.7745,2.7745,2.7369,2.6952,2.6952,0.0,0.0,0.0,2.6164,2.64,2.5977,2.705,2.8211,2.7574,2.7742,2.8087,2.836,2.8512,2.8869,0.0,0.0,0.0,0.0,0.0,0.0,0.0,0.0,0.0,0.0,0.0,0.0,0.0,0.0,0.0,0.0,0.0,0.0,0.0,0.0,0.0,0.0,2.7757,2.7757,2.7757,2.8308,0.0,2.9407,3.009,3.1045,3.2239,3.1745,3.1468,3.1512,3.2008,3.1601,3.0406,3.0406,3.0534,3.0674,3.0482,3.0703,3.1158,3.1041,3.1543,3.223,3.1622,3.1774,3.228,0.0,0.0,0.0,0.0,0.0,0.0,0.0,0.0,0.0,0.0,0.0,2.6499,2.6499,0.0,0.0,0.0,2.6499,2.6499,2.6499,2.6499,2.6499,2.6499,2.6499,2.6499,2.6499,2.6499,2.6499,2.6499,2.6499,2.6129,2.5406,2.6278,2.67,2.6691,2.6333,2.6735,2.772,2.8134,2.8637,2.9151,2.9151,2.9402,2.9741,2.9315,2.9151,2.9101,2.8687,2.8436,2.831,2.831,2.7946,2.7494,2.7494,2.7153,0.0,0.0,0.0,2.6914,2.6893,2.8307,2.9585,2.8727,2.8819,2.9104,0.0,0.0,0.0,0.0,0.0,0.0,0.0,0.0,0.0,0.0,0.0,0.0,0.0,0.0,0.0,0.0,0.0,0.0,0.0,0.0,0.0,0.0,0.0,0.0,2.9407,2.9407,2.9407,2.9407,2.9681,2.9863,2.9863,3.1089,3.214,3.3124,3.3124,3.3124,3.3124,3.3124,3.2556,3.1677,3.1677,3.1677,3.1637,3.1179,3.132,3.1898,3.1948,3.2548,3.3281,3.2944,3.3044,3.333,0.0,0.0,0.0,0.0,0.0,0.0,0.0,0.0,0.0,0.0,0.0,2.6499,2.6499,2.6499,2.6499,2.6499,2.6499,2.6499,2.6499,2.6499,2.6499,2.6499,2.6499,0.0,2.6499,2.6499,2.6499,2.6499,2.6499,2.6452,2.643,2.6992,2.7278,2.7278,2.7233,2.7822,2.8813,2.8838,2.9214,2.9741,2.9741,2.9767,2.9792,2.9767,2.9741,2.9741,2.9716,2.9352,2.885,2.885,2.8511,2.8059,2.8059,2.7682,2.7278,0.0,0.0,0.0,2.8011,2.8888,2.9792,2.9714,2.9727,2.9889,0.0,0.0,0.0,0.0,0.0,0.0,0.0,0.0,0.0,0.0,0.0,0.0,0.0,0.0,0.0,0.0,0.0,0.0,0.0,0.0,0.0,0.0,0.0,0.0,2.9407,2.9407,2.9407,2.9407,3.0496,3.1134,3.1134,3.2382,3.3025,3.3124,3.3124,3.3124,3.3124,3.3124,3.3068,3.2982,3.2982,3.2982,3.302,3.3483,3.4033,3.4446,3.3706,3.4533,3.6013,3.4775,3.5126,3.6203,0.0,0.0,0.0,0.0,0.0,0.0,0.0,0.0,0.0,0.0,0.0,0.0,0.0,2.6499,2.6499,2.6499,2.6499,2.6499,2.6499,2.6499,2.6499,2.6499,2.6499,2.6499,2.6499,2.6499,2.6499,2.6499,2.6499,2.6675,2.7027,2.7228,2.7657,2.8335,2.8335,2.8561,2.8913,2.9327,2.9603,2.9792,2.9792,2.9792,2.9792,2.9792,2.9792,2.9792,2.9792,0.0,2.9478,2.9478,2.9101,2.8599,2.8599,2.826,2.7808,2.7808,2.8197,2.8599,2.8599,2.9202,2.9792,2.9792,2.9792,2.9842,3.0043,3.0357,0.0,0.0,0.0,0.0,0.0,0.0,0.0,0.0,0.0,0.0,0.0,0.0,0.0,0.0,0.0,0.0,0.0,0.0,0.0,0.0,0.0,0.0,3.1789,3.1789,3.1789,3.1789,3.2196,3.2426,3.2426,3.2884,3.3124,3.3124,3.3124,3.3124,3.3124,3.3124,3.3124,3.3124,3.3124,3.3124,3.3093,3.3294,3.3696,3.4204,3.4276,3.4913,3.5834,3.5734,3.6013,3.6405,0.0,0.0,0.0,0.0,0.0,2.6499,2.6499,2.6499,2.6499,2.6499,0.0,0.0,0.0,0.0,2.6499,2.6499,2.6499,2.6499,2.6499,2.6499,2.6499,2.6499,2.6499,2.6499,2.6499,2.6499,2.6587,2.6776,2.6776,2.7052,2.7557,2.7745,2.8235,2.89,2.9101,2.9176,2.9239,2.9628,2.9792,2.9817,2.9993,3.0068,3.0093,3.0269,3.0331,3.0331,0.0,0.0,3.0068,3.0068,2.9691,2.9176,2.9176,2.8837,2.8348,2.816,2.8499,2.8888,2.8888,2.9352,2.9792,2.9792,2.9792,2.9792,2.9792,0.0,0.0,0.0,0.0,0.0,0.0,0.0,0.0,0.0,0.0,0.0,0.0,0.0,0.0,0.0,0.0,0.0,0.0,0.0,0.0,0.0,0.0,0.0,3.3124,3.3124,3.3124,3.3124,3.3124,3.3124,3.3124,3.3124,3.3124,3.3124,3.3124,3.3124,3.3124,3.3124,3.3124,3.3124,3.3124,3.3124,3.3124,3.3124,3.3407,3.3935,3.4299,3.4856,3.5545,3.5956,3.6207,3.6405,2.6499,2.6499,2.6499,2.6499,2.6499,2.6499,2.6499,2.6499,2.6499,2.6499,0.0,0.0,0.0,0.0,0.0,2.6549,2.6549,2.6549,2.6549,2.6549,2.6549,2.6549,2.6549,2.6549,2.6549,2.6549,2.6801,2.7306,2.7306,2.7595,2.8134,2.865,2.89,2.8938,2.9541,2.9792,2.9792,2.9792,2.9804,2.9867,3.0407,3.062,3.0696,3.1198,3.1386,0.0,3.1386,3.1072,0.0,3.0633,3.0269,2.9817,2.9792,2.9402,2.8813,2.831,2.8536,2.8913,0.0,0.0,0.0,0.0,0.0,0.0,2.9792,0.0,0.0,0.0,0.0,0.0,0.0,0.0,0.0,0.0,0.0,0.0,0.0,0.0,0.0,0.0,0.0,0.0,0.0,0.0,0.0,0.0,0.0,3.3124,3.3124,3.3124,3.3124,3.3124,3.3124,3.3124,3.3124,3.3124,3.3124,3.3124,3.3124,3.3124,3.3124,3.3124,3.3124,3.3124,3.3124,3.3124,3.3124,3.3124,3.3395,3.3872,3.3884,3.4562,3.5458,3.5495,3.5881,3.6392,2.6499,2.6499,2.6499,2.6499,2.6499,2.6499,2.6499,2.6499,2.6499,0.0,0.0,0.0,2.709,2.7406,2.7657,2.7657,2.7657,2.7657,2.7657,2.7657,2.7657,2.7657,2.7657,2.7657,2.7657,2.7657,2.772,2.7871,2.7871,2.816,2.8662,2.8813,2.9113,2.9566,2.9729,2.9792,2.9792,2.9792,3.0018,3.0407,3.0557,3.0834,3.1185,3.1336,0.0,0.0,0.0,3.1298,3.1173,0.0,3.0821,3.0319,2.9917,2.9679,2.9528,2.9365,2.9428,2.9553,2.9553,0.0,0.0,0.0,0.0,0.0,2.9792,2.9792,0.0,0.0,0.0,0.0,0.0,0.0,0.0,0.0,0.0,0.0,0.0,0.0,0.0,0.0,0.0,0.0,0.0,0.0,0.0,0.0,0.0,3.3124,3.3124,3.3124,3.3124,3.3124,3.3124,3.3124,3.3124,3.3124,3.3124,3.3124,3.3124,3.3124,3.3124,3.3124,3.3124,3.3124,3.3124,3.3124,3.3124,3.3124,3.3212,3.3345,3.3746,3.4085,3.4449,3.5207,3.5596,3.583,2.6499,2.6499,2.6499,2.6499,2.6499,2.6575,2.6801,2.6839,2.6927,0.0,0.0,0.0,2.762,2.7908,2.8109,2.8109,2.8109,2.8109,2.8109,2.8109,2.8109,2.8109,2.8109,2.8109,2.8109,2.8109,2.8222,2.8411,2.8411,2.8737,2.9289,2.9289,2.9465,2.9792,2.9792,2.9917,3.0131,3.0131,3.0319,3.0658,3.111,3.1461,3.1763,3.2001,3.2089,0.0,0.0,0.0,3.1738,3.1738,3.1386,0.0,0.0,0.0,3.0093,2.9867,2.9792,2.9792,2.9792,2.9792,0.0,0.0,0.0,0.0,2.9792,2.9792,2.9792,0.0,0.0,0.0,0.0,0.0,0.0,0.0,0.0,0.0,0.0,0.0,0.0,0.0,0.0,0.0,0.0,0.0,0.0,0.0,3.2378,3.2478,3.2704,3.2943,3.3124,3.3124,3.3124,3.3124,3.3124,3.3124,3.3124,3.3124,3.3124,3.3124,3.3124,3.3124,3.3124,3.3124,3.3124,3.3124,3.3124,3.3124,3.3124,3.3106,3.3432,3.3696,3.3972,3.4625,3.5107,3.5545,0.0,2.6499,2.6512,2.6575,2.6587,2.6776,2.7329,2.7369,2.7544,0.0,2.816,2.8222,2.8285,2.8298,2.8298,2.8298,2.8298,2.8298,2.8298,2.8298,2.8298,2.8298,2.8298,2.8298,2.8298,2.8298,2.8536,2.8988,2.8988,2.9289,2.9792,2.9792,2.9792,2.9792,2.9854,3.0156,3.062,3.0746,3.0796,3.0871,3.1825,3.2252,0.0,0.0,3.3212,3.3224,3.3244,3.2893,3.2378,3.2252,3.1888,0.0,0.0,0.0,0.0,0.0,2.9842,0.0,2.9792,2.9792,0.0,0.0,0.0,0.0,2.9792,2.9792,2.9792,0.0,0.0,0.0,0.0,0.0,0.0,0.0,0.0,0.0,0.0,0.0,0.0,0.0,0.0,0.0,0.0,0.0,0.0,3.1386,3.1386,3.1599,3.2102,3.2604,3.296,3.298,3.298,3.3048,3.3124,3.3124,3.3124,3.3124,3.3124,3.3124,3.3124,3.3124,3.3124,3.3124,3.3124,3.3124,3.3124,3.3124,3.3124,3.3124,3.3124,3.337,3.3822,3.3872,3.4512,3.532,2.6499,2.6499,2.6637,2.7077,2.7153,2.7306,2.7858,2.7946,2.7984,2.8097,2.8499,2.895,2.9415,2.9465,2.9465,2.9465,2.9465,2.9465,2.9465,2.9465,2.9465,2.9465,2.9465,2.9465,2.9465,2.9465,2.9515,2.9616,2.9616,2.9679,2.9792,2.9792,2.9792,2.9817,3.0256,3.052,3.067,3.1537,3.1901,3.1926,3.2127,3.2491,3.2968,3.352,3.3734,3.3796,3.4248,3.4048,3.3432,3.2516,3.2139,3.1951,0.0,0.0,0.0,3.0482,0.0,0.0,0.0,0.0,0.0,0.0,0.0,0.0,2.9792,2.9792,2.9792,0.0,0.0,0.0,0.0,0.0,0.0,0.0,0.0,0.0,0.0,0.0,0.0,0.0,0.0,0.0,0.0,0.0,3.1386,3.1386,3.1386,3.1436,3.1549,3.1662,3.1926,3.2365,3.239,3.2604,3.3111,3.3124,3.3124,3.3124,3.3124,3.3124,3.3124,3.3124,3.3124,3.3124,3.3124,3.3124,3.3124,3.3124,3.3124,3.3124,3.3124,3.3144,3.3294,3.3734,3.4035,3.4286,2.6901,2.7128,2.7369,2.7645,2.7695,2.7871,2.8436,2.8511,2.8624,2.8913,2.9189,2.9465,2.9767,2.9792,2.9792,2.9792,2.9792,2.9792,2.9792,2.9792,2.9792,2.9792,2.9792,2.9792,2.9792,2.9792,2.9792,2.9792,2.9792,2.9792,2.9804,3.0068,3.0206,3.0231,3.0758,3.1148,3.1449,3.1989,3.2378,3.2641,3.2641,0.0,3.352,3.3796,3.4073,3.4349,3.4625,3.4374,3.3809,3.3244,3.2867,0.0,0.0,3.1625,3.1361,0.0,3.062,3.0206,0.0,0.0,0.0,2.9792,0.0,0.0,0.0,2.9792,2.9792,0.0,0.0,0.0,0.0,0.0,0.0,0.0,0.0,0.0,0.0,0.0,0.0,0.0,0.0,0.0,0.0,0.0,3.0595,3.0595,3.0846,3.0997,3.0997,3.1248,3.1512,3.1788,3.2077,3.2353,3.2641,3.293,3.3124,3.3124,3.3124,3.3124,3.3124,3.3124,3.3124,3.3124,3.3124,3.3124,3.3124,3.3124,3.3124,3.3124,3.3124,3.3124,3.3106,3.3382,3.3658,3.3935,2.7457,2.7795,2.8134,2.8247,2.826,2.8448,2.8976,2.9051,2.9302,2.988,2.9942,2.9993,3.0093,3.0105,3.0105,3.0105,3.0105,3.0105,3.0105,3.0105,3.0105,3.0105,3.0105,3.0055,2.9955,2.9942,2.9892,2.9792,2.9892,2.9942,2.9967,3.0507,3.0758,3.0783,3.1311,3.1788,3.2227,3.2328,3.2704,3.3232,0.0,3.3508,3.3922,3.4135,3.45,3.4831,3.4831,3.46,3.4198,3.4098,3.3696,3.3156,3.2692,3.239,0.0,0.0,0.0,0.0,0.0,0.0,0.0,0.0,0.0,2.9792,0.0,0.0,0.0,0.0,0.0,0.0,0.0,0.0,0.0,0.0,0.0,0.0,0.0,0.0,0.0,0.0,0.0,0.0,0.0,0.0,2.9792,2.9792,3.0206,3.0457,3.0457,3.0859,3.1135,3.1235,3.1763,3.2102,3.2215,3.278,3.3124,3.3124,3.3124,3.3124,3.3124,3.3124,3.3124,3.3124,3.3124,3.3124,3.3124,3.3124,3.3124,3.3124,3.3124,3.3124,3.3124,3.3124,3.3357,3.3746,2.8109,2.8059,2.826,2.8712,2.88,2.9026,2.9603,2.9691,2.9892,3.0457,3.052,3.0696,3.116,3.121,3.121,3.121,3.121,3.121,3.121,3.121,3.121,3.121,3.121,3.0997,3.0532,3.052,3.0281,2.9792,3.0281,3.052,3.0532,3.106,3.1298,3.1323,3.1876,3.2152,3.2252,3.2754,3.3294,0.0,3.3809,3.3847,0.0,3.4944,3.5357,3.5408,3.5408,3.537,3.5245,0.0,3.4261,3.3796,0.0,3.3018,3.2202,3.2139,0.0,0.0,0.0,0.0,0.0,0.0,3.0156,0.0,0.0,0.0,0.0,0.0,0.0,0.0,0.0,0.0,0.0,0.0,0.0,0.0,0.0,0.0,0.0,0.0,0.0,0.0,0.0,0.0,0.0,2.9792,2.9854,2.988,2.988,2.9942,3.0193,3.0683,3.121,3.1725,3.2202,3.278,3.3124,3.3124,3.3124,3.3124,3.3124,3.3124,3.3124,3.3124,3.3124,3.3124,3.3124,3.3124,3.3124,3.3124,3.3124,3.3124,3.3124,3.3124,3.3162,3.3212,2.8699,2.885,2.9164,2.939,2.9428,2.9515,2.9754,3.0068,3.047,3.0997,3.106,3.1148,3.1361,3.1386,3.1386,3.1386,3.1386,3.1386,0.0,3.1386,3.1386,3.1386,3.1386,3.1286,3.1072,3.106,3.0947,3.0721,3.0947,3.106,3.1085,3.1612,3.1863,3.1888,3.2466,3.2893,3.3206,0.0,3.3872,0.0,0.0,0.0,0.0,3.532,3.5696,3.6019,3.6019,3.5818,3.547,0.0,3.4826,0.0,0.0,0.0,0.0,0.0,0.0,0.0,0.0,0.0,0.0,0.0,0.0,0.0,3.0269,0.0,2.9792,0.0,0.0,0.0,0.0,0.0,0.0,0.0,0.0,0.0,0.0,0.0,0.0,0.0,0.0,0.0,0.0,0.0,0.0,0.0,0.0,2.9792,2.9792,2.9792,2.9892,3.0131,3.0658,3.1198,3.1725,3.229,3.2742,3.3124,3.3124,3.3124,3.3124,3.3124,3.3124,3.3124,3.3124,3.3124,3.3124,3.3124,3.3124,3.3124,3.3124,3.3124,3.3124,3.3124,3.3124,3.3124,2.9402,2.9603,2.9792,2.9792,2.9917,3.0068,3.0218,3.057,3.1072,3.1763,3.1851,3.1964,3.2265,3.2303,3.2303,3.2303,3.2303,3.2303,0.0,0.0,3.224,3.2089,3.2077,3.1938,3.1625,3.1612,3.1537,3.1386,3.1537,3.1612,3.1625,3.219,3.2453,3.2466,3.3043,3.352,3.3909,0.0,3.4449,3.4944,3.5332,3.5596,3.5768,3.5768,3.6019,3.6405,3.6405,3.6107,3.5768,3.5768,3.5403,0.0,3.4474,0.0,0.0,0.0,0.0,0.0,3.2453,0.0,0.0,0.0,0.0,0.0,0.0,0.0,0.0,0.0,0.0,0.0,0.0,0.0,0.0,0.0,0.0,0.0,0.0,0.0,0.0,0.0,0.0,0.0,0.0,0.0,0.0,0.0,0.0,0.0,2.9792,2.9792,2.9792,2.9792,3.0331,3.0871,3.1386,3.1938,3.2503,3.3124,3.3124,3.3124,3.3124,3.3124,3.3124,3.3124,3.3124,3.3124,3.3124,3.3124,3.3124,3.3124,3.3124,3.3124,3.3124,3.3124,3.3124,3.3124,3.0457,3.0143,2.9792,2.9792,3.0231,3.0758,3.126,3.1348,3.1763,3.2923,3.3074,3.3432,0.0,0.0,0.0,0.0,0.0,3.4568,3.4568,0.0,3.4374,0.0,0.0,3.3307,3.2215,3.219,3.1926,3.1386,3.1926,3.219,3.2202,3.278,3.3056,3.3068,3.3621,3.3884,3.3935,3.4462,3.4969,3.547,3.5495,3.5868,3.638,0.0,3.6392,3.6405,3.6405,0.0,0.0,3.638,3.5968,0.0,0.0,0.0,0.0,0.0,0.0,0.0,0.0,0.0,0.0,3.219,0.0,0.0,0.0,0.0,3.0432,0.0,0.0,0.0,0.0,0.0,2.9616,2.9013,0.0,0.0,0.0,0.0,0.0,0.0,0.0,0.0,0.0,0.0,0.0,0.0,0.0,0.0,2.9792,2.9792,2.9792,2.9792,3.0331,3.0871,3.1386,3.1938,3.2503,3.3124,3.3124,3.3124,3.3124,3.3124,3.3124,3.3124,3.3124,3.3124,3.3124,3.3124,3.3124,3.3124,3.3124,3.3124,3.3124,3.3124,3.3124,3.3124,3.1085,3.0972,3.0846,3.0846,3.0997,3.1311,3.1851,3.2265,3.278,0.0,3.3935,0.0,0.0,3.468,3.468,0.0,0.0,3.468,3.468,3.468,0.0,0.0,0.0,3.4261,0.0,3.3828,3.3608,3.3056,3.3244,3.3144,3.2805,3.3357,3.3621,3.3646,3.4198,3.465,0.0,0.0,0.0,0.0,0.0,3.6194,3.6405,0.0,0.0,3.6405,3.6405,3.6405,0.0,3.6405,3.6279,3.6031,3.5621,3.5245,3.4868,3.455,3.406,0.0,0.0,0.0,3.278,3.278,0.0,0.0,0.0,0.0,0.0,0.0,0.0,0.0,0.0,0.0,2.9729,2.9528,2.8875,0.0,0.0,0.0,0.0,0.0,0.0,0.0,0.0,0.0,0.0,0.0,0.0,0.0,0.0,2.9792,2.9792,2.9792,2.998,3.0495,3.1386,3.1574,3.2139,3.3124,3.3124,3.3124,3.3124,3.3124,3.3124,3.3124,3.3124,3.3124,3.3124,3.3124,3.3124,3.3124,3.3124,3.3124,3.3124,3.3124,3.3124,3.3124,3.165,3.1687,3.1625,3.1424,3.1549,3.1938,3.2692,3.3131,0.0,0.0,3.4756,0.0,3.5278,0.0,3.5303,0.0,3.5303,3.5303,3.5303,3.5303,0.0,3.4969,3.4969,0.0,0.0,0.0,0.0,3.4198,3.4198,3.401,3.3671,3.4022,3.4198,3.4211,3.4731,3.5169,3.5508,3.5708,3.6031,0.0,0.0,3.6405,0.0,0.0,3.6405,3.6405,0.0,3.6405,3.6405,3.6405,3.6405,3.6342,3.5943,3.5658,3.5433,3.5069,3.4625,3.4148,3.3947,3.3633,0.0,0.0,3.2805,0.0,3.2252,0.0,0.0,0.0,0.0,0.0,0.0,0.0,2.9792,2.9792,2.9001,2.826,0.0,2.7065,0.0,0.0,0.0,0.0,0.0,0.0,0.0,0.0,0.0,0.0,0.0,0.0,2.9792,2.9792,2.9792,3.0306,3.1386,3.1386,3.1951,3.3124,3.3124,3.3124,3.3124,3.3124,3.3124,3.3124,3.3124,3.3124,3.3124,3.3124,3.3124,3.3124,3.3124,3.3124,3.3124,3.3124,3.3124,3.3124,3.2227,3.234,3.2177,3.165,3.1964,0.0,0.0,0.0,3.4361,0.0,3.552,3.578,3.6355,3.6405,3.6405,3.6405,3.6405,3.6405,3.6405,3.6405,0.0,0.0,3.5533,3.5295,3.4813,0.0,0.0,0.0,0.0,3.4751,3.468,3.4751,3.4718,3.4743,3.5295,3.5533,3.5571,3.6144,3.6405,3.6405,3.6405,3.6405,3.6405,3.6405,0.0,3.6405,3.6405,3.6405,3.6405,3.6405,3.6405,3.6405,3.6405,3.6006,3.5533,3.5533,3.5144,3.465,3.4123,3.3935,3.3771,3.3257,0.0,0.0,0.0,0.0,3.2064,0.0,0.0,0.0,0.0,0.0,0.0,2.9792,2.9302,2.8512,0.0,0.0,0.0,0.0,0.0,0.0,0.0,0.0,0.0,0.0,0.0,0.0,0.0,0.0,0.0,2.9792,2.9792,3.0306,3.1386,3.1386,3.1951,3.3124,3.3124,3.3124,3.3124,3.3124,3.3124,3.3124,3.3124,3.3124,3.3124,3.3124,3.3124,3.3124,3.3124,3.3124,3.3124,3.3124,3.3124,3.3124,3.4048,3.4085,3.3991,0.0,3.3646,3.3709,0.0,0.0,0.0,0.0,3.5893,3.6207,3.6392,3.6405,3.6405,3.6405,3.6405,0.0,0.0,0.0,0.0,3.6157,3.6157,3.6081,3.5943,3.5943,0.0,3.5282,0.0,3.5082,3.4726,3.5094,3.5282,3.5307,3.5906,3.6157,3.6157,3.6342,3.6405,3.6405,3.6405,3.6405,0.0,0.0,3.6405,3.6405,3.6405,3.6405,3.6405,3.6405,3.6405,3.6405,3.6405,3.6304,3.6157,3.6157,3.5768,3.5257,3.5119,3.4525,3.3872,3.3721,3.3382,3.3074,0.0,0.0,0.0,0.0,0.0,0.0,0.0,0.0,0.0,2.9854,2.9302,2.865,0.0,0.0,0.0,0.0,0.0,0.0,0.0,0.0,0.0,0.0,0.0,0.0,0.0,0.0,0.0,2.9792,2.9792,3.0306,3.1386,3.1386,3.1951,3.3124,3.3124,3.3124,3.3124,3.3124,3.3124,3.3124,3.3124,3.3124,3.3124,3.3124,3.3124,3.3124,3.3124,3.3124,3.3124,3.3124,3.3124,3.3124,3.468,3.468,3.4756,3.4994,0.0,0.0,3.4994,3.5307,0.0,3.5868,3.6169,0.0,3.6405,3.6405,3.6405,3.6405,3.6405,0.0,3.6405,0.0,0.0,3.6405,3.6405,3.6405,3.6405,3.6405,0.0,3.5893,0.0,3.5742,3.5441,3.5755,3.5893,3.5918,3.6267,3.6405,3.6405,3.6405,3.6405,3.6405,3.6405,0.0,0.0,3.6405,3.6405,3.6405,3.6405,3.6405,3.6405,3.6405,3.6405,3.6405,3.6405,3.6405,3.6405,3.6405,3.6144,3.5855,3.5558,3.5044,3.4562,3.4324,3.3847,3.3432,3.3432,3.3006,3.2591,0.0,0.0,0.0,0.0,0.0,0.0,0.0,0.0,0.0,0.0,0.0,0.0,0.0,0.0,0.0,0.0,0.0,0.0,0.0,0.0,0.0,0.0,0.0,0.0,0.0,2.9792,3.0306,3.1386,3.1386,3.1951,3.3124,3.3124,3.3124,3.3124,3.3124,3.3124,3.3124,3.3124,3.3124,3.3124,3.3124,3.3124,3.3124,3.3124,3.3124,3.3124,3.3124,3.3124,3.3154,3.4939,3.4939,0.0,0.0,0.0,0.0,0.0,3.5608,0.0,3.6342,0.0,3.643,3.6505,3.6518,3.6543,3.6619,0.0,3.6518,3.6518,3.6455,3.6405,3.6405,3.6405,3.6405,3.6405,3.6405,3.6405,0.0,3.6405,3.6405,3.6405,3.6405,3.6405,3.6405,3.6405,0.0,0.0,3.6405,3.6405,3.6405,3.6405,3.6405,3.6405,3.6405,3.6405,3.6405,3.6405,3.6405,3.6405,3.6405,3.6405,3.6405,3.6405,3.6405,3.6405,3.6405,3.6405,3.6304,3.578,3.5558,3.5382,3.4906,3.4412,3.3985,3.3922,3.3533,3.3169,3.3093,3.2679,0.0,0.0,0.0,0.0,0.0,0.0,0.0,0.0,0.0,0.0,0.0,0.0,0.0,0.0,0.0,0.0,0.0,0.0,0.0,0.0,0.0,0.0,0.0,2.9792,0.0,3.1386,0.0,3.1951,3.3124,3.3124,3.3124,3.3124,3.3124,3.3124,3.3124,3.324,3.324,3.3124,3.324,3.3313,3.3313,3.3313,3.3398,3.3513,3.3513,3.3513,3.3628,3.6116,3.6116,0.0,0.0,0.0,3.6267,3.6267,3.6267,3.6304,3.6405,3.6405,3.6581,3.6985,3.7036,3.7224,3.7676,3.7299,0.0,0.0,0.0,0.0,3.6405,3.6405,3.6405,3.6405,3.6405,3.6405,0.0,3.6405,3.6405,3.6405,3.6405,3.6405,3.6405,3.6405,0.0,3.6405,3.6405,0.0,3.6405,3.6405,3.6405,3.6405,3.6405,3.6405,3.6405,3.6405,3.6405,3.6405,3.6405,3.6405,3.6405,3.6405,3.6405,3.6405,3.6405,3.6405,3.6392,3.6292,3.5893,3.547,3.537,3.4944,3.4462,3.401,3.3822,3.3621,3.3212,3.3006,3.278,3.2303,0.0,0.0,0.0,0.0,0.0,0.0,0.0,0.0,0.0,0.0,0.0,0.0,0.0,0.0,0.0,0.0,0.0,0.0,0.0,0.0,0.0,0.0,0.0,0.0,0.0,0.0,3.3124,3.3124,3.3124,3.3124,3.3124,3.3124,3.3154,3.4037,3.3911,3.3154,3.4037,3.4428,3.4428,3.4428,3.4925,3.5654,3.5654,3.5654,3.5588,3.6405,0.0,0.0,0.0,0.0,0.0,0.0,3.6405,0.0,3.6405,3.6656,3.6885,3.7149,3.7437,3.7713,3.799,3.7764,3.7613,3.7613,3.7098,3.6784,3.6784,3.6568,0.0,3.6405,3.6405,3.6405,3.6405,3.6405,3.6405,3.6405,3.6405,3.6405,3.6405,3.6405,3.6405,0.0,0.0,0.0,3.6405,3.6405,3.6405,3.6405,3.6405,3.6405,3.6405,3.6405,3.6405,3.6405,3.6405,3.6405,3.6405,3.6405,3.6405,3.6405,3.6405,3.6405,3.6405,3.6405,3.6169,3.5968,3.5968,3.5554,3.5031,3.4768,3.4311,3.3822,3.3558,3.3269,3.3106,3.3014,3.2959,0.0,0.0,0.0,0.0,0.0,0.0,0.0,0.0,0.0,0.0,0.0,0.0,0.0,0.0,0.0,0.0,0.0,0.0,0.0,0.0,0.0,0.0,0.0,0.0,0.0,3.3911,3.3356,3.3124,3.3124,3.3124,3.3398,3.3953,3.447,3.4692,3.4719,3.4692,3.502,3.544,3.4897,3.5319,3.6198,3.6198,3.6565,3.6944,0.0,3.6405,0.0,0.0,3.6405,0.0,3.6568,3.6581,3.6581,3.6581,3.6958,3.7274,3.7513,3.7927,3.8241,3.8354,3.8253,3.8191,3.8191,3.7663,3.7312,3.7186,3.682,3.6531,3.6405,3.6405,3.6405,0.0,3.6405,3.6405,0.0,3.6405,3.6405,0.0,0.0,0.0,0.0,0.0,3.6405,3.6405,3.6405,3.6405,3.6405,3.6405,3.6405,3.6405,3.6405,3.6405,3.6405,3.6405,3.6405,3.6405,3.6405,3.6405,3.6405,3.6405,3.6405,3.6405,3.6405,3.6405,3.6405,3.6405,3.6031,3.5646,3.552,3.4776,3.4035,3.3922,3.3662,3.353,3.3922,3.4233,0.0,0.0,0.0,0.0,0.0,0.0,0.0,0.0,0.0,0.0,0.0,0.0,0.0,0.0,0.0,2.895,2.9063,2.9541,0.0,0.0,0.0,0.0,3.2974,0.0,3.3754,0.0,3.4137,3.3742,3.3742,3.3742,3.422,3.502,3.5251,3.5802,3.6448,3.544,3.5641,3.6448,3.5682,3.6001,3.6877,3.6877,3.7405,3.8144,0.0,0.0,0.0,0.0,0.0,0.0,0.0,3.7111,3.7111,3.7111,3.7149,3.7575,3.8655,3.8806,3.8994,3.9496,3.9082,3.8844,3.8844,3.8253,3.7713,3.7211,3.7136,3.692,3.6417,3.6405,3.6405,0.0,0.0,3.6405,0.0,0.0,0.0,0.0,0.0,0.0,0.0,3.6405,3.6405,3.6405,3.6405,3.6405,3.6405,3.6405,3.6405,3.6405,3.6405,3.6405,3.6405,3.6405,3.6405,3.6405,3.6405,3.6405,3.6405,3.6405,3.6405,3.6405,3.6405,3.6405,3.6405,3.6405,3.6367,3.6157,3.5608,3.5031,3.45,3.401,3.4268,3.4568,3.4598,3.5648,3.6037,0.0,0.0,0.0,0.0,0.0,0.0,0.0,0.0,0.0,0.0,0.0,0.0,0.0,0.0,2.9126,2.9679,2.9767,0.0,2.9792,0.0,3.1785,3.2974,3.381,0.0,3.6053,3.5974,3.5934,3.5934,3.5934,3.596,3.6132,3.7074,3.7548,3.7548,3.6487,3.6696,3.7625,3.7548,3.8144,3.9104,3.9104,3.9177,3.9265,0.0,0.0,0.0,0.0,0.0,0.0,0.0,3.7676,3.7801,3.8153,3.8191,3.8416,3.8869,3.917,3.9459,3.9672,3.9484,3.9371,3.9371,3.8831,3.8429,3.8253,3.755,3.7073,3.686,3.6581,3.6405,0.0,0.0,0.0,0.0,0.0,0.0,0.0,0.0,3.6405,3.6405,3.6405,3.6405,3.6405,3.6405,3.6405,3.6405,3.6405,3.6405,3.6405,3.6405,3.6405,3.6405,3.6405,3.6405,3.6405,3.6405,3.6405,3.6405,3.6405,3.6405,3.6405,3.6405,3.6405,3.6405,3.6405,3.6405,3.6355,3.6094,3.5604,3.5234,3.5337,3.5493,3.5588,3.5588,3.6578,3.7261,0.0,0.0,0.0,0.0,0.0,0.0,0.0,0.0,0.0,0.0,0.0,0.0,0.0,0.0,0.0,2.9779,3.0317,0.0,3.062,0.0,3.3924,3.479,3.5488,3.6297,3.7137,3.6526,3.6198,3.6198,3.6198,3.6565,3.7214,3.8294,3.8745,3.8671,3.7625,3.7776,3.8708,3.8032,3.8472,3.9388,3.9388,3.9388,3.9388,3.6656,0.0,3.6973,0.0,3.7425,3.7613,3.8178,3.8253,3.8467,3.9044,3.9158,3.9158,3.9158,3.9459,3.9697,3.9697,3.9697,3.9697,3.9697,3.9333,3.9044,3.8932,3.8152,0.0,3.7199,3.6857,3.6568,3.6405,3.6405,0.0,0.0,0.0,0.0,0.0,3.6405,3.6405,3.6405,3.6405,3.6405,3.6405,3.6405,3.6405,3.6405,3.6405,3.6405,3.6405,3.6405,3.6405,3.6405,3.6405,3.6405,3.6405,3.6405,3.6405,3.6405,3.6405,3.6405,3.6405,3.6405,3.6405,3.6405,3.6405,3.6405,3.6499,3.6803,3.6151,3.559,3.6009,3.6566,3.6906,3.6724,3.7534,3.8289,0.0,0.0,0.0,0.0,0.0,0.0,0.0,3.5504,3.5504,3.5504,0.0,0.0,0.0,0.0,0.0,0.0,0.0,0.0,0.0,0.0,0.0,0.0,0.0,3.7601,3.8271,3.7496,3.7123,3.7123,3.7123,3.7572,3.8308,3.9068,3.9388,3.9337,3.8583,3.8708,3.9301,3.8583,3.8745,3.9388,3.9388,3.9388,3.9388,3.7174,3.7613,3.799,3.8002,3.8002,3.8191,3.8781,3.8906,3.9057,3.9609,3.9685,3.9685,3.9685,3.9697,3.9697,3.9697,3.9697,3.9697,3.9697,3.9685,3.9433,0.0,0.0,3.8329,3.7211,3.7174,3.6958,3.6405,0.0,0.0,3.6405,0.0,0.0,3.6405,3.6405,3.6405,3.6405,3.6405,3.6405,3.6405,3.6405,3.6405,3.6405,3.6405,3.6405,3.6405,3.6405,3.6405,3.6405,3.6405,3.6405,3.6405,3.6405,3.6405,3.6405,3.6405,3.6405,3.6405,3.6405,3.6405,3.6405,3.6405,3.6405,3.6675,3.7802,3.6759,3.5489,3.5486,3.7232,3.8577,3.7906,3.8671,3.9164,3.8497,0.0,0.0,0.0,0.0,0.0,0.0,3.5504,3.5504,3.5504,0.0,0.0,0.0,0.0,0.0,0.0,0.0,0.0,3.2558,3.4164,0.0,3.6006,3.7597,3.8736,3.9388,3.9373,3.9337,3.9337,3.9337,3.9373,3.9388,3.9388,3.9388,3.9388,3.9388,3.9388,3.9388,3.9388,3.9388,3.9388,3.9388,3.9388,3.9388,3.7751,3.7889,3.8128,3.853,3.8592,3.8781,3.9346,3.9433,3.9496,3.9672,3.9697,3.9697,3.9697,3.9697,3.9697,0.0,3.9697,3.9697,0.0,3.9697,3.9609,3.9433,3.912,3.8756,3.8391,3.7952,3.7475,3.6971,0.0,0.0,0.0,3.6405,3.6405,3.6405,3.6405,3.6405,3.6405,3.6405,3.6405,3.6405,3.6405,3.6405,3.6405,3.6405,3.6405,3.6405,3.6405,3.6405,3.6405,3.6405,3.6405,3.6405,3.6405,3.6405,3.6405,3.6405,3.6405,3.6405,3.6405,3.6405,3.6405,3.6405,3.6405,3.6709,3.7848,3.8563,3.8751,3.8041,3.8959,3.9606,3.8673,3.9003,3.9313,3.9125,0.0,0.0,0.0,0.0,0.0,0.0,3.6178,3.5998,0.0,3.5213,0.0,0.0,0.0,0.0,0.0,0.0,0.0,0.0,3.5799,0.0,3.7612,3.8594,3.92,3.9388,3.9388,3.9388,3.9388,3.9388,3.9388,3.9388,3.9388,3.9388,3.9388,3.9388,3.9388,3.9388,3.9388,3.9388,3.9388,3.9388,3.9388,3.9388,3.8329,3.8504,3.8755,3.912,3.9182,3.9295,3.9647,3.9697,3.9697,3.9697,3.9697,3.9697,3.9697,3.9697,0.0,3.9697,3.9697,3.9697,3.9697,3.9697,3.9697,3.9697,3.9371,3.9082,3.8881,0.0,0.0,3.75,3.7287,3.6958,3.6405,3.6405,3.6405,3.6405,3.6405,3.6405,3.6405,3.6405,3.6405,3.6405,3.6405,3.6405,3.6405,3.6405,3.6405,3.6405,3.6405,3.6405,3.6405,3.6405,3.6405,3.6405,3.6405,3.6405,3.6405,3.6405,3.6405,3.6405,3.6405,3.6405,3.6499,3.693,3.7023,3.7322,3.8514,4.0266,4.1239,3.9884,4.0444,4.0777,3.9639,3.9617,3.9709,3.9454,0.0,3.8691,0.0,0.0,0.0,0.0,0.0,0.0,0.0,3.6222,0.0,0.0,0.0,0.0,0.0,0.0,0.0,3.5883,3.7129,0.0,3.8392,3.9065,3.9388,3.9388,3.9388,3.9388,3.9388,3.9388,3.9388,3.9388,3.9388,3.9388,3.9388,3.9388,3.9388,3.9388,3.9388,3.9388,3.9388,3.9388,3.9388,3.9388,3.8982,3.9346,0.0,0.0,3.9697,0.0,3.9697,3.9697,3.9697,3.9697,3.9697,3.9697,3.9697,3.9697,3.9697,3.9697,0.0,0.0,0.0,3.9697,3.9697,3.9697,3.9697,0.0,3.8994,3.8982,3.8642,3.8065,3.7513,3.6973,3.6518,3.648,3.6468,3.6468,3.643,3.6405,3.6405,3.6405,3.6405,3.6405,3.6405,3.6405,3.6405,3.6405,3.6405,3.6405,3.6405,3.6405,3.6405,3.6405,3.6405,3.6405,3.6405,3.6405,3.6405,3.6405,3.6405,3.6405,3.6499,3.6546,3.6803,3.7939,3.8289,3.8649,3.9754,4.174,4.2817,4.1137,4.1661,4.2021,4.0771,4.0457,4.0202,3.9553,3.9454,3.9185,3.8556,0.0,0.0,0.0,0.0,0.0,0.0,3.7404,3.7404,0.0,0.0,0.0,0.0,0.0,0.0,3.7464,3.8063,3.8407,3.8467,3.9095,3.9388,3.9388,3.9388,3.9388,3.9388,3.9388,3.9388,3.9388,3.9388,3.9388,3.9388,3.9388,3.9388,3.9388,3.9388,3.9388,3.9388,3.9388,3.9388,3.9388,0.0,0.0,3.9697,3.9697,3.9697,3.9697,3.9697,3.9697,3.9697,3.9697,3.9697,3.9697,3.9697,3.9697,3.9697,3.9697,3.9697,3.9697,3.9697,3.9697,3.9697,3.9697,3.9697,3.9634,3.9496,3.9496,3.922,3.8668,3.809,3.7751,3.7613,3.7186,3.6985,3.6973,3.6593,3.6405,3.6405,3.6405,3.6405,3.6405,3.6405,3.6405,3.6405,3.6405,3.6405,3.6405,3.6405,3.6405,3.6405,3.6405,3.6405,3.6405,3.6405,3.6405,3.6405,3.6405,3.6405,3.6581,3.7461,3.7723,3.7984,3.9183,4.0131,4.0859,4.1127,4.229,4.3165,4.2748,4.2529,4.2306,4.1991,4.107,4.0352,4.0187,3.9753,3.9328,3.92,0.0,0.0,0.0,3.8153,3.7958,3.7464,3.7404,3.7404,0.0,0.0,0.0,0.0,0.0,3.8003,3.8153,3.8302,3.8646,3.917,3.9298,3.9388,3.9388,3.9388,3.9388,3.9388,3.9388,3.9388,3.9388,3.9388,3.9388,3.9388,3.9388,3.9388,3.9388,3.9388,3.9388,3.9388,3.9388,3.9388,3.9388,3.9697,3.9697,3.9697,3.9697,3.9697,3.9697,3.9697,3.9697,3.9697,3.9697,3.9697,3.9697,3.9697,3.9697,3.9697,3.9697,3.9697,3.9697,3.9697,3.9697,3.9697,3.9697,3.9697,3.9697,3.9697,3.9697,3.9421,3.8919,3.8555,3.8266,3.8002,3.7701,3.7563,3.7538,3.6985,3.6782,3.6769,3.6518,3.6405,3.6405,3.6405,3.6405,3.6405,3.6405,3.6405,3.6405,3.6405,3.6405,3.6499,3.7023,3.7196,3.7196,3.7196,3.7553,3.7906,3.7335,3.7196,3.7415,3.8604,3.8917,3.9227,4.039,4.1518,4.2371,4.2371,4.286,4.329,4.329,4.3045,4.2716,4.2455,4.1811,4.11,4.0502,4.0098,3.9768,3.9454,3.9388,0.0,3.8901,3.8856,3.8721,3.8362,3.8332,3.8332,3.8332,0.0,0.0,3.8841,3.8856,3.8856,3.8856,3.8856,3.9035,3.9388,3.9388,3.9388,3.9388,3.9723,3.9873,3.9873,3.9873,3.9873,3.9843,3.9508,3.9388,3.9388,3.9388,3.9388,3.9388,3.9388,3.9388,3.9388,3.9388,3.9388,3.9388,3.9697,3.9697,3.9697,3.9697,3.9697,3.9697,3.9697,3.9697,3.9697,3.9697,3.9697,3.9697,3.9697,3.9697,3.9697,3.9697,3.9697,3.9697,3.9697,3.9697,3.9697,3.9697,3.9697,3.9697,3.9697,3.9697,3.9471,3.9045,3.9045,3.8743,3.8253,3.8178,3.814,3.8115,3.755,3.7312,3.7274,3.6857,3.6606,3.6531,3.6531,3.648,3.6405,3.6405,3.6499,3.6628,3.6452,3.6628,3.7023,3.7848,3.8198,3.8379,3.8379,3.905,3.9711,3.8859,3.8635,3.8859,3.9885,4.0275,4.0632,4.1601,4.2589,4.329,4.329,4.329,4.329,4.329,4.329,4.3125,4.265,4.247,4.2036,4.0876,4.0531,4.0202,3.9649,0.0,3.9388,3.9388,3.9388,3.9388,3.9388,3.9388,3.9388,3.9388,3.9388,0.0,0.0,3.9388,3.9388,3.9388,3.9388,3.9433,3.9574,3.9574,3.9619,3.9723,4.0277,4.0546,4.0546,4.0546,4.0546,4.0502,3.9843,3.9574,3.9559,3.9454,3.9388,3.9388,3.9388,3.9388,3.9388,3.9388,3.9388,3.9388,3.9697,3.9697,3.9697,3.9697,3.9697,3.9697,3.9697,3.9697,3.9697,3.9697,3.9697,3.9697,3.9697,3.9697,3.9697,3.9697,3.9697,3.9697,3.9697,3.9697,3.9697,3.9697,3.9697,3.9697,3.9697,3.9697,3.9647,3.9572,3.9572,3.9521,3.9421,3.8956,3.8781,3.8718,3.8128,3.7877,3.7877,3.7789,3.7475,3.7109,3.7109,3.6772,3.6405,3.6405,3.7023,3.7723,3.6756,3.7691,3.9241,3.8379,3.8783,3.9623,3.9623,3.9768,4.0059,4.0817,4.107,4.1112,4.1295,4.2029,4.282,4.2981,4.3155,4.329,4.329,4.329,4.329,4.329,4.329,4.326,4.317,4.2731,4.2336,4.2126,4.113,4.0367,0.0,0.0,3.9388,3.9388,3.9388,3.9388,3.9388,3.9388,3.9388,3.9388,3.9388,3.9388,3.9388,3.9388,3.9388,3.9388,3.9388,3.9694,4.0247,4.0247,4.0531,4.107,4.119,4.1235,4.1235,4.1235,4.1235,4.119,4.0531,4.0247,4.0202,3.9649,3.9388,3.9388,3.9388,3.9388,3.9388,3.9388,3.9388,3.9499,3.9697,3.9697,3.9697,3.9697,3.9697,3.9697,3.9697,3.9697,3.9697,3.9697,3.9697,3.9697,3.9697,3.9697,3.9697,3.9697,3.9697,3.9697,3.9697,3.9697,3.9697,3.9697,3.9697,3.9697,3.9697,3.9697,3.9697,3.9697,3.9697,3.9697,3.9685,3.9433,3.932,3.9295,3.873,3.8467,3.8442,3.814,3.7864,3.7674,3.8399,3.8519,3.8368,3.9031,3.9664,4.0015,3.948,3.9983,4.0886,4.0628,4.0879,4.1312,4.093,4.1225,4.1699,4.1643,4.2029,4.2508,4.2508,4.29,4.329,4.329,4.329,4.329,4.329,4.329,4.329,4.329,4.329,4.329,4.329,4.309,4.2776,4.2455,4.1886,0.0,0.0,4.0666,4.0472,4.0472,4.0472,4.0472,4.0472,4.0472,4.0472,4.0472,4.0472,4.0472,4.0472,4.0472,4.0472,4.0472,4.0127,4.0262,4.092,4.0935,4.1085,4.1422,4.1782,4.1946,4.1946,4.1946,4.1946,4.1916,4.1205,4.0935,4.0905,4.0591,4.0472,4.0472,4.0472,4.0472,4.0472,4.0472,4.0472,4.0516,3.9697,3.9697,3.9697,3.9697,3.9697,3.9697,3.9697,3.9697,3.9697,3.9697,3.9697,3.9697,3.9697,3.9697,3.9697,3.9697,3.9697,3.9697,3.9697,3.9697,3.9697,3.9697,3.9697,3.9697,3.9697,3.9697,3.9697,3.9697,3.9697,3.9697,3.9697,3.9697,3.9839,4.0109,3.9728,3.9675,3.9923,3.9473,3.9203,3.9171,4.0177,4.0462,4.0468,4.1425,4.197,4.2164,4.1925,4.215,4.2628,4.2783,4.3023,4.3133,4.2451,4.2824,4.3309,4.2293,4.2589,4.329,4.329,4.329,4.329,4.329,4.329,4.329,4.329,4.329,4.329,4.329,4.329,4.329,4.329,4.329,4.3125,4.2671,0.0,0.0,0.0,4.1512,4.1422,4.1422,4.1422,4.1422,4.1422,4.1422,4.1422,4.1422,4.1422,4.1422,4.1422,4.1422,4.1444,4.1647,4.0965,4.0935,4.1647,4.1647,4.1683,4.1848,4.2342,4.262,4.262,4.262,4.262,4.259,4.1931,4.1647,4.1632,4.1482,4.1422,4.1422,4.1422,4.1422,4.1422,4.1422,4.1422,4.1399,3.9697,3.9697,3.9697,3.9697,3.9697,3.9697,3.9697,3.9697,3.9697,3.9697,3.9697,3.9697,3.9697,3.9697,3.9697,3.9697,3.9697,3.9697,3.9697,3.9697,3.9697,3.9697,3.9697,3.9697,3.9697,3.9697,3.9697,3.9697,3.9697,3.9697,3.9697,3.9697,4.0313,4.1455,4.1416,4.2066,4.3149,4.3094,4.2799,4.2351,4.2444,4.2178,4.1653,4.1744,4.2477,4.3328,4.2209,4.3197,4.4884,4.3862,4.4247,4.4971,4.4314,4.4161,4.4082,4.3389,4.325,4.329,4.329,4.329,4.329,4.329,4.329,4.329,4.329,4.329,4.329,4.329,4.329,4.329,4.329,4.329,4.329,4.323,0.0,0.0,4.2336,4.1796,4.1422,4.1422,4.1422,4.1422,4.1422,4.1422,4.1422,4.1422,4.1422,4.1422,4.1422,4.1422,4.1692,4.2306,4.1692,4.1662,4.2321,4.2336,4.2596,4.3155,4.32,4.3215,4.3215,4.3215,4.3215,4.3185,4.2566,4.2336,4.2276,4.1677,4.1422,4.1422,4.1422,4.1422,4.1422,4.1422,4.1422,4.1512,3.9697,3.9697,3.9798,4.0149,4.0212,4.0325,4.0664,4.0714,4.0714,4.0714,4.0714,4.0714,4.0714,4.0413,4.0487,4.1311,4.1089,4.1219,4.1985,4.207,4.1369,3.9788,3.9697,3.9697,3.9697,4.0453,4.0882,4.0882,4.1654,4.207,4.207,4.207,4.2315,4.2786,4.2786,4.3074,4.3504,4.3504,4.3365,4.3252,4.4058,4.4237,4.4115,4.4891,4.5522,4.5842,4.5376,4.5784,4.6429,4.5571,4.558,4.5813,4.514,4.4646,4.4182,4.3484,4.329,4.329,4.329,4.329,4.329,4.329,4.329,4.329,4.329,4.329,4.329,4.329,4.329,4.329,4.329,4.329,4.329,4.329,0.0,4.297,4.297,4.2746,4.2596,4.2596,4.2596,4.2596,4.2596,4.2596,4.2596,4.2596,4.2596,4.2596,4.2596,4.2596,4.2716,4.2955,4.2716,4.2716,4.297,4.297,4.309,4.329,4.329,4.329,4.329,4.329,4.329,4.329,4.3075,4.297,4.294,4.2686,4.2596,4.2596,4.2596,4.2596,4.2596,4.2596,4.2596,4.2626,4.0212,4.0212,4.0325,4.0714,4.1121,4.1393,4.1333,4.1691,4.1785,4.1329,4.1288,4.1288,4.1288,4.139,4.1685,4.2323,4.2492,4.2795,4.347,4.3504,4.2738,4.0982,4.0882,4.0882,4.0882,4.1739,4.2217,4.2217,4.3074,4.3504,4.3504,4.3504,4.3693,4.4116,4.4116,4.4303,4.4688,4.4688,4.4688,4.478,4.5644,4.6018,4.6107,4.6975,4.7309,4.7309,4.7309,4.7309,4.7234,4.6785,4.6636,4.6516,4.5843,4.502,4.4227,4.3738,4.3454,4.329,4.329,4.329,4.329,4.329,4.329,4.329,4.329,4.329,4.329,4.329,4.329,4.329,4.329,4.329,4.329,4.329,4.329,4.329,4.329,4.329,4.329,4.329,4.329,4.329,4.329,4.329,4.329,4.329,4.329,4.329,4.329,4.329,4.329,4.329,4.329,4.329,4.329,4.329,4.329,4.329,4.329,4.329,4.329,4.329,4.329,4.329,4.329,4.329,4.329,4.329,4.329,4.329,4.329,4.329,4.329,4.329,4.329,4.329,4.1288,4.1288,4.1288,4.1342,4.2487,4.2931,4.1556,4.254,4.2944,4.1556,4.1354,4.1354,4.1354,4.2592,4.3146,4.2528,4.3732,4.4235,4.3592,4.3551,4.3551,4.3551,4.3504,4.3504,4.3504,4.3504,4.3504,4.3504,4.3504,4.3551,4.3551,4.3551,4.421,4.5403,4.5403,4.6107,4.7309,4.7309,4.7309,4.7309,4.7309,4.7309,4.7309,4.7309,4.7309,4.7309,4.7309,4.7309,4.7309,4.7309,4.7309,4.7189,4.6488,4.5409,4.4332,4.4317,4.3813,4.3305,4.329,4.329,4.329,4.329,4.329,4.329,4.329,4.329,4.329,4.329,4.329,4.329,4.329,4.329,4.329,4.329,4.329,4.329,4.329,4.329,4.329,4.329,4.329,4.329,4.329,4.329,4.329,4.329,4.329,4.329,4.329,4.329,4.329,4.329,4.329,4.329,4.329,4.329,4.329,4.329,4.329,4.329,4.329,4.329,4.329,4.329,4.329,4.329,4.329,4.329,4.329,4.329,4.329,4.329,4.329,4.329,4.329,4.329,4.2579,4.1985,4.1711,4.311,4.3677,4.3967,4.3908,4.5087,4.5853,4.5439,4.5348,4.5348,4.5348,4.5435,4.5701,4.6427,4.6073,4.5927,4.6151,4.6166,4.6166,4.6166,4.4442,4.3504,4.3504,4.4396,4.4826,4.4826,4.5734,4.6166,4.6166,4.6166,4.6358,4.6726,4.6726,4.6931,4.7309,4.7309,4.7309,4.7309,4.7309,4.7309,4.7309,4.7309,4.7309,4.7309,4.7309,4.7309,4.7309,4.7309,4.7309,4.7189,4.6488,4.601,4.5502,4.4586,4.4182,4.3888,4.3424,4.329,4.329,4.329,4.329,4.329,4.329,4.329,4.329,4.329,4.329,4.329,4.329,4.329,4.329,4.329,4.329,4.329,4.329,4.329,4.329,4.329,4.329,4.329,4.329,4.329,4.329,4.329,4.329,4.329,4.329,4.329,4.329,4.329,4.329,4.329,4.329,4.329,4.329,4.329,4.329,4.329,4.329,4.329,4.329,4.329,4.329,4.329,4.329,4.329,4.329,4.329,4.329,4.329,4.329,4.329,4.329,4.329,4.4604,4.4149,4.3953,4.5124,4.5788,4.6117,4.5858,4.7043,4.7721,4.7146,4.7094,4.7094,4.7094,4.7284,4.7624,4.8143,4.7556,4.7286,4.7669,4.7459,4.7309,4.7309,4.5824,4.5024,4.5024,4.5779,4.6166,4.6166,4.6916,4.7309,4.7309,4.7309,4.7309,4.7309,4.7309,4.7309,4.7309,4.7309,4.7309,4.7309,4.7309,4.7309,4.7309,4.7309,4.7309,4.7309,4.7309,4.7309,4.7309,4.7309,4.7309,4.7234,4.683,4.6488,4.6115,4.5349,4.4736,4.4227,4.3823,4.3484,4.329,4.329,4.329,4.329,4.329,4.329,4.329,4.329,4.329,4.329,4.329,4.329,4.329,4.329,4.329,4.329,4.329,4.329,4.329,4.329,4.329,4.329,4.329,4.329,4.329,4.329,4.329,4.329,4.329,4.329,4.329,4.329,4.329,4.329,4.329,4.329,4.329,4.329,4.329,4.329,4.329,4.329,4.329,4.329,4.329,4.329,4.329,4.329,4.329,4.329,4.329,4.329,4.329,4.329,4.329,4.329,4.6991,4.7197,4.7146,4.7248,4.8339,4.8752,4.7466,4.8489,4.8901,4.7619,4.7466,4.7466,4.7466,4.8589,4.9126,4.85,4.8484,4.8431,4.8371,4.7758,4.7399,4.7399,4.7339,4.7309,4.7309,4.7309,4.7309,4.7309,4.7309,4.7309,4.7309,4.7309,4.7309,4.7309,4.7309,4.7309,4.7309,4.7309,4.7309,4.7309,4.7309,4.7309,4.7309,4.7309,4.7309,4.7309,4.7309,4.7309,4.7309,4.7309,4.7309,4.7309,4.7309,4.689,4.6396,4.6337,4.5454,4.4481,4.4421,4.3888,4.3379,4.3379,4.3334,4.329,4.329,4.329,4.329,4.329,4.329,4.329,4.329,4.329,4.329,4.329,4.329,4.329,4.329,4.329,4.329,4.329,4.329,4.329,4.329,4.329,4.329,4.329,4.329,4.329,4.329,4.329,4.329,4.329,4.329,4.329,4.329,4.329,4.329,4.329,4.329,4.329,4.329,4.329,4.329,4.329,4.329,4.329,4.329,4.329,4.329,4.329,4.329,4.329,4.329,4.329,4.329,4.329,4.8489,4.7873,4.7453,4.8539,4.8999,4.9098,4.8802,4.9873,5.065,5.035,5.0287,5.0287,5.0287,5.0603,5.0701,5.0552,5.0072,4.9598,4.9134,4.8446,4.8072,4.8072,4.7578,4.7309,4.7309,4.7309,4.7309,4.7309,4.7309,4.7309,4.7309,4.7309,4.7309,4.7309,4.7309,4.7309,4.7309,4.7309,4.7309,4.7309,4.7309,4.7309,4.7309,4.7309,4.7309,4.7309,4.7309,4.7309,4.7309,4.7309,4.7309,4.7309,4.7309,4.7204,4.6995,4.6429,4.607,4.5768,4.5229,4.4601,4.4067,4.4067,4.3678,4.329,4.329,4.329,4.329,4.329,4.329,4.329,4.329,4.329,4.329,4.329,4.329,4.329,4.329,4.329,4.329,4.329,4.329,4.329,4.329,4.329,4.329,4.329,4.329,4.329,4.329,4.329,4.329,4.329,4.329,4.329,4.329,4.329,4.329,4.329,4.329,4.329,4.329,4.329,4.329,4.329,4.329,4.329,4.329,4.329,4.329,4.329,4.329,4.329,4.329,4.329,4.329,4.329,4.9873,4.9567,4.9308,5.0032,5.0143,5.0143,5.0143,5.076,5.1214,5.1214,5.1214,5.1214,5.1214,5.1214,5.1214,5.1214,5.0569,5.0046,4.9748,4.9119,4.8805,4.8805,4.8416,4.8087,4.7773,4.7773,4.7623,4.7309,4.7309,4.7309,4.7309,4.7309,4.7309,4.7309,4.7309,4.7309,4.7309,4.7309,4.7309,4.7309,4.7309,4.7309,4.7309,4.7309,4.7309,4.7309,4.7309,4.7309,4.7309,4.7309,4.7309,4.7309,4.7309,4.7309,4.7234,4.689,4.6576,4.6204,4.5888,4.5289,4.4706,4.4392,4.4062,4.3678,4.3364,4.329,4.329,4.329,4.329,4.329,4.329,4.329,4.329,4.329,4.329,4.329,4.329,4.329,4.329,4.329,4.329,4.329,4.329,4.329,4.329,4.329,4.329,4.329,4.329,4.329,4.329,4.329,4.329,4.329,4.329,4.329,4.329,4.329,4.329,4.329,4.329,4.329,4.329,4.329,4.329,4.329,4.329,4.329,4.329,4.329,4.329,4.329,4.329,4.329,4.329,4.329,5.0964,5.1214,5.1214,5.1214,5.1214,5.1214,5.1214,5.1214,5.1214,5.1214,5.1214,5.1214,5.1214,5.1214,5.1214,5.1214,5.0674,5.036,5.036,4.9793,4.9434,4.9434,4.9374,4.906,4.8461,4.8461,4.8072,4.7309,4.7309,4.7309,4.7309,4.7309,4.7309,4.7309,4.7309,4.7309,4.7309,4.7309,4.7309,4.7309,4.7309,4.7309,4.7309,4.7309,4.7309,4.7309,4.7309,4.7309,4.7309,4.7309,4.7309,4.7309,4.7309,4.7309,4.7309,4.7309,4.692,4.6444,4.6444,4.5992,4.5349,4.4796,4.4571,4.4317,4.3604,4.3379,4.329,4.329,4.329,4.329,4.329,4.329,4.329,4.329,4.329,4.329,4.329,4.329,4.329,4.329,4.329,4.329,4.329,4.329,4.329,4.329,4.329,4.329,4.329,4.329,4.329,4.329,4.329,4.329,4.329,4.329,4.329,4.329,4.329,4.329,4.329,4.329,4.329,4.329,4.329,4.329,4.329,4.329,4.329,4.329,4.329,4.329,4.329,4.329,4.329,4.329,5.1167,5.1214,5.1214,5.1214,5.1214,5.1214,5.1214,5.1214,5.1214,5.1214,5.1214,5.1214,5.1214,5.1214,5.1214,5.1214,5.1139,5.1079,5.1079,5.042,5.0061,5.0061,4.9568,4.9269,4.9179,4.9179,4.8536,4.7309,4.7309,4.7309,4.7309,4.7309,4.7309,4.7309,4.7309,4.7309,4.7309,4.7309,4.7309,4.7309,4.7309,4.7309,4.7309,4.7309,4.7309,4.7309,4.7309,4.7309,4.7309,4.7309,4.7309,4.7309,4.7309,4.7309,4.7309,4.7309,4.7249,4.7174,4.7174,4.6696,4.6115,4.6025,4.5603,4.499,4.4332,4.3708,4.329,4.329,4.329,4.329,4.329,4.329,4.329,4.329,4.329,4.329,4.329,4.329,4.329,4.329,4.329,4.329,4.329,4.329,4.329,4.329,4.329,4.329,4.329,4.329,4.329,4.329,4.329,4.329,4.329,4.329,4.329,4.329,4.329,4.329,4.329,4.329,4.329,4.329,4.329,4.329,4.329,4.329,4.329,4.329,4.329,4.329,4.329,4.329,4.329,4.329,5.1214,5.1214,5.1214,5.1214,5.1214,5.1214,5.1214,5.1214,5.1214,5.1214,5.1214,5.1214,5.1214,5.1214,5.1214,5.1214,5.1214,5.1214,5.1214,5.0898,5.0749,5.0749,5.0511,5.0182,4.9823,4.9808,4.9344,4.8401,4.8027,4.7668,4.7309,4.7309,4.7309,4.7309,4.7309,4.7309,4.7309,4.7309,4.7309,4.7309,4.7309,4.7309,4.7309,4.7309,4.7309,4.7309,4.7309,4.7309,4.7309,4.7309,4.7309,4.7309,4.7309,4.7309,4.7309,4.7309,4.7309,4.7309,4.7309,4.71,4.6785,4.6369,4.6097,4.5693,4.502,4.4631,4.4212,4.3439,4.329,4.329,4.329,4.329,4.329,4.329,4.329,4.329,4.329,4.329,4.329,4.329,4.329,4.329,4.329,4.329,4.329,4.329,4.329,4.329,4.329,4.329,4.329,4.329,4.329,4.329,4.329,4.329,4.329,4.329,4.329,4.329,4.329,4.329,4.329,4.329,4.329,4.329,4.329,4.329,4.329,4.329,4.329,4.329,4.329,4.329,4.3669,4.4143]}]]